Time,TemperatureF,DewpointF,PressureIn,WindDirection,WindDirectionDegrees,WindSpeedMPH,WindSpeedGustMPH,Humidity,HourlyPrecipIn,Conditions,Clouds,dailyrainin,SoftwareType,DateUTC
2013-02-18 00:00:00,32.7,21.5,26.16,NNW,338,5.4,8.1,63,0.00,,---,0.00,VWS V14.01,2013-02-18 07:00:00,
2013-02-18 00:01:00,32.7,21.5,26.16,NE,45,9.8,12.3,63,0.00,,---,0.00,VWS V14.01,2013-02-18 07:01:00,
2013-02-18 00:02:00,32.7,21.5,26.16,NNW,338,8.7,9.8,63,0.00,,---,0.00,VWS V14.01,2013-02-18 07:02:00,
2013-02-18 00:03:00,32.7,21.5,26.16,NNW,338,6.0,8.7,63,0.00,,---,0.00,VWS V14.01,2013-02-18 07:03:00,
2013-02-18 00:04:00,32.9,21.7,26.16,NNE,22,6.5,12.3,63,0.00,,---,0.00,VWS V14.01,2013-02-18 07:04:00,
2013-02-18 00:05:00,32.7,21.5,26.16,North,0,8.1,15.2,63,0.00,,---,0.00,VWS V14.01,2013-02-18 07:05:00,
2013-02-18 00:06:00,32.7,21.5,26.16,NNW,338,4.7,12.3,63,0.00,,---,0.00,VWS V14.01,2013-02-18 07:06:00,
2013-02-18 00:07:00,32.7,21.5,26.16,NE,45,8.1,8.1,63,0.00,,---,0.00,VWS V14.01,2013-02-18 07:07:00,
2013-02-18 00:08:00,32.7,21.5,26.16,NNW,338,8.1,8.1,63,0.00,,---,0.00,VWS V14.01,2013-02-18 07:08:00,
2013-02-18 00:09:00,33.1,22.2,26.16,North,0,8.1,14.8,64,0.00,,---,0.00,VWS V14.01,2013-02-18 07:09:00,
2013-02-18 00:10:00,32.9,21.7,26.16,NNW,338,10.7,12.5,63,0.00,,---,0.00,VWS V14.01,2013-02-18 07:10:00,
2013-02-18 00:11:00,32.9,21.7,26.16,NW,315,9.6,10.7,63,0.00,,---,0.00,VWS V14.01,2013-02-18 07:11:00,
2013-02-18 00:12:00,32.9,21.7,26.16,NNW,338,7.6,9.6,63,0.00,,---,0.00,VWS V14.01,2013-02-18 07:12:00,
2013-02-18 00:13:00,32.9,21.7,26.16,North,0,12.3,14.1,63,0.00,,---,0.00,VWS V14.01,2013-02-18 07:13:00,
2013-02-18 00:14:00,33.1,21.5,26.16,NE,45,16.3,16.3,62,0.00,,---,0.00,VWS V14.01,2013-02-18 07:14:00,
2013-02-18 00:15:00,33.1,21.9,26.16,NNW,338,4.3,9.6,63,0.00,,---,0.00,VWS V14.01,2013-02-18 07:15:00,
2013-02-18 00:16:00,33.1,21.9,26.16,North,0,10.1,10.1,63,0.00,,---,0.00,VWS V14.01,2013-02-18 07:16:00,
2013-02-18 00:17:00,33.1,22.2,26.16,NW,315,6.3,15.4,64,0.00,,---,0.00,VWS V14.01,2013-02-18 07:17:00,
2013-02-18 00:18:00,33.1,22.2,26.16,NNW,338,14.8,14.8,64,0.00,,---,0.00,VWS V14.01,2013-02-18 07:18:00,
2013-02-18 00:19:00,33.1,20.7,26.16,NNW,338,7.4,7.4,60,0.00,,---,0.00,VWS V14.01,2013-02-18 07:19:00,
2013-02-18 00:20:00,33.1,21.9,26.16,NNE,22,8.5,10.7,63,0.00,,---,0.00,VWS V14.01,2013-02-18 07:20:00,
2013-02-18 00:21:00,33.1,21.9,26.16,WNW,292,17.5,17.7,63,0.00,,---,0.00,VWS V14.01,2013-02-18 07:21:00,
2013-02-18 00:22:00,33.1,21.9,26.16,NNE,22,17.7,17.7,63,0.00,,---,0.00,VWS V14.01,2013-02-18 07:22:00,
2013-02-18 00:23:00,33.1,21.5,26.16,North,0,10.1,17.7,62,0.00,,---,0.00,VWS V14.01,2013-02-18 07:23:00,
2013-02-18 00:24:00,33.1,20.7,26.19,NNE,22,15.2,15.2,60,0.00,,---,0.00,VWS V14.01,2013-02-18 07:24:00,
2013-02-18 00:25:00,33.1,21.1,26.16,SW,225,8.1,15.7,61,0.00,,---,0.00,VWS V14.01,2013-02-18 07:25:00,
2013-02-18 00:26:00,33.1,21.1,26.16,NW,315,6.5,8.1,61,0.00,,---,0.00,VWS V14.01,2013-02-18 07:26:00,
2013-02-18 00:27:00,33.1,21.1,26.16,WNW,292,14.3,14.3,61,0.00,,---,0.00,VWS V14.01,2013-02-18 07:27:00,
2013-02-18 00:28:00,33.1,20.7,26.16,North,0,5.8,16.3,60,0.00,,---,0.00,VWS V14.01,2013-02-18 07:28:00,
2013-02-18 00:29:00,33.3,20.5,26.19,NW,315,10.1,11.0,59,0.00,,---,0.00,VWS V14.01,2013-02-18 07:29:00,
2013-02-18 00:30:00,33.1,20.7,26.16,NNW,338,7.2,17.0,60,0.00,,---,0.00,VWS V14.01,2013-02-18 07:30:00,
2013-02-18 00:31:00,33.1,20.7,26.16,NNW,338,13.6,13.6,60,0.00,,---,0.00,VWS V14.01,2013-02-18 07:31:00,
2013-02-18 00:32:00,33.3,20.9,26.16,NNW,338,7.6,13.6,60,0.00,,---,0.00,VWS V14.01,2013-02-18 07:32:00,
2013-02-18 00:33:00,33.3,20.9,26.19,NE,45,13.0,13.0,60,0.00,,---,0.00,VWS V14.01,2013-02-18 07:33:00,
2013-02-18 00:34:00,33.1,20.3,26.19,NNE,22,6.5,10.3,59,0.00,,---,0.00,VWS V14.01,2013-02-18 07:34:00,
2013-02-18 00:35:00,33.3,20.5,26.19,WNW,292,7.6,11.4,59,0.00,,---,0.00,VWS V14.01,2013-02-18 07:35:00,
2013-02-18 00:36:00,33.3,20.5,26.19,NW,315,7.8,10.3,59,0.00,,---,0.00,VWS V14.01,2013-02-18 07:36:00,
2013-02-18 00:37:00,33.3,20.5,26.19,WNW,292,10.1,14.1,59,0.00,,---,0.00,VWS V14.01,2013-02-18 07:37:00,
2013-02-18 00:38:00,33.3,20.5,26.19,NW,315,8.5,15.2,59,0.00,,---,0.00,VWS V14.01,2013-02-18 07:38:00,
2013-02-18 00:39:00,33.1,20.3,26.19,NNW,338,3.8,7.4,59,0.00,,---,0.00,VWS V14.01,2013-02-18 07:39:00,
2013-02-18 00:40:00,33.3,20.5,26.19,NE,45,6.0,10.5,59,0.00,,---,0.00,VWS V14.01,2013-02-18 07:40:00,
2013-02-18 00:41:00,33.3,20.5,26.19,NNW,338,10.1,14.5,59,0.00,,---,0.00,VWS V14.01,2013-02-18 07:41:00,
2013-02-18 00:42:00,33.1,20.3,26.19,North,0,7.4,11.0,59,0.00,,---,0.00,VWS V14.01,2013-02-18 07:42:00,
2013-02-18 00:43:00,33.1,20.3,26.19,NW,315,10.3,10.3,59,0.00,,---,0.00,VWS V14.01,2013-02-18 07:43:00,
2013-02-18 00:44:00,33.1,19.9,26.19,NNW,338,10.1,11.9,58,0.00,,---,0.00,VWS V14.01,2013-02-18 07:44:00,
2013-02-18 00:45:00,33.1,20.3,26.19,North,0,15.7,15.7,59,0.00,,---,0.00,VWS V14.01,2013-02-18 07:45:00,
2013-02-18 00:46:00,33.1,20.3,26.19,NNE,22,10.1,15.7,59,0.00,,---,0.00,VWS V14.01,2013-02-18 07:46:00,
2013-02-18 00:47:00,33.1,20.3,26.19,NNE,22,10.5,10.5,59,0.00,,---,0.00,VWS V14.01,2013-02-18 07:47:00,
2013-02-18 00:48:00,33.1,20.3,26.19,NW,315,7.4,14.5,59,0.00,,---,0.00,VWS V14.01,2013-02-18 07:48:00,
2013-02-18 00:49:00,33.1,19.9,26.19,SW,225,6.5,10.3,58,0.00,,---,0.00,VWS V14.01,2013-02-18 07:49:00,
2013-02-18 00:50:00,33.1,20.3,26.19,West,270,12.5,12.5,59,0.00,,---,0.00,VWS V14.01,2013-02-18 07:50:00,
2013-02-18 00:51:00,33.1,20.3,26.19,NNW,338,12.1,13.6,59,0.00,,---,0.00,VWS V14.01,2013-02-18 07:51:00,
2013-02-18 00:52:00,33.1,19.9,26.19,WNW,292,8.5,12.1,58,0.00,,---,0.00,VWS V14.01,2013-02-18 07:52:00,
2013-02-18 00:53:00,33.1,19.9,26.19,NNW,338,8.7,9.8,58,0.00,,---,0.00,VWS V14.01,2013-02-18 07:53:00,
2013-02-18 00:54:00,33.1,19.9,26.16,NNW,338,9.8,9.8,58,0.00,,---,0.00,VWS V14.01,2013-02-18 07:54:00,
2013-02-18 00:55:00,33.1,19.9,26.19,NNW,338,7.8,15.9,58,0.00,,---,0.00,VWS V14.01,2013-02-18 07:55:00,
2013-02-18 00:56:00,33.1,19.9,26.19,NNE,22,8.5,8.5,58,0.00,,---,0.00,VWS V14.01,2013-02-18 07:56:00,
2013-02-18 00:57:00,33.1,19.9,26.19,NW,315,7.8,8.7,58,0.00,,---,0.00,VWS V14.01,2013-02-18 07:57:00,
2013-02-18 00:58:00,33.1,19.9,26.19,WNW,292,10.3,14.1,58,0.00,,---,0.00,VWS V14.01,2013-02-18 07:58:00,
2013-02-18 00:59:00,33.1,19.9,26.16,NNW,338,13.2,13.2,58,0.00,,---,0.00,VWS V14.01,2013-02-18 07:59:00,
2013-02-18 01:00:00,33.1,19.9,26.19,NW,315,9.8,13.0,58,0.00,,---,0.00,VWS V14.01,2013-02-18 08:00:00,
2013-02-18 01:01:00,33.1,19.9,26.19,NE,45,6.3,9.8,58,0.00,,---,0.00,VWS V14.01,2013-02-18 08:01:00,
2013-02-18 01:02:00,33.1,19.9,26.19,NNW,338,5.8,8.7,58,0.00,,---,0.00,VWS V14.01,2013-02-18 08:02:00,
2013-02-18 01:03:00,33.1,19.9,26.16,WNW,292,3.8,9.8,58,0.00,,---,0.00,VWS V14.01,2013-02-18 08:03:00,
2013-02-18 01:04:00,32.9,20.2,26.16,NE,45,6.5,6.5,59,0.00,,---,0.00,VWS V14.01,2013-02-18 08:04:00,
2013-02-18 01:05:00,33.1,19.9,26.16,NW,315,8.7,9.8,58,0.00,,---,0.00,VWS V14.01,2013-02-18 08:05:00,
2013-02-18 01:06:00,33.1,19.9,26.16,NNW,338,6.3,8.7,58,0.00,,---,0.00,VWS V14.01,2013-02-18 08:06:00,
2013-02-18 01:07:00,32.9,19.8,26.16,WSW,248,5.6,6.3,58,0.00,,---,0.00,VWS V14.01,2013-02-18 08:07:00,
2013-02-18 01:08:00,33.1,19.9,26.16,NNW,338,8.5,8.5,58,0.00,,---,0.00,VWS V14.01,2013-02-18 08:08:00,
2013-02-18 01:09:00,32.9,20.5,26.19,WNW,292,10.5,10.5,60,0.00,,---,0.00,VWS V14.01,2013-02-18 08:09:00,
2013-02-18 01:10:00,33.1,19.9,26.16,NE,45,7.6,11.4,58,0.00,,---,0.00,VWS V14.01,2013-02-18 08:10:00,
2013-02-18 01:11:00,33.1,19.9,26.16,NNE,22,7.8,7.8,58,0.00,,---,0.00,VWS V14.01,2013-02-18 08:11:00,
2013-02-18 01:12:00,32.9,20.2,26.16,NW,315,13.2,15.9,59,0.00,,---,0.00,VWS V14.01,2013-02-18 08:12:00,
2013-02-18 01:13:00,32.9,20.2,26.16,NE,45,6.5,13.2,59,0.00,,---,0.00,VWS V14.01,2013-02-18 08:13:00,
2013-02-18 01:14:00,32.9,20.5,26.19,West,270,8.7,8.7,60,0.00,,---,0.00,VWS V14.01,2013-02-18 08:14:00,
2013-02-18 01:15:00,32.9,20.2,26.16,NW,315,7.4,13.4,59,0.00,,---,0.00,VWS V14.01,2013-02-18 08:15:00,
2013-02-18 01:16:00,32.9,20.5,26.16,NW,315,5.8,11.9,60,0.00,,---,0.00,VWS V14.01,2013-02-18 08:16:00,
2013-02-18 01:17:00,32.9,20.5,26.16,NNW,338,9.4,9.4,60,0.00,,---,0.00,VWS V14.01,2013-02-18 08:17:00,
2013-02-18 01:18:00,32.9,20.5,26.19,NW,315,8.5,10.5,60,0.00,,---,0.00,VWS V14.01,2013-02-18 08:18:00,
2013-02-18 01:19:00,32.9,20.9,26.19,NNW,338,5.8,8.5,61,0.00,,---,0.00,VWS V14.01,2013-02-18 08:19:00,
2013-02-18 01:20:00,32.9,20.5,26.19,NNW,338,10.1,17.2,60,0.00,,---,0.00,VWS V14.01,2013-02-18 08:20:00,
2013-02-18 01:21:00,32.9,20.5,26.19,NNW,338,5.6,10.5,60,0.00,,---,0.00,VWS V14.01,2013-02-18 08:21:00,
2013-02-18 01:22:00,32.9,20.5,26.19,NNW,338,10.5,12.5,60,0.00,,---,0.00,VWS V14.01,2013-02-18 08:22:00,
2013-02-18 01:23:00,32.9,20.5,26.19,North,0,7.8,10.5,60,0.00,,---,0.00,VWS V14.01,2013-02-18 08:23:00,
2013-02-18 01:24:00,32.7,20.8,26.19,NNW,338,7.4,7.4,61,0.00,,---,0.00,VWS V14.01,2013-02-18 08:24:00,
2013-02-18 01:25:00,32.9,20.9,26.19,WNW,292,5.4,11.0,61,0.00,,---,0.00,VWS V14.01,2013-02-18 08:25:00,
2013-02-18 01:26:00,32.7,20.8,26.19,NE,45,10.7,13.0,61,0.00,,---,0.00,VWS V14.01,2013-02-18 08:26:00,
2013-02-18 01:27:00,32.9,20.9,26.19,NW,315,10.3,10.7,61,0.00,,---,0.00,VWS V14.01,2013-02-18 08:27:00,
2013-02-18 01:28:00,32.9,20.9,26.19,NW,315,8.5,10.3,61,0.00,,---,0.00,VWS V14.01,2013-02-18 08:28:00,
2013-02-18 01:29:00,32.7,20.4,26.19,NNW,338,11.9,11.9,60,0.00,,---,0.00,VWS V14.01,2013-02-18 08:29:00,
2013-02-18 01:30:00,32.9,20.9,26.19,NNW,338,10.1,12.8,61,0.00,,---,0.00,VWS V14.01,2013-02-18 08:30:00,
2013-02-18 01:31:00,32.9,20.9,26.19,NNW,338,6.3,10.1,61,0.00,,---,0.00,VWS V14.01,2013-02-18 08:31:00,
2013-02-18 01:32:00,32.9,20.9,26.19,NNW,338,8.1,8.1,61,0.00,,---,0.00,VWS V14.01,2013-02-18 08:32:00,
2013-02-18 01:33:00,32.9,20.9,26.19,NW,315,6.5,10.5,61,0.00,,---,0.00,VWS V14.01,2013-02-18 08:33:00,
2013-02-18 01:34:00,32.9,20.2,26.19,NNW,338,12.8,12.8,59,0.00,,---,0.00,VWS V14.01,2013-02-18 08:34:00,
2013-02-18 01:35:00,32.7,20.4,26.19,NNW,338,10.7,14.3,60,0.00,,---,0.00,VWS V14.01,2013-02-18 08:35:00,
2013-02-18 01:36:00,32.7,20.4,26.19,NW,315,6.3,10.7,60,0.00,,---,0.00,VWS V14.01,2013-02-18 08:36:00,
2013-02-18 01:37:00,32.7,20.4,26.19,West,270,8.5,10.5,60,0.00,,---,0.00,VWS V14.01,2013-02-18 08:37:00,
2013-02-18 01:38:00,32.7,20.4,26.19,NNW,338,11.9,16.3,60,0.00,,---,0.00,VWS V14.01,2013-02-18 08:38:00,
2013-02-18 01:39:00,32.9,20.2,26.19,North,0,8.7,8.7,59,0.00,,---,0.00,VWS V14.01,2013-02-18 08:39:00,
2013-02-18 01:40:00,32.7,20.4,26.19,NNW,338,16.8,16.8,60,0.00,,---,0.00,VWS V14.01,2013-02-18 08:40:00,
2013-02-18 01:41:00,32.7,20.0,26.19,North,0,15.4,16.8,59,0.00,,---,0.00,VWS V14.01,2013-02-18 08:41:00,
2013-02-18 01:42:00,32.7,20.0,26.19,North,0,10.1,15.4,59,0.00,,---,0.00,VWS V14.01,2013-02-18 08:42:00,
2013-02-18 01:43:00,32.9,20.2,26.19,NNW,338,7.4,15.2,59,0.00,,---,0.00,VWS V14.01,2013-02-18 08:43:00,
2013-02-18 01:44:00,32.9,19.8,26.19,West,270,3.4,7.4,58,0.00,,---,0.00,VWS V14.01,2013-02-18 08:44:00,
2013-02-18 01:45:00,32.9,20.2,26.19,NW,315,8.1,16.3,59,0.00,,---,0.00,VWS V14.01,2013-02-18 08:45:00,
2013-02-18 01:46:00,32.9,20.2,26.19,NNW,338,5.4,10.1,59,0.00,,---,0.00,VWS V14.01,2013-02-18 08:46:00,
2013-02-18 01:47:00,32.9,20.2,26.19,NNW,338,10.7,11.9,59,0.00,,---,0.00,VWS V14.01,2013-02-18 08:47:00,
2013-02-18 01:48:00,32.9,20.2,26.19,North,0,6.0,17.0,59,0.00,,---,0.00,VWS V14.01,2013-02-18 08:48:00,
2013-02-18 01:49:00,32.9,19.8,26.19,WSW,248,8.5,11.0,58,0.00,,---,0.00,VWS V14.01,2013-02-18 08:49:00,
2013-02-18 01:50:00,32.9,19.8,26.19,NW,315,12.5,12.5,58,0.00,,---,0.00,VWS V14.01,2013-02-18 08:50:00,
2013-02-18 01:51:00,32.9,19.8,26.19,NNW,338,6.3,12.5,58,0.00,,---,0.00,VWS V14.01,2013-02-18 08:51:00,
2013-02-18 01:52:00,32.9,19.8,26.19,NNW,338,15.7,15.7,58,0.00,,---,0.00,VWS V14.01,2013-02-18 08:52:00,
2013-02-18 01:53:00,32.9,19.8,26.19,North,0,7.4,15.7,58,0.00,,---,0.00,VWS V14.01,2013-02-18 08:53:00,
2013-02-18 01:54:00,33.1,19.5,26.19,NNW,338,10.3,12.3,57,0.00,,---,0.00,VWS V14.01,2013-02-18 08:54:00,
2013-02-18 01:55:00,32.9,19.8,26.19,NW,315,4.0,8.1,58,0.00,,---,0.00,VWS V14.01,2013-02-18 08:55:00,
2013-02-18 01:56:00,32.9,19.8,26.19,NNW,338,8.5,8.5,58,0.00,,---,0.00,VWS V14.01,2013-02-18 08:56:00,
2013-02-18 01:57:00,32.9,19.8,26.19,NW,315,3.6,8.5,58,0.00,,---,0.00,VWS V14.01,2013-02-18 08:57:00,
2013-02-18 01:58:00,32.9,19.8,26.19,SE,135,11.0,11.0,58,0.00,,---,0.00,VWS V14.01,2013-02-18 08:58:00,
2013-02-18 01:59:00,33.1,19.5,26.19,NW,315,8.5,8.5,57,0.00,,---,0.00,VWS V14.01,2013-02-18 08:59:00,
2013-02-18 02:00:00,32.9,19.8,26.19,NW,315,8.7,11.0,58,0.00,,---,0.00,VWS V14.01,2013-02-18 09:00:00,
2013-02-18 02:01:00,32.9,19.8,26.19,NW,315,7.8,10.1,58,0.00,,---,0.00,VWS V14.01,2013-02-18 09:01:00,
2013-02-18 02:02:00,33.1,19.5,26.19,NW,315,5.8,10.5,57,0.00,,---,0.00,VWS V14.01,2013-02-18 09:02:00,
2013-02-18 02:03:00,33.1,19.5,26.19,NNW,338,12.3,12.3,57,0.00,,---,0.00,VWS V14.01,2013-02-18 09:03:00,
2013-02-18 02:04:00,33.1,19.5,26.19,North,0,4.3,4.3,57,0.00,,---,0.00,VWS V14.01,2013-02-18 09:04:00,
2013-02-18 02:05:00,33.1,19.5,26.19,NNW,338,10.7,10.7,57,0.00,,---,0.00,VWS V14.01,2013-02-18 09:05:00,
2013-02-18 02:06:00,33.1,19.5,26.19,North,0,5.6,10.7,57,0.00,,---,0.00,VWS V14.01,2013-02-18 09:06:00,
2013-02-18 02:07:00,33.1,19.5,26.19,NNW,338,17.0,17.0,57,0.00,,---,0.00,VWS V14.01,2013-02-18 09:07:00,
2013-02-18 02:08:00,33.1,19.5,26.19,NNW,338,6.5,17.0,57,0.00,,---,0.00,VWS V14.01,2013-02-18 09:08:00,
2013-02-18 02:09:00,33.1,19.9,26.19,NW,315,10.1,10.1,58,0.00,,---,0.00,VWS V14.01,2013-02-18 09:09:00,
2013-02-18 02:10:00,33.1,19.5,26.19,NNW,338,8.1,8.1,57,0.00,,---,0.00,VWS V14.01,2013-02-18 09:10:00,
2013-02-18 02:11:00,33.1,19.5,26.19,NNW,338,8.5,8.5,57,0.00,,---,0.00,VWS V14.01,2013-02-18 09:11:00,
2013-02-18 02:12:00,33.1,19.5,26.19,NW,315,5.6,8.5,57,0.00,,---,0.00,VWS V14.01,2013-02-18 09:12:00,
2013-02-18 02:13:00,33.1,19.5,26.19,North,0,4.0,7.8,57,0.00,,---,0.00,VWS V14.01,2013-02-18 09:13:00,
2013-02-18 02:14:00,33.1,19.9,26.19,NW,315,7.4,8.7,58,0.00,,---,0.00,VWS V14.01,2013-02-18 09:14:00,
2013-02-18 02:15:00,33.1,19.5,26.19,WNW,292,11.2,14.3,57,0.00,,---,0.00,VWS V14.01,2013-02-18 09:15:00,
2013-02-18 02:16:00,33.1,19.5,26.19,NNW,338,5.8,12.8,57,0.00,,---,0.00,VWS V14.01,2013-02-18 09:16:00,
2013-02-18 02:17:00,33.1,19.5,26.19,NNE,22,8.7,8.7,57,0.00,,---,0.00,VWS V14.01,2013-02-18 09:17:00,
2013-02-18 02:18:00,33.3,19.7,26.19,WNW,292,5.6,14.5,57,0.00,,---,0.00,VWS V14.01,2013-02-18 09:18:00,
2013-02-18 02:19:00,33.1,20.3,26.19,NE,45,5.4,5.4,59,0.00,,---,0.00,VWS V14.01,2013-02-18 09:19:00,
2013-02-18 02:20:00,33.1,19.9,26.19,NNE,22,4.9,8.7,58,0.00,,---,0.00,VWS V14.01,2013-02-18 09:20:00,
2013-02-18 02:21:00,33.1,19.9,26.19,NW,315,8.1,11.9,58,0.00,,---,0.00,VWS V14.01,2013-02-18 09:21:00,
2013-02-18 02:22:00,33.1,19.9,26.19,West,270,8.5,12.8,58,0.00,,---,0.00,VWS V14.01,2013-02-18 09:22:00,
2013-02-18 02:23:00,33.1,19.9,26.19,North,0,8.7,11.0,58,0.00,,---,0.00,VWS V14.01,2013-02-18 09:23:00,
2013-02-18 02:24:00,32.9,20.5,26.22,NNW,338,7.8,10.1,60,0.00,,---,0.00,VWS V14.01,2013-02-18 09:24:00,
2013-02-18 02:25:00,33.1,19.9,26.19,North,0,8.1,8.1,58,0.00,,---,0.00,VWS V14.01,2013-02-18 09:25:00,
2013-02-18 02:26:00,33.1,19.9,26.19,NW,315,6.0,8.1,58,0.00,,---,0.00,VWS V14.01,2013-02-18 09:26:00,
2013-02-18 02:27:00,33.1,19.9,26.19,NW,315,10.7,10.7,58,0.00,,---,0.00,VWS V14.01,2013-02-18 09:27:00,
2013-02-18 02:28:00,33.1,20.3,26.19,NNW,338,2.5,10.7,59,0.00,,---,0.00,VWS V14.01,2013-02-18 09:28:00,
2013-02-18 02:29:00,32.7,21.9,26.22,ENE,68,13.2,13.2,64,0.00,,---,0.00,VWS V14.01,2013-02-18 09:29:00,
2013-02-18 02:30:00,33.1,20.3,26.19,NNE,22,9.6,9.6,59,0.00,,---,0.00,VWS V14.01,2013-02-18 09:30:00,
2013-02-18 02:31:00,33.1,20.3,26.19,NW,315,7.8,9.6,59,0.00,,---,0.00,VWS V14.01,2013-02-18 09:31:00,
2013-02-18 02:32:00,33.1,20.3,26.19,North,0,7.6,7.8,59,0.00,,---,0.00,VWS V14.01,2013-02-18 09:32:00,
2013-02-18 02:33:00,33.1,20.7,26.22,NNW,338,10.1,10.1,60,0.00,,---,0.00,VWS V14.01,2013-02-18 09:33:00,
2013-02-18 02:34:00,32.2,22.1,26.22,NNW,338,3.1,6.5,66,0.00,,---,0.00,VWS V14.01,2013-02-18 09:34:00,
2013-02-18 02:35:00,32.9,20.9,26.22,NW,315,6.5,6.5,61,0.00,,---,0.00,VWS V14.01,2013-02-18 09:35:00,
2013-02-18 02:36:00,32.9,20.9,26.22,NE,45,3.4,6.5,61,0.00,,---,0.00,VWS V14.01,2013-02-18 09:36:00,
2013-02-18 02:37:00,32.7,21.1,26.22,NNE,22,3.4,3.4,62,0.00,,---,0.00,VWS V14.01,2013-02-18 09:37:00,
2013-02-18 02:38:00,32.7,21.9,26.22,ENE,68,13.2,13.2,64,0.00,,---,0.00,VWS V14.01,2013-02-18 09:38:00,
2013-02-18 02:39:00,31.8,22.1,26.22,North,0,7.2,8.5,67,0.00,,---,0.00,VWS V14.01,2013-02-18 09:39:00,
2013-02-18 02:40:00,32.5,22.5,26.22,WNW,292,6.0,12.1,66,0.00,,---,0.00,VWS V14.01,2013-02-18 09:40:00,
2013-02-18 02:41:00,32.4,22.3,26.22,NNW,338,9.2,9.2,66,0.00,,---,0.00,VWS V14.01,2013-02-18 09:41:00,
2013-02-18 02:42:00,32.2,22.1,26.22,North,0,8.7,9.2,66,0.00,,---,0.00,VWS V14.01,2013-02-18 09:42:00,
2013-02-18 02:43:00,32.2,22.1,26.22,NW,315,6.5,12.1,66,0.00,,---,0.00,VWS V14.01,2013-02-18 09:43:00,
2013-02-18 02:44:00,31.5,22.5,26.25,NNW,338,4.9,4.9,69,0.00,,---,0.00,VWS V14.01,2013-02-18 09:44:00,
2013-02-18 02:45:00,32.0,22.3,26.22,ENE,68,7.8,7.8,67,0.00,,---,0.00,VWS V14.01,2013-02-18 09:45:00,
2013-02-18 02:46:00,31.8,22.1,26.22,NW,315,4.3,7.8,67,0.00,,---,0.00,VWS V14.01,2013-02-18 09:46:00,
2013-02-18 02:47:00,31.8,22.1,26.22,NW,315,4.3,7.2,67,0.00,,---,0.00,VWS V14.01,2013-02-18 09:47:00,
2013-02-18 02:48:00,31.8,22.1,26.22,WNW,292,8.5,9.6,67,0.00,,---,0.00,VWS V14.01,2013-02-18 09:48:00,
2013-02-18 02:49:00,31.1,22.1,26.25,NNW,338,8.5,8.5,69,0.00,,---,0.00,VWS V14.01,2013-02-18 09:49:00,
2013-02-18 02:50:00,31.6,22.3,26.25,NNW,338,8.7,8.7,68,0.00,,---,0.00,VWS V14.01,2013-02-18 09:50:00,
2013-02-18 02:51:00,31.6,22.3,26.25,NW,315,6.3,8.7,68,0.00,,---,0.00,VWS V14.01,2013-02-18 09:51:00,
2013-02-18 02:52:00,31.5,22.1,26.25,NNW,338,8.5,10.5,68,0.00,,---,0.00,VWS V14.01,2013-02-18 09:52:00,
2013-02-18 02:53:00,31.5,22.5,26.25,NNW,338,4.3,8.5,69,0.00,,---,0.00,VWS V14.01,2013-02-18 09:53:00,
2013-02-18 02:54:00,30.9,22.3,26.25,NW,315,3.6,4.7,70,0.00,,---,0.00,VWS V14.01,2013-02-18 09:54:00,
2013-02-18 02:55:00,31.3,22.3,26.25,NNW,338,5.8,10.3,69,0.00,,---,0.00,VWS V14.01,2013-02-18 09:55:00,
2013-02-18 02:56:00,31.3,22.3,26.25,NNW,338,5.6,9.6,69,0.00,,---,0.00,VWS V14.01,2013-02-18 09:56:00,
2013-02-18 02:57:00,31.3,22.3,26.25,WNW,292,5.6,5.6,69,0.00,,---,0.00,VWS V14.01,2013-02-18 09:57:00,
2013-02-18 02:58:00,31.1,22.1,26.25,NNW,338,8.5,8.7,69,0.00,,---,0.00,VWS V14.01,2013-02-18 09:58:00,
2013-02-18 02:59:00,30.7,21.8,26.25,NNE,22,8.7,8.7,69,0.00,,---,0.00,VWS V14.01,2013-02-18 09:59:00,
2013-02-18 03:00:00,31.1,22.1,26.25,NNW,338,6.3,6.3,69,0.00,,---,0.00,VWS V14.01,2013-02-18 10:00:00,
2013-02-18 03:01:00,31.1,22.1,26.25,NNW,338,4.9,6.3,69,0.00,,---,0.00,VWS V14.01,2013-02-18 10:01:00,
2013-02-18 03:02:00,30.9,22.0,26.25,NE,45,5.8,5.8,69,0.00,,---,0.00,VWS V14.01,2013-02-18 10:02:00,
2013-02-18 03:03:00,30.9,22.3,26.25,East,90,4.7,6.0,70,0.00,,---,0.00,VWS V14.01,2013-02-18 10:03:00,
2013-02-18 03:04:00,30.6,21.6,26.25,NNW,338,4.0,5.4,69,0.00,,---,0.00,VWS V14.01,2013-02-18 10:04:00,
2013-02-18 03:05:00,30.7,21.8,26.25,NNW,338,4.3,6.5,69,0.00,,---,0.00,VWS V14.01,2013-02-18 10:05:00,
2013-02-18 03:06:00,30.7,21.8,26.25,North,0,4.9,6.3,69,0.00,,---,0.00,VWS V14.01,2013-02-18 10:06:00,
2013-02-18 03:07:00,30.7,21.8,26.25,NW,315,3.1,5.4,69,0.00,,---,0.00,VWS V14.01,2013-02-18 10:07:00,
2013-02-18 03:08:00,30.7,21.8,26.25,NNE,22,8.7,8.7,69,0.00,,---,0.00,VWS V14.01,2013-02-18 10:08:00,
2013-02-18 03:09:00,30.4,21.1,26.28,NW,315,6.0,9.2,68,0.00,,---,0.00,VWS V14.01,2013-02-18 10:09:00,
2013-02-18 03:10:00,30.7,21.8,26.25,NNE,22,7.2,8.7,69,0.00,,---,0.00,VWS V14.01,2013-02-18 10:10:00,
2013-02-18 03:11:00,30.7,21.8,26.25,WNW,292,6.5,7.2,69,0.00,,---,0.00,VWS V14.01,2013-02-18 10:11:00,
2013-02-18 03:12:00,30.6,21.6,26.25,NW,315,7.2,7.8,69,0.00,,---,0.00,VWS V14.01,2013-02-18 10:12:00,
2013-02-18 03:13:00,30.6,21.6,26.25,NW,315,5.4,7.2,69,0.00,,---,0.00,VWS V14.01,2013-02-18 10:13:00,
2013-02-18 03:14:00,30.2,20.6,26.28,NNW,338,8.1,8.1,67,0.00,,---,0.00,VWS V14.01,2013-02-18 10:14:00,
2013-02-18 03:15:00,30.6,21.3,26.25,North,0,5.6,10.3,68,0.00,,---,0.00,VWS V14.01,2013-02-18 10:15:00,
2013-02-18 03:16:00,30.6,21.3,26.25,NNW,338,2.7,5.6,68,0.00,,---,0.00,VWS V14.01,2013-02-18 10:16:00,
2013-02-18 03:17:00,30.6,21.3,26.25,NW,315,6.0,6.0,68,0.00,,---,0.00,VWS V14.01,2013-02-18 10:17:00,
2013-02-18 03:18:00,30.4,21.1,26.28,NNW,338,9.2,9.2,68,0.00,,---,0.00,VWS V14.01,2013-02-18 10:18:00,
2013-02-18 03:19:00,30.0,20.4,26.28,NE,45,9.0,9.0,67,0.00,,---,0.00,VWS V14.01,2013-02-18 10:19:00,
2013-02-18 03:20:00,30.4,20.8,26.28,NW,315,6.3,7.2,67,0.00,,---,0.00,VWS V14.01,2013-02-18 10:20:00,
2013-02-18 03:21:00,30.2,20.6,26.28,NW,315,7.2,7.2,67,0.00,,---,0.00,VWS V14.01,2013-02-18 10:21:00,
2013-02-18 03:22:00,30.2,20.6,26.28,WNW,292,6.3,8.1,67,0.00,,---,0.00,VWS V14.01,2013-02-18 10:22:00,
2013-02-18 03:23:00,30.2,20.6,26.28,North,0,7.8,10.7,67,0.00,,---,0.00,VWS V14.01,2013-02-18 10:23:00,
2013-02-18 03:24:00,30.0,20.4,26.25,NW,315,4.9,7.6,67,0.00,,---,0.00,VWS V14.01,2013-02-18 10:24:00,
2013-02-18 03:25:00,30.2,20.6,26.28,NW,315,8.1,8.1,67,0.00,,---,0.00,VWS V14.01,2013-02-18 10:25:00,
2013-02-18 03:26:00,30.2,20.6,26.28,NNE,22,8.7,8.7,67,0.00,,---,0.00,VWS V14.01,2013-02-18 10:26:00,
2013-02-18 03:27:00,30.0,20.4,26.28,NNE,22,7.2,8.7,67,0.00,,---,0.00,VWS V14.01,2013-02-18 10:27:00,
2013-02-18 03:28:00,30.0,20.4,26.28,NNW,338,3.8,7.4,67,0.00,,---,0.00,VWS V14.01,2013-02-18 10:28:00,
2013-02-18 03:29:00,30.0,20.4,26.25,NW,315,3.8,3.8,67,0.00,,---,0.00,VWS V14.01,2013-02-18 10:29:00,
2013-02-18 03:30:00,30.0,20.4,26.28,WNW,292,6.3,8.5,67,0.00,,---,0.00,VWS V14.01,2013-02-18 10:30:00,
2013-02-18 03:31:00,30.0,20.4,26.28,North,0,7.6,10.7,67,0.00,,---,0.00,VWS V14.01,2013-02-18 10:31:00,
2013-02-18 03:32:00,30.0,20.4,26.28,NW,315,6.7,7.6,67,0.00,,---,0.00,VWS V14.01,2013-02-18 10:32:00,
2013-02-18 03:33:00,30.0,20.4,26.25,NW,315,4.9,7.6,67,0.00,,---,0.00,VWS V14.01,2013-02-18 10:33:00,
2013-02-18 03:34:00,29.8,19.9,26.25,NNW,338,4.0,4.0,66,0.00,,---,0.00,VWS V14.01,2013-02-18 10:34:00,
2013-02-18 03:35:00,30.0,20.4,26.25,NW,315,6.3,10.5,67,0.00,,---,0.00,VWS V14.01,2013-02-18 10:35:00,
2013-02-18 03:36:00,30.0,20.4,26.25,NE,45,4.3,7.4,67,0.00,,---,0.00,VWS V14.01,2013-02-18 10:36:00,
2013-02-18 03:37:00,30.0,20.4,26.25,NW,315,9.2,9.2,67,0.00,,---,0.00,VWS V14.01,2013-02-18 10:37:00,
2013-02-18 03:38:00,30.0,20.4,26.25,NNW,338,3.4,12.5,67,0.00,,---,0.00,VWS V14.01,2013-02-18 10:38:00,
2013-02-18 03:39:00,29.7,19.7,26.22,NNW,338,10.5,10.5,66,0.00,,---,0.00,VWS V14.01,2013-02-18 10:39:00,
2013-02-18 03:40:00,30.0,20.4,26.25,NNE,22,10.5,11.0,67,0.00,,---,0.00,VWS V14.01,2013-02-18 10:40:00,
2013-02-18 03:41:00,29.8,20.2,26.25,WNW,292,7.6,10.5,67,0.00,,---,0.00,VWS V14.01,2013-02-18 10:41:00,
2013-02-18 03:42:00,29.8,19.9,26.25,NW,315,9.8,13.2,66,0.00,,---,0.00,VWS V14.01,2013-02-18 10:42:00,
2013-02-18 03:43:00,29.8,19.9,26.25,NNW,338,4.0,9.8,66,0.00,,---,0.00,VWS V14.01,2013-02-18 10:43:00,
2013-02-18 03:44:00,29.5,19.5,26.22,NNW,338,3.1,3.6,66,0.00,,---,0.00,VWS V14.01,2013-02-18 10:44:00,
2013-02-18 03:45:00,29.8,19.9,26.25,NNW,338,4.0,7.6,66,0.00,,---,0.00,VWS V14.01,2013-02-18 10:45:00,
2013-02-18 03:46:00,29.8,19.9,26.25,NNW,338,3.4,6.5,66,0.00,,---,0.00,VWS V14.01,2013-02-18 10:46:00,
2013-02-18 03:47:00,29.8,19.9,26.25,SSW,202,3.4,5.8,66,0.00,,---,0.00,VWS V14.01,2013-02-18 10:47:00,
2013-02-18 03:48:00,29.7,19.7,26.22,NNW,338,10.5,10.5,66,0.00,,---,0.00,VWS V14.01,2013-02-18 10:48:00,
2013-02-18 03:49:00,29.5,19.5,26.22,NE,45,10.7,10.7,66,0.00,,---,0.00,VWS V14.01,2013-02-18 10:49:00,
2013-02-18 03:50:00,29.7,19.7,26.22,North,0,3.1,4.7,66,0.00,,---,0.00,VWS V14.01,2013-02-18 10:50:00,
2013-02-18 03:51:00,29.7,19.7,26.22,NNW,338,4.3,4.9,66,0.00,,---,0.00,VWS V14.01,2013-02-18 10:51:00,
2013-02-18 03:52:00,29.7,19.7,26.22,North,0,4.7,8.5,66,0.00,,---,0.00,VWS V14.01,2013-02-18 10:52:00,
2013-02-18 03:53:00,29.5,19.5,26.22,ENE,68,3.6,8.1,66,0.00,,---,0.00,VWS V14.01,2013-02-18 10:53:00,
2013-02-18 03:54:00,29.5,18.8,26.22,ENE,68,5.8,6.0,64,0.00,,---,0.00,VWS V14.01,2013-02-18 10:54:00,
2013-02-18 03:55:00,29.5,19.5,26.22,North,0,5.8,5.8,66,0.00,,---,0.00,VWS V14.01,2013-02-18 10:55:00,
2013-02-18 03:56:00,29.5,19.5,26.22,NNW,338,3.6,5.8,66,0.00,,---,0.00,VWS V14.01,2013-02-18 10:56:00,
2013-02-18 03:57:00,29.5,19.5,26.22,ENE,68,3.1,7.4,66,0.00,,---,0.00,VWS V14.01,2013-02-18 10:57:00,
2013-02-18 03:58:00,29.5,19.5,26.22,NE,45,10.7,10.7,66,0.00,,---,0.00,VWS V14.01,2013-02-18 10:58:00,
2013-02-18 03:59:00,29.5,18.5,26.22,WNW,292,11.2,11.2,63,0.00,,---,0.00,VWS V14.01,2013-02-18 10:59:00,
2013-02-18 04:00:00,29.5,18.8,26.22,NW,315,4.3,9.4,64,0.00,,---,0.00,VWS V14.01,2013-02-18 11:00:00,
2013-02-18 04:01:00,29.5,18.8,26.22,NE,45,7.4,7.4,64,0.00,,---,0.00,VWS V14.01,2013-02-18 11:01:00,
2013-02-18 04:02:00,29.5,18.8,26.22,NNW,338,5.6,7.4,64,0.00,,---,0.00,VWS V14.01,2013-02-18 11:02:00,
2013-02-18 04:03:00,29.5,18.8,26.22,NNW,338,6.0,6.3,64,0.00,,---,0.00,VWS V14.01,2013-02-18 11:03:00,
2013-02-18 04:04:00,29.5,18.1,26.22,NNW,338,12.3,12.3,62,0.00,,---,0.00,VWS V14.01,2013-02-18 11:04:00,
2013-02-18 04:05:00,29.5,18.8,26.22,NW,315,7.8,16.6,64,0.00,,---,0.00,VWS V14.01,2013-02-18 11:05:00,
2013-02-18 04:06:00,29.5,18.5,26.22,NW,315,8.7,10.3,63,0.00,,---,0.00,VWS V14.01,2013-02-18 11:06:00,
2013-02-18 04:07:00,29.5,18.5,26.22,WNW,292,8.5,8.7,63,0.00,,---,0.00,VWS V14.01,2013-02-18 11:07:00,
2013-02-18 04:08:00,29.5,18.5,26.22,NW,315,7.6,10.5,63,0.00,,---,0.00,VWS V14.01,2013-02-18 11:08:00,
2013-02-18 04:09:00,29.5,18.5,26.25,NNW,338,9.6,9.6,63,0.00,,---,0.00,VWS V14.01,2013-02-18 11:09:00,
2013-02-18 04:10:00,29.5,18.5,26.22,NNW,338,11.0,12.5,63,0.00,,---,0.00,VWS V14.01,2013-02-18 11:10:00,
2013-02-18 04:11:00,29.5,18.5,26.22,NW,315,10.1,11.0,63,0.00,,---,0.00,VWS V14.01,2013-02-18 11:11:00,
2013-02-18 04:12:00,29.5,18.5,26.22,NNW,338,9.0,15.2,63,0.00,,---,0.00,VWS V14.01,2013-02-18 11:12:00,
2013-02-18 04:13:00,29.5,18.1,26.22,NNW,338,6.0,13.0,62,0.00,,---,0.00,VWS V14.01,2013-02-18 11:13:00,
2013-02-18 04:14:00,29.3,18.3,26.25,NNW,338,5.8,6.0,63,0.00,,---,0.00,VWS V14.01,2013-02-18 11:14:00,
2013-02-18 04:15:00,29.5,18.1,26.22,NNW,338,8.1,12.1,62,0.00,,---,0.00,VWS V14.01,2013-02-18 11:15:00,
2013-02-18 04:16:00,29.5,18.5,26.22,NNW,338,6.5,10.3,63,0.00,,---,0.00,VWS V14.01,2013-02-18 11:16:00,
2013-02-18 04:17:00,29.5,18.5,26.22,NNW,338,6.0,9.6,63,0.00,,---,0.00,VWS V14.01,2013-02-18 11:17:00,
2013-02-18 04:18:00,29.5,18.5,26.25,WNW,292,7.4,9.6,63,0.00,,---,0.00,VWS V14.01,2013-02-18 11:18:00,
2013-02-18 04:19:00,29.3,18.6,26.25,North,0,6.0,13.2,64,0.00,,---,0.00,VWS V14.01,2013-02-18 11:19:00,
2013-02-18 04:20:00,29.5,18.5,26.25,NNW,338,8.1,12.5,63,0.00,,---,0.00,VWS V14.01,2013-02-18 11:20:00,
2013-02-18 04:21:00,29.5,18.5,26.25,NNW,338,10.5,10.5,63,0.00,,---,0.00,VWS V14.01,2013-02-18 11:21:00,
2013-02-18 04:22:00,29.3,18.3,26.25,NNW,338,3.1,10.5,63,0.00,,---,0.00,VWS V14.01,2013-02-18 11:22:00,
2013-02-18 04:23:00,29.3,18.3,26.25,ENE,68,6.0,10.7,63,0.00,,---,0.00,VWS V14.01,2013-02-18 11:23:00,
2013-02-18 04:24:00,29.3,18.6,26.25,North,0,5.6,5.6,64,0.00,,---,0.00,VWS V14.01,2013-02-18 11:24:00,
2013-02-18 04:25:00,29.3,18.3,26.25,North,0,7.8,12.1,63,0.00,,---,0.00,VWS V14.01,2013-02-18 11:25:00,
2013-02-18 04:26:00,29.3,18.3,26.25,NNW,338,6.3,12.8,63,0.00,,---,0.00,VWS V14.01,2013-02-18 11:26:00,
2013-02-18 04:27:00,29.3,18.3,26.25,NW,315,4.3,8.1,63,0.00,,---,0.00,VWS V14.01,2013-02-18 11:27:00,
2013-02-18 04:28:00,29.3,18.3,26.25,NW,315,13.2,13.2,63,0.00,,---,0.00,VWS V14.01,2013-02-18 11:28:00,
2013-02-18 04:29:00,29.3,18.6,26.25,NNE,22,13.0,13.0,64,0.00,,---,0.00,VWS V14.01,2013-02-18 11:29:00,
2013-02-18 04:30:00,29.3,18.6,26.25,NNW,338,5.8,8.1,64,0.00,,---,0.00,VWS V14.01,2013-02-18 11:30:00,
2013-02-18 04:31:00,29.3,18.6,26.25,NW,315,9.0,9.0,64,0.00,,---,0.00,VWS V14.01,2013-02-18 11:31:00,
2013-02-18 04:32:00,29.3,18.6,26.25,NW,315,4.5,9.0,64,0.00,,---,0.00,VWS V14.01,2013-02-18 11:32:00,
2013-02-18 04:33:00,29.3,18.6,26.25,NW,315,3.1,4.5,64,0.00,,---,0.00,VWS V14.01,2013-02-18 11:33:00,
2013-02-18 04:34:00,29.1,18.1,26.25,NW,315,6.0,7.6,63,0.00,,---,0.00,VWS V14.01,2013-02-18 11:34:00,
2013-02-18 04:35:00,29.3,18.6,26.25,NNW,338,6.0,12.8,64,0.00,,---,0.00,VWS V14.01,2013-02-18 11:35:00,
2013-02-18 04:36:00,29.3,18.6,26.25,NE,45,7.8,7.8,64,0.00,,---,0.00,VWS V14.01,2013-02-18 11:36:00,
2013-02-18 04:37:00,29.3,18.6,26.25,East,90,5.6,10.3,64,0.00,,---,0.00,VWS V14.01,2013-02-18 11:37:00,
2013-02-18 04:38:00,29.3,18.6,26.25,NNW,338,5.8,7.4,64,0.00,,---,0.00,VWS V14.01,2013-02-18 11:38:00,
2013-02-18 04:39:00,29.1,18.1,26.28,NE,45,2.5,2.5,63,0.00,,---,0.00,VWS V14.01,2013-02-18 11:39:00,
2013-02-18 04:40:00,29.3,18.6,26.25,NW,315,11.9,11.9,64,0.00,,---,0.00,VWS V14.01,2013-02-18 11:40:00,
2013-02-18 04:41:00,29.1,18.1,26.25,NW,315,8.1,11.9,63,0.00,,---,0.00,VWS V14.01,2013-02-18 11:41:00,
2013-02-18 04:42:00,29.1,18.1,26.25,NNW,338,4.5,8.1,63,0.00,,---,0.00,VWS V14.01,2013-02-18 11:42:00,
2013-02-18 04:43:00,29.1,18.1,26.25,NW,315,7.6,10.5,63,0.00,,---,0.00,VWS V14.01,2013-02-18 11:43:00,
2013-02-18 04:44:00,28.9,17.9,26.28,NW,315,4.3,4.9,63,0.00,,---,0.00,VWS V14.01,2013-02-18 11:44:00,
2013-02-18 04:45:00,29.1,18.1,26.25,NW,315,9.6,9.6,63,0.00,,---,0.00,VWS V14.01,2013-02-18 11:45:00,
2013-02-18 04:46:00,29.1,18.1,26.25,NNE,22,5.8,10.3,63,0.00,,---,0.00,VWS V14.01,2013-02-18 11:46:00,
2013-02-18 04:47:00,29.1,18.1,26.25,NNE,22,2.7,6.0,63,0.00,,---,0.00,VWS V14.01,2013-02-18 11:47:00,
2013-02-18 04:48:00,29.1,18.1,26.28,NE,45,2.5,7.8,63,0.00,,---,0.00,VWS V14.01,2013-02-18 11:48:00,
2013-02-18 04:49:00,28.9,17.6,26.28,NNE,22,6.3,10.3,62,0.00,,---,0.00,VWS V14.01,2013-02-18 11:49:00,
2013-02-18 04:50:00,29.1,18.1,26.28,NNW,338,8.1,11.9,63,0.00,,---,0.00,VWS V14.01,2013-02-18 11:50:00,
2013-02-18 04:51:00,28.9,17.9,26.28,North,0,10.1,10.1,63,0.00,,---,0.00,VWS V14.01,2013-02-18 11:51:00,
2013-02-18 04:52:00,28.9,17.9,26.28,WNW,292,5.8,10.5,63,0.00,,---,0.00,VWS V14.01,2013-02-18 11:52:00,
2013-02-18 04:53:00,28.9,17.9,26.28,NNW,338,4.9,9.0,63,0.00,,---,0.00,VWS V14.01,2013-02-18 11:53:00,
2013-02-18 04:54:00,28.6,16.9,26.28,NW,315,8.1,8.1,61,0.00,,---,0.00,VWS V14.01,2013-02-18 11:54:00,
2013-02-18 04:55:00,28.9,17.6,26.28,North,0,7.8,7.8,62,0.00,,---,0.00,VWS V14.01,2013-02-18 11:55:00,
2013-02-18 04:56:00,28.9,17.6,26.28,NNE,22,10.5,10.5,62,0.00,,---,0.00,VWS V14.01,2013-02-18 11:56:00,
2013-02-18 04:57:00,28.9,17.6,26.28,NNW,338,12.1,12.8,62,0.00,,---,0.00,VWS V14.01,2013-02-18 11:57:00,
2013-02-18 04:58:00,28.9,17.6,26.28,NNW,338,10.3,12.1,62,0.00,,---,0.00,VWS V14.01,2013-02-18 11:58:00,
2013-02-18 04:59:00,28.2,16.9,26.28,NNW,338,3.8,4.7,62,0.00,,---,0.00,VWS V14.01,2013-02-18 11:59:00,
2013-02-18 05:00:00,28.8,17.0,26.28,NW,315,5.6,8.1,61,0.00,,---,0.00,VWS V14.01,2013-02-18 12:00:00,
2013-02-18 05:01:00,28.8,17.0,26.28,NNE,22,3.4,7.6,61,0.00,,---,0.00,VWS V14.01,2013-02-18 12:01:00,
2013-02-18 05:02:00,28.8,17.0,26.28,NNW,338,6.3,6.3,61,0.00,,---,0.00,VWS V14.01,2013-02-18 12:02:00,
2013-02-18 05:03:00,28.6,16.9,26.28,NNW,338,6.0,7.8,61,0.00,,---,0.00,VWS V14.01,2013-02-18 12:03:00,
2013-02-18 05:04:00,28.0,17.1,26.28,NNW,338,11.9,11.9,63,0.00,,---,0.00,VWS V14.01,2013-02-18 12:04:00,
2013-02-18 05:05:00,28.6,16.9,26.28,NNW,338,5.6,7.8,61,0.00,,---,0.00,VWS V14.01,2013-02-18 12:05:00,
2013-02-18 05:06:00,28.6,16.9,26.28,North,0,5.8,5.8,61,0.00,,---,0.00,VWS V14.01,2013-02-18 12:06:00,
2013-02-18 05:07:00,28.4,17.1,26.28,NNW,338,4.0,7.4,62,0.00,,---,0.00,VWS V14.01,2013-02-18 12:07:00,
2013-02-18 05:08:00,28.2,16.9,26.28,NNE,22,4.7,4.9,62,0.00,,---,0.00,VWS V14.01,2013-02-18 12:08:00,
2013-02-18 05:09:00,28.0,17.5,26.28,NNW,338,7.6,7.6,64,0.00,,---,0.00,VWS V14.01,2013-02-18 12:09:00,
2013-02-18 05:10:00,28.2,16.9,26.28,North,0,4.3,4.3,62,0.00,,---,0.00,VWS V14.01,2013-02-18 12:10:00,
2013-02-18 05:11:00,28.0,16.7,26.28,NNW,338,6.0,6.0,62,0.00,,---,0.00,VWS V14.01,2013-02-18 12:11:00,
2013-02-18 05:12:00,28.0,17.1,26.28,NNW,338,6.9,6.9,63,0.00,,---,0.00,VWS V14.01,2013-02-18 12:12:00,
2013-02-18 05:13:00,28.0,17.1,26.28,WNW,292,5.4,6.9,63,0.00,,---,0.00,VWS V14.01,2013-02-18 12:13:00,
2013-02-18 05:14:00,27.9,17.3,26.28,WNW,292,7.8,13.0,64,0.00,,---,0.00,VWS V14.01,2013-02-18 12:14:00,
2013-02-18 05:15:00,28.0,17.1,26.28,NW,315,10.5,10.5,63,0.00,,---,0.00,VWS V14.01,2013-02-18 12:15:00,
2013-02-18 05:16:00,28.0,17.1,26.28,NNW,338,6.0,10.5,63,0.00,,---,0.00,VWS V14.01,2013-02-18 12:16:00,
2013-02-18 05:17:00,28.0,17.1,26.28,NNW,338,7.4,13.2,63,0.00,,---,0.00,VWS V14.01,2013-02-18 12:17:00,
2013-02-18 05:18:00,28.0,17.5,26.28,NNW,338,7.6,10.3,64,0.00,,---,0.00,VWS V14.01,2013-02-18 12:18:00,
2013-02-18 05:19:00,27.7,16.7,26.28,North,0,3.4,8.1,63,0.00,,---,0.00,VWS V14.01,2013-02-18 12:19:00,
2013-02-18 05:20:00,27.9,17.3,26.28,NW,315,3.6,8.1,64,0.00,,---,0.00,VWS V14.01,2013-02-18 12:20:00,
2013-02-18 05:21:00,27.9,17.3,26.28,NE,45,10.5,10.5,64,0.00,,---,0.00,VWS V14.01,2013-02-18 12:21:00,
2013-02-18 05:22:00,27.9,17.3,26.28,NE,45,8.7,10.5,64,0.00,,---,0.00,VWS V14.01,2013-02-18 12:22:00,
2013-02-18 05:23:00,27.9,17.3,26.28,North,0,13.0,13.0,64,0.00,,---,0.00,VWS V14.01,2013-02-18 12:23:00,
2013-02-18 05:24:00,27.7,16.7,26.28,NNW,338,4.0,4.0,63,0.00,,---,0.00,VWS V14.01,2013-02-18 12:24:00,
2013-02-18 05:25:00,27.7,17.1,26.28,NNW,338,14.8,14.8,64,0.00,,---,0.00,VWS V14.01,2013-02-18 12:25:00,
2013-02-18 05:26:00,27.7,17.1,26.28,NW,315,12.3,14.8,64,0.00,,---,0.00,VWS V14.01,2013-02-18 12:26:00,
2013-02-18 05:27:00,27.7,17.1,26.28,NW,315,5.6,12.3,64,0.00,,---,0.00,VWS V14.01,2013-02-18 12:27:00,
2013-02-18 05:28:00,27.7,17.1,26.28,North,0,8.1,12.5,64,0.00,,---,0.00,VWS V14.01,2013-02-18 12:28:00,
2013-02-18 05:29:00,27.7,16.4,26.28,NW,315,6.0,8.5,62,0.00,,---,0.00,VWS V14.01,2013-02-18 12:29:00,
2013-02-18 05:30:00,27.7,16.7,26.28,NNE,22,7.6,8.5,63,0.00,,---,0.00,VWS V14.01,2013-02-18 12:30:00,
2013-02-18 05:31:00,27.7,16.7,26.28,WNW,292,8.7,12.1,63,0.00,,---,0.00,VWS V14.01,2013-02-18 12:31:00,
2013-02-18 05:32:00,27.7,16.7,26.28,WSW,248,8.7,8.7,63,0.00,,---,0.00,VWS V14.01,2013-02-18 12:32:00,
2013-02-18 05:33:00,27.7,16.7,26.28,NNW,338,4.0,8.7,63,0.00,,---,0.00,VWS V14.01,2013-02-18 12:33:00,
2013-02-18 05:34:00,27.7,15.6,26.28,NNW,338,6.5,10.3,60,0.00,,---,0.00,VWS V14.01,2013-02-18 12:34:00,
2013-02-18 05:35:00,27.7,16.4,26.28,NNW,338,7.4,8.5,62,0.00,,---,0.00,VWS V14.01,2013-02-18 12:35:00,
2013-02-18 05:36:00,27.7,16.4,26.28,NNW,338,8.5,8.5,62,0.00,,---,0.00,VWS V14.01,2013-02-18 12:36:00,
2013-02-18 05:37:00,27.7,16.4,26.28,WSW,248,7.6,8.5,62,0.00,,---,0.00,VWS V14.01,2013-02-18 12:37:00,
2013-02-18 05:38:00,27.7,16.4,26.28,NNW,338,8.5,8.5,62,0.00,,---,0.00,VWS V14.01,2013-02-18 12:38:00,
2013-02-18 05:39:00,27.5,15.4,26.28,NNW,338,7.6,7.6,60,0.00,,---,0.00,VWS V14.01,2013-02-18 12:39:00,
2013-02-18 05:40:00,27.5,15.8,26.28,West,270,6.3,6.5,61,0.00,,---,0.00,VWS V14.01,2013-02-18 12:40:00,
2013-02-18 05:41:00,27.5,15.8,26.28,NNW,338,5.6,6.5,61,0.00,,---,0.00,VWS V14.01,2013-02-18 12:41:00,
2013-02-18 05:42:00,27.5,15.8,26.28,NW,315,6.3,9.4,61,0.00,,---,0.00,VWS V14.01,2013-02-18 12:42:00,
2013-02-18 05:43:00,27.5,15.8,26.28,WNW,292,10.3,10.3,61,0.00,,---,0.00,VWS V14.01,2013-02-18 12:43:00,
2013-02-18 05:44:00,27.7,15.2,26.28,NNW,338,6.5,6.5,59,0.00,,---,0.00,VWS V14.01,2013-02-18 12:44:00,
2013-02-18 05:45:00,27.5,15.4,26.28,NNW,338,4.0,4.0,60,0.00,,---,0.00,VWS V14.01,2013-02-18 12:45:00,
2013-02-18 05:46:00,27.5,15.4,26.28,NNE,22,5.8,5.8,60,0.00,,---,0.00,VWS V14.01,2013-02-18 12:46:00,
2013-02-18 05:47:00,27.5,15.4,26.28,North,0,11.9,11.9,60,0.00,,---,0.00,VWS V14.01,2013-02-18 12:47:00,
2013-02-18 05:48:00,27.5,15.4,26.28,NNW,338,4.0,11.9,60,0.00,,---,0.00,VWS V14.01,2013-02-18 12:48:00,
2013-02-18 05:49:00,27.7,15.2,26.28,WNW,292,2.0,5.8,59,0.00,,---,0.00,VWS V14.01,2013-02-18 12:49:00,
2013-02-18 05:50:00,27.5,15.4,26.28,NNW,338,10.1,10.1,60,0.00,,---,0.00,VWS V14.01,2013-02-18 12:50:00,
2013-02-18 05:51:00,27.7,15.2,26.28,North,0,6.0,11.9,59,0.00,,---,0.00,VWS V14.01,2013-02-18 12:51:00,
2013-02-18 05:52:00,27.7,15.2,26.28,NW,315,6.5,7.8,59,0.00,,---,0.00,VWS V14.01,2013-02-18 12:52:00,
2013-02-18 05:53:00,27.7,15.2,26.28,NNW,338,6.5,6.7,59,0.00,,---,0.00,VWS V14.01,2013-02-18 12:53:00,
2013-02-18 05:54:00,27.5,15.1,26.28,NW,315,4.9,4.9,59,0.00,,---,0.00,VWS V14.01,2013-02-18 12:54:00,
2013-02-18 05:55:00,27.7,15.2,26.28,NNW,338,12.8,13.2,59,0.00,,---,0.00,VWS V14.01,2013-02-18 12:55:00,
2013-02-18 05:56:00,27.9,15.4,26.28,WSW,248,10.7,12.8,59,0.00,,---,0.00,VWS V14.01,2013-02-18 12:56:00,
2013-02-18 05:57:00,27.7,15.2,26.28,WNW,292,6.0,10.7,59,0.00,,---,0.00,VWS V14.01,2013-02-18 12:57:00,
2013-02-18 05:58:00,27.7,15.2,26.28,North,0,5.8,6.3,59,0.00,,---,0.00,VWS V14.01,2013-02-18 12:58:00,
2013-02-18 05:59:00,27.3,14.9,26.28,NE,45,3.4,7.8,59,0.00,,---,0.00,VWS V14.01,2013-02-18 12:59:00,
2013-02-18 06:00:00,27.5,15.1,26.28,WNW,292,6.3,10.1,59,0.00,,---,0.00,VWS V14.01,2013-02-18 13:00:00,
2013-02-18 06:01:00,27.5,15.1,26.28,NNW,338,5.6,6.3,59,0.00,,---,0.00,VWS V14.01,2013-02-18 13:01:00,
2013-02-18 06:02:00,27.5,15.1,26.28,WNW,292,5.4,5.6,59,0.00,,---,0.00,VWS V14.01,2013-02-18 13:02:00,
2013-02-18 06:03:00,27.5,15.1,26.28,NW,315,4.9,7.2,59,0.00,,---,0.00,VWS V14.01,2013-02-18 13:03:00,
2013-02-18 06:04:00,27.1,14.7,26.28,NE,45,2.9,3.1,59,0.00,,---,0.00,VWS V14.01,2013-02-18 13:04:00,
2013-02-18 06:05:00,27.5,15.1,26.28,NE,45,2.9,10.3,59,0.00,,---,0.00,VWS V14.01,2013-02-18 13:05:00,
2013-02-18 06:06:00,27.3,14.9,26.28,NW,315,10.5,10.5,59,0.00,,---,0.00,VWS V14.01,2013-02-18 13:06:00,
2013-02-18 06:07:00,27.3,14.9,26.28,North,0,4.0,10.5,59,0.00,,---,0.00,VWS V14.01,2013-02-18 13:07:00,
2013-02-18 06:08:00,27.3,14.9,26.28,NE,45,7.8,7.8,59,0.00,,---,0.00,VWS V14.01,2013-02-18 13:08:00,
2013-02-18 06:09:00,27.3,14.9,26.28,ENE,68,3.6,7.8,59,0.00,,---,0.00,VWS V14.01,2013-02-18 13:09:00,
2013-02-18 06:10:00,27.1,14.7,26.28,North,0,6.0,6.0,59,0.00,,---,0.00,VWS V14.01,2013-02-18 13:10:00,
2013-02-18 06:11:00,27.3,14.9,26.28,NNW,338,3.1,5.6,59,0.00,,---,0.00,VWS V14.01,2013-02-18 13:11:00,
2013-02-18 06:12:00,27.1,14.7,26.28,NNW,338,2.9,3.1,59,0.00,,---,0.00,VWS V14.01,2013-02-18 13:12:00,
2013-02-18 06:13:00,27.1,14.7,26.28,NNW,338,3.1,3.1,59,0.00,,---,0.00,VWS V14.01,2013-02-18 13:13:00,
2013-02-18 06:14:00,27.1,14.7,26.28,NNW,338,2.7,3.4,59,0.00,,---,0.00,VWS V14.01,2013-02-18 13:14:00,
2013-02-18 06:15:00,27.1,14.7,26.28,NNW,338,4.0,6.5,59,0.00,,---,0.00,VWS V14.01,2013-02-18 13:15:00,
2013-02-18 06:16:00,27.0,14.6,26.28,NNW,338,3.6,7.2,59,0.00,,---,0.00,VWS V14.01,2013-02-18 13:16:00,
2013-02-18 06:17:00,27.0,14.6,26.28,NNE,22,7.6,7.6,59,0.00,,---,0.00,VWS V14.01,2013-02-18 13:17:00,
2013-02-18 06:18:00,27.0,14.6,26.28,NW,315,6.0,7.6,59,0.00,,---,0.00,VWS V14.01,2013-02-18 13:18:00,
2013-02-18 06:19:00,27.0,14.6,26.28,NNE,22,10.1,10.1,59,0.00,,---,0.00,VWS V14.01,2013-02-18 13:19:00,
2013-02-18 06:20:00,27.1,14.7,26.28,NNW,338,5.6,10.1,59,0.00,,---,0.00,VWS V14.01,2013-02-18 13:20:00,
2013-02-18 06:21:00,27.1,14.7,26.28,NNW,338,6.0,8.5,59,0.00,,---,0.00,VWS V14.01,2013-02-18 13:21:00,
2013-02-18 06:22:00,27.1,14.7,26.28,NNW,338,3.6,10.5,59,0.00,,---,0.00,VWS V14.01,2013-02-18 13:22:00,
2013-02-18 06:23:00,27.1,14.7,26.28,North,0,6.5,7.6,59,0.00,,---,0.00,VWS V14.01,2013-02-18 13:23:00,
2013-02-18 06:24:00,27.0,14.6,26.28,North,0,3.6,3.6,59,0.00,,---,0.00,VWS V14.01,2013-02-18 13:24:00,
2013-02-18 06:25:00,27.1,14.7,26.28,NNW,338,10.7,10.7,59,0.00,,---,0.00,VWS V14.01,2013-02-18 13:25:00,
2013-02-18 06:26:00,27.1,14.7,26.28,North,0,5.8,10.7,59,0.00,,---,0.00,VWS V14.01,2013-02-18 13:26:00,
2013-02-18 06:27:00,27.1,14.7,26.28,NW,315,11.0,11.0,59,0.00,,---,0.00,VWS V14.01,2013-02-18 13:27:00,
2013-02-18 06:28:00,27.1,14.7,26.28,NNW,338,5.4,11.0,59,0.00,,---,0.00,VWS V14.01,2013-02-18 13:28:00,
2013-02-18 06:29:00,27.0,14.6,26.28,NW,315,4.9,10.1,59,0.00,,---,0.00,VWS V14.01,2013-02-18 13:29:00,
2013-02-18 06:30:00,27.0,14.6,26.28,NW,315,4.3,6.0,59,0.00,,---,0.00,VWS V14.01,2013-02-18 13:30:00,
2013-02-18 06:31:00,27.0,14.6,26.28,NNW,338,7.6,8.7,59,0.00,,---,0.00,VWS V14.01,2013-02-18 13:31:00,
2013-02-18 06:32:00,27.0,14.6,26.28,NE,45,4.5,7.6,59,0.00,,---,0.00,VWS V14.01,2013-02-18 13:32:00,
2013-02-18 06:33:00,27.0,14.6,26.28,North,0,3.6,5.4,59,0.00,,---,0.00,VWS V14.01,2013-02-18 13:33:00,
2013-02-18 06:34:00,27.0,14.6,26.28,North,0,2.5,2.5,59,0.00,,---,0.00,VWS V14.01,2013-02-18 13:34:00,
2013-02-18 06:35:00,27.0,14.6,26.28,NNW,338,6.7,6.7,59,0.00,,---,0.00,VWS V14.01,2013-02-18 13:35:00,
2013-02-18 06:36:00,27.0,14.6,26.28,NW,315,4.7,6.7,59,0.00,,---,0.00,VWS V14.01,2013-02-18 13:36:00,
2013-02-18 06:37:00,27.0,14.6,26.28,NNW,338,5.4,5.4,59,0.00,,---,0.00,VWS V14.01,2013-02-18 13:37:00,
2013-02-18 06:38:00,27.0,14.6,26.28,West,270,6.3,6.3,59,0.00,,---,0.00,VWS V14.01,2013-02-18 13:38:00,
2013-02-18 06:39:00,27.5,14.7,26.28,WNW,292,3.1,5.8,58,0.00,,---,0.00,VWS V14.01,2013-02-18 13:39:00,
2013-02-18 06:40:00,27.0,14.6,26.28,West,270,9.8,9.8,59,0.00,,---,0.00,VWS V14.01,2013-02-18 13:40:00,
2013-02-18 06:41:00,27.1,14.3,26.28,NNW,338,6.0,9.8,58,0.00,,---,0.00,VWS V14.01,2013-02-18 13:41:00,
2013-02-18 06:42:00,27.1,14.3,26.28,NE,45,5.4,6.0,58,0.00,,---,0.00,VWS V14.01,2013-02-18 13:42:00,
2013-02-18 06:43:00,27.1,14.3,26.28,WNW,292,6.3,6.3,58,0.00,,---,0.00,VWS V14.01,2013-02-18 13:43:00,
2013-02-18 06:44:00,27.7,14.9,26.28,West,270,4.0,10.7,58,0.00,,---,0.00,VWS V14.01,2013-02-18 13:44:00,
2013-02-18 06:45:00,27.1,14.3,26.28,WNW,292,5.6,10.5,58,0.00,,---,0.00,VWS V14.01,2013-02-18 13:45:00,
2013-02-18 06:46:00,27.1,14.3,26.28,WNW,292,7.4,7.4,58,0.00,,---,0.00,VWS V14.01,2013-02-18 13:46:00,
2013-02-18 06:47:00,27.1,14.3,26.28,NW,315,6.3,7.4,58,0.00,,---,0.00,VWS V14.01,2013-02-18 13:47:00,
2013-02-18 06:48:00,27.1,14.3,26.28,NNW,338,12.8,12.8,58,0.00,,---,0.00,VWS V14.01,2013-02-18 13:48:00,
2013-02-18 06:49:00,27.1,14.3,26.28,WNW,292,6.3,12.8,58,0.00,,---,0.00,VWS V14.01,2013-02-18 13:49:00,
2013-02-18 06:50:00,27.1,14.3,26.28,NNW,338,5.6,6.3,58,0.00,,---,0.00,VWS V14.01,2013-02-18 13:50:00,
2013-02-18 06:51:00,27.1,14.3,26.28,NNW,338,9.2,9.2,58,0.00,,---,0.00,VWS V14.01,2013-02-18 13:51:00,
2013-02-18 06:52:00,27.1,14.3,26.28,NNW,338,4.3,9.2,58,0.00,,---,0.00,VWS V14.01,2013-02-18 13:52:00,
2013-02-18 06:53:00,27.0,14.2,26.28,NNW,338,4.3,4.3,58,0.00,,---,0.00,VWS V14.01,2013-02-18 13:53:00,
2013-02-18 06:54:00,27.0,14.2,26.28,NW,315,4.7,4.7,58,0.00,,---,0.00,VWS V14.01,2013-02-18 13:54:00,
2013-02-18 06:55:00,27.0,14.6,26.28,West,270,10.1,10.1,59,0.00,,---,0.00,VWS V14.01,2013-02-18 13:55:00,
2013-02-18 06:56:00,27.0,14.6,26.28,North,0,5.8,10.1,59,0.00,,---,0.00,VWS V14.01,2013-02-18 13:56:00,
2013-02-18 06:57:00,27.0,14.6,26.28,North,0,8.5,8.5,59,0.00,,---,0.00,VWS V14.01,2013-02-18 13:57:00,
2013-02-18 06:58:00,27.0,14.6,26.28,NNW,338,9.2,9.2,59,0.00,,---,0.00,VWS V14.01,2013-02-18 13:58:00,
2013-02-18 06:59:00,27.0,14.6,26.28,WNW,292,5.6,9.2,59,0.00,,---,0.00,VWS V14.01,2013-02-18 13:59:00,
2013-02-18 07:00:00,27.0,14.6,26.28,North,0,4.0,5.6,59,0.00,,---,0.00,VWS V14.01,2013-02-18 14:00:00,
2013-02-18 07:01:00,27.0,14.6,26.28,NNW,338,7.8,7.8,59,0.00,,---,0.00,VWS V14.01,2013-02-18 14:01:00,
2013-02-18 07:02:00,27.0,14.6,26.28,West,270,10.1,10.1,59,0.00,,---,0.00,VWS V14.01,2013-02-18 14:02:00,
2013-02-18 07:03:00,27.0,14.6,26.28,NW,315,9.4,10.1,59,0.00,,---,0.00,VWS V14.01,2013-02-18 14:03:00,
2013-02-18 07:04:00,27.0,14.6,26.28,NNW,338,5.8,9.4,59,0.00,,---,0.00,VWS V14.01,2013-02-18 14:04:00,
2013-02-18 07:05:00,27.0,14.6,26.28,NNE,22,5.6,5.8,59,0.00,,---,0.00,VWS V14.01,2013-02-18 14:05:00,
2013-02-18 07:06:00,27.0,14.6,26.28,North,0,12.5,12.5,59,0.00,,---,0.00,VWS V14.01,2013-02-18 14:06:00,
2013-02-18 07:07:00,27.0,14.6,26.28,NNW,338,10.1,12.5,59,0.00,,---,0.00,VWS V14.01,2013-02-18 14:07:00,
2013-02-18 07:08:00,27.0,14.6,26.28,North,0,3.4,10.1,59,0.00,,---,0.00,VWS V14.01,2013-02-18 14:08:00,
2013-02-18 07:09:00,27.0,14.6,26.28,NNE,22,4.3,4.3,59,0.00,,---,0.00,VWS V14.01,2013-02-18 14:09:00,
2013-02-18 07:10:00,27.0,14.6,26.28,South,180,9.2,9.2,59,0.00,,---,0.00,VWS V14.01,2013-02-18 14:10:00,
2013-02-18 07:11:00,27.0,14.6,26.28,North,0,6.3,9.2,59,0.00,,---,0.00,VWS V14.01,2013-02-18 14:11:00,
2013-02-18 07:12:00,27.0,14.6,26.28,NE,45,6.0,6.3,59,0.00,,---,0.00,VWS V14.01,2013-02-18 14:12:00,
2013-02-18 07:13:00,27.0,14.6,26.28,WSW,248,4.3,6.0,59,0.00,,---,0.00,VWS V14.01,2013-02-18 14:13:00,
2013-02-18 07:14:00,27.0,14.2,26.28,NNW,338,4.3,4.3,58,0.00,,---,0.00,VWS V14.01,2013-02-18 14:14:00,
2013-02-18 07:15:00,27.1,14.3,26.28,WNW,292,10.7,10.7,58,0.00,,---,0.00,VWS V14.01,2013-02-18 14:15:00,
2013-02-18 07:16:00,27.1,14.3,26.28,NW,315,8.7,10.7,58,0.00,,---,0.00,VWS V14.01,2013-02-18 14:16:00,
2013-02-18 07:17:00,27.1,14.3,26.31,NW,315,12.5,12.5,58,0.00,,---,0.00,VWS V14.01,2013-02-18 14:17:00,
2013-02-18 07:18:00,27.3,14.5,26.31,NNW,338,7.6,12.5,58,0.00,,---,0.00,VWS V14.01,2013-02-18 14:18:00,
2013-02-18 07:19:00,27.3,14.5,26.31,West,270,6.3,7.6,58,0.00,,---,0.00,VWS V14.01,2013-02-18 14:19:00,
2013-02-18 07:20:00,27.3,14.5,26.31,NW,315,8.7,8.7,58,0.00,,---,0.00,VWS V14.01,2013-02-18 14:20:00,
2013-02-18 07:21:00,27.3,14.5,26.31,NNW,338,5.8,8.7,58,0.00,,---,0.00,VWS V14.01,2013-02-18 14:21:00,
2013-02-18 07:22:00,27.3,14.5,26.31,NNW,338,6.5,6.5,58,0.00,,---,0.00,VWS V14.01,2013-02-18 14:22:00,
2013-02-18 07:23:00,27.3,14.5,26.31,North,0,7.6,7.6,58,0.00,,---,0.00,VWS V14.01,2013-02-18 14:23:00,
2013-02-18 07:24:00,27.3,14.5,26.31,NNW,338,8.5,8.5,58,0.00,,---,0.00,VWS V14.01,2013-02-18 14:24:00,
2013-02-18 07:25:00,27.5,14.7,26.31,NW,315,7.6,8.5,58,0.00,,---,0.00,VWS V14.01,2013-02-18 14:25:00,
2013-02-18 07:26:00,27.5,14.7,26.31,NNW,338,5.8,7.6,58,0.00,,---,0.00,VWS V14.01,2013-02-18 14:26:00,
2013-02-18 07:27:00,27.5,14.7,26.31,WNW,292,10.7,10.7,58,0.00,,---,0.00,VWS V14.01,2013-02-18 14:27:00,
2013-02-18 07:28:00,27.5,14.7,26.31,NNW,338,7.2,10.7,58,0.00,,---,0.00,VWS V14.01,2013-02-18 14:28:00,
2013-02-18 07:29:00,27.5,14.7,26.31,WNW,292,12.8,12.8,58,0.00,,---,0.00,VWS V14.01,2013-02-18 14:29:00,
2013-02-18 07:30:00,27.5,14.7,26.31,NNW,338,11.0,12.8,58,0.00,,---,0.00,VWS V14.01,2013-02-18 14:30:00,
2013-02-18 07:31:00,27.5,14.7,26.31,NNW,338,12.1,12.1,58,0.00,,---,0.00,VWS V14.01,2013-02-18 14:31:00,
2013-02-18 07:32:00,27.5,14.7,26.28,NNW,338,13.4,13.4,58,0.00,,---,0.00,VWS V14.01,2013-02-18 14:32:00,
2013-02-18 07:33:00,27.5,14.7,26.28,NW,315,5.8,13.4,58,0.00,,---,0.00,VWS V14.01,2013-02-18 14:33:00,
2013-02-18 07:34:00,27.5,14.7,26.28,NNE,22,6.3,6.3,58,0.00,,---,0.00,VWS V14.01,2013-02-18 14:34:00,
2013-02-18 07:35:00,27.5,14.7,26.28,WNW,292,3.8,6.3,58,0.00,,---,0.00,VWS V14.01,2013-02-18 14:35:00,
2013-02-18 07:36:00,27.5,14.7,26.28,NW,315,7.8,7.8,58,0.00,,---,0.00,VWS V14.01,2013-02-18 14:36:00,
2013-02-18 07:37:00,27.5,14.7,26.28,WNW,292,5.4,7.8,58,0.00,,---,0.00,VWS V14.01,2013-02-18 14:37:00,
2013-02-18 07:38:00,27.5,14.7,26.28,NNE,22,5.8,5.8,58,0.00,,---,0.00,VWS V14.01,2013-02-18 14:38:00,
2013-02-18 07:39:00,27.5,14.7,26.28,WNW,292,3.1,5.8,58,0.00,,---,0.00,VWS V14.01,2013-02-18 14:39:00,
2013-02-18 07:40:00,27.5,14.7,26.28,NW,315,5.4,5.4,58,0.00,,---,0.00,VWS V14.01,2013-02-18 14:40:00,
2013-02-18 07:41:00,27.5,14.7,26.28,NW,315,3.4,5.4,58,0.00,,---,0.00,VWS V14.01,2013-02-18 14:41:00,
2013-02-18 07:42:00,27.7,14.9,26.28,NW,315,6.0,6.0,58,0.00,,---,0.00,VWS V14.01,2013-02-18 14:42:00,
2013-02-18 07:43:00,27.7,14.9,26.28,SSW,202,10.7,10.7,58,0.00,,---,0.00,VWS V14.01,2013-02-18 14:43:00,
2013-02-18 07:44:00,27.7,14.9,26.28,West,270,4.0,10.7,58,0.00,,---,0.00,VWS V14.01,2013-02-18 14:44:00,
2013-02-18 07:45:00,27.7,14.9,26.28,WNW,292,4.0,4.0,58,0.00,,---,0.00,VWS V14.01,2013-02-18 14:45:00,
2013-02-18 07:46:00,27.7,14.9,26.28,NW,315,10.3,10.3,58,0.00,,---,0.00,VWS V14.01,2013-02-18 14:46:00,
2013-02-18 07:47:00,27.7,14.9,26.31,North,0,10.3,10.3,58,0.00,,---,0.00,VWS V14.01,2013-02-18 14:47:00,
2013-02-18 07:48:00,27.7,14.9,26.31,WSW,248,10.3,10.3,58,0.00,,---,0.00,VWS V14.01,2013-02-18 14:48:00,
2013-02-18 07:49:00,27.9,14.6,26.31,WNW,292,5.6,10.3,57,0.00,,---,0.00,VWS V14.01,2013-02-18 14:49:00,
2013-02-18 07:50:00,27.9,14.6,26.31,WNW,292,7.2,7.2,57,0.00,,---,0.00,VWS V14.01,2013-02-18 14:50:00,
2013-02-18 07:51:00,27.9,14.6,26.31,West,270,8.5,8.5,57,0.00,,---,0.00,VWS V14.01,2013-02-18 14:51:00,
2013-02-18 07:52:00,27.9,14.6,26.31,NNW,338,18.6,18.6,57,0.00,,---,0.00,VWS V14.01,2013-02-18 14:52:00,
2013-02-18 07:53:00,27.9,15.0,26.31,WNW,292,13.2,18.6,58,0.00,,---,0.00,VWS V14.01,2013-02-18 14:53:00,
2013-02-18 07:54:00,27.9,15.0,26.31,NW,315,10.7,13.2,58,0.00,,---,0.00,VWS V14.01,2013-02-18 14:54:00,
2013-02-18 07:55:00,27.9,15.0,26.31,NNW,338,14.5,14.5,58,0.00,,---,0.00,VWS V14.01,2013-02-18 14:55:00,
2013-02-18 07:56:00,27.9,15.0,26.31,WNW,292,13.0,14.5,58,0.00,,---,0.00,VWS V14.01,2013-02-18 14:56:00,
2013-02-18 07:57:00,27.9,15.0,26.31,NW,315,8.7,13.0,58,0.00,,---,0.00,VWS V14.01,2013-02-18 14:57:00,
2013-02-18 07:58:00,27.9,15.0,26.31,NW,315,10.1,10.1,58,0.00,,---,0.00,VWS V14.01,2013-02-18 14:58:00,
2013-02-18 07:59:00,27.9,15.0,26.31,NW,315,10.5,10.5,58,0.00,,---,0.00,VWS V14.01,2013-02-18 14:59:00,
2013-02-18 08:00:00,28.0,14.8,26.31,North,0,14.3,14.3,57,0.00,,---,0.00,VWS V14.01,2013-02-18 15:00:00,
2013-02-18 08:01:00,28.0,14.8,26.31,North,0,16.6,16.6,57,0.00,,---,0.00,VWS V14.01,2013-02-18 15:01:00,
2013-02-18 08:02:00,28.0,14.8,26.31,North,0,7.8,16.6,57,0.00,,---,0.00,VWS V14.01,2013-02-18 15:02:00,
2013-02-18 08:03:00,28.0,14.8,26.31,NW,315,13.2,13.2,57,0.00,,---,0.00,VWS V14.01,2013-02-18 15:03:00,
2013-02-18 08:04:00,32.7,17.0,26.37,NW,315,9.8,9.8,52,0.00,,---,0.00,VWS V14.01,2013-02-18 15:04:00,
2013-02-18 08:05:00,28.0,14.8,26.31,NW,315,7.6,13.2,57,0.00,,---,0.00,VWS V14.01,2013-02-18 15:05:00,
2013-02-18 08:06:00,28.2,15.0,26.31,NNW,338,16.6,16.6,57,0.00,,---,0.00,VWS V14.01,2013-02-18 15:06:00,
2013-02-18 08:07:00,28.2,15.0,26.31,North,0,10.5,16.6,57,0.00,,---,0.00,VWS V14.01,2013-02-18 15:07:00,
2013-02-18 08:08:00,28.4,15.1,26.31,North,0,6.9,10.5,57,0.00,,---,0.00,VWS V14.01,2013-02-18 15:08:00,
2013-02-18 08:09:00,28.4,15.1,26.31,NNE,22,11.4,11.4,57,0.00,,---,0.00,VWS V14.01,2013-02-18 15:09:00,
2013-02-18 08:10:00,28.4,15.1,26.31,West,270,6.7,11.4,57,0.00,,---,0.00,VWS V14.01,2013-02-18 15:10:00,
2013-02-18 08:11:00,28.4,15.1,26.31,NNW,338,6.5,6.7,57,0.00,,---,0.00,VWS V14.01,2013-02-18 15:11:00,
2013-02-18 08:12:00,28.6,15.3,26.31,NNW,338,9.8,9.8,57,0.00,,---,0.00,VWS V14.01,2013-02-18 15:12:00,
2013-02-18 08:13:00,28.6,15.3,26.31,North,0,11.0,11.0,57,0.00,,---,0.00,VWS V14.01,2013-02-18 15:13:00,
2013-02-18 08:14:00,28.6,15.3,26.31,NNE,22,10.3,11.0,57,0.00,,---,0.00,VWS V14.01,2013-02-18 15:14:00,
2013-02-18 08:15:00,28.6,15.3,26.31,North,0,8.5,10.3,57,0.00,,---,0.00,VWS V14.01,2013-02-18 15:15:00,
2013-02-18 08:16:00,28.6,15.3,26.31,NW,315,21.3,21.3,57,0.00,,---,0.00,VWS V14.01,2013-02-18 15:16:00,
2013-02-18 08:17:00,28.6,15.3,26.34,NW,315,15.4,21.3,57,0.00,,---,0.00,VWS V14.01,2013-02-18 15:17:00,
2013-02-18 08:18:00,28.8,15.5,26.34,NNW,338,7.4,15.4,57,0.00,,---,0.00,VWS V14.01,2013-02-18 15:18:00,
2013-02-18 08:19:00,32.9,16.8,26.37,NNW,338,11.0,11.0,51,0.00,,---,0.00,VWS V14.01,2013-02-18 15:19:00,
2013-02-18 08:20:00,28.9,15.6,26.34,North,0,15.2,15.2,57,0.00,,---,0.00,VWS V14.01,2013-02-18 15:20:00,
2013-02-18 08:21:00,28.9,15.6,26.34,West,270,14.3,15.2,57,0.00,,---,0.00,VWS V14.01,2013-02-18 15:21:00,
2013-02-18 08:22:00,28.9,15.6,26.34,NNW,338,12.1,14.3,57,0.00,,---,0.00,VWS V14.01,2013-02-18 15:22:00,
2013-02-18 08:23:00,29.3,16.0,26.34,NNE,22,15.4,15.4,57,0.00,,---,0.00,VWS V14.01,2013-02-18 15:23:00,
2013-02-18 08:24:00,33.3,17.1,26.37,NW,315,7.2,12.1,51,0.00,,---,0.00,VWS V14.01,2013-02-18 15:24:00,
2013-02-18 08:25:00,29.5,16.1,26.34,NW,315,8.5,15.4,57,0.00,,---,0.00,VWS V14.01,2013-02-18 15:25:00,
2013-02-18 08:26:00,29.7,16.3,26.34,NNW,338,5.6,8.5,57,0.00,,---,0.00,VWS V14.01,2013-02-18 15:26:00,
2013-02-18 08:27:00,29.8,16.5,26.34,NW,315,15.2,15.2,57,0.00,,---,0.00,VWS V14.01,2013-02-18 15:27:00,
2013-02-18 08:28:00,30.0,16.6,26.34,North,0,13.0,15.2,57,0.00,,---,0.00,VWS V14.01,2013-02-18 15:28:00,
2013-02-18 08:29:00,30.0,16.2,26.34,NNW,338,5.4,13.0,56,0.00,,---,0.00,VWS V14.01,2013-02-18 15:29:00,
2013-02-18 08:30:00,30.2,16.4,26.34,West,270,10.1,10.1,56,0.00,,---,0.00,VWS V14.01,2013-02-18 15:30:00,
2013-02-18 08:31:00,30.2,16.4,26.34,NW,315,11.0,11.0,56,0.00,,---,0.00,VWS V14.01,2013-02-18 15:31:00,
2013-02-18 08:32:00,30.4,16.6,26.37,North,0,12.8,12.8,56,0.00,,---,0.00,VWS V14.01,2013-02-18 15:32:00,
2013-02-18 08:33:00,30.4,16.6,26.37,West,270,8.7,12.8,56,0.00,,---,0.00,VWS V14.01,2013-02-18 15:33:00,
2013-02-18 08:34:00,30.6,16.7,26.37,NNW,338,12.3,12.3,56,0.00,,---,0.00,VWS V14.01,2013-02-18 15:34:00,
2013-02-18 08:35:00,30.7,16.9,26.37,NNE,22,11.0,12.3,56,0.00,,---,0.00,VWS V14.01,2013-02-18 15:35:00,
2013-02-18 08:36:00,30.6,16.7,26.37,NNE,22,13.9,13.9,56,0.00,,---,0.00,VWS V14.01,2013-02-18 15:36:00,
2013-02-18 08:37:00,30.7,16.5,26.37,NNW,338,7.8,13.9,55,0.00,,---,0.00,VWS V14.01,2013-02-18 15:37:00,
2013-02-18 08:38:00,30.6,16.3,26.37,WNW,292,12.8,12.8,55,0.00,,---,0.00,VWS V14.01,2013-02-18 15:38:00,
2013-02-18 08:39:00,34.0,16.8,26.37,NE,45,10.1,10.1,49,0.00,,---,0.00,VWS V14.01,2013-02-18 15:39:00,
2013-02-18 08:40:00,30.9,16.7,26.37,NW,315,3.4,12.8,55,0.00,,---,0.00,VWS V14.01,2013-02-18 15:40:00,
2013-02-18 08:41:00,31.1,16.8,26.37,NNW,338,13.9,13.9,55,0.00,,---,0.00,VWS V14.01,2013-02-18 15:41:00,
2013-02-18 08:42:00,31.1,16.8,26.37,West,270,12.8,13.9,55,0.00,,---,0.00,VWS V14.01,2013-02-18 15:42:00,
2013-02-18 08:43:00,31.3,17.0,26.37,ESE,112,12.5,12.8,55,0.00,,---,0.00,VWS V14.01,2013-02-18 15:43:00,
2013-02-18 08:44:00,31.5,17.2,26.37,WSW,248,7.6,12.5,55,0.00,,---,0.00,VWS V14.01,2013-02-18 15:44:00,
2013-02-18 08:45:00,31.5,17.2,26.37,NW,315,3.8,7.6,55,0.00,,---,0.00,VWS V14.01,2013-02-18 15:45:00,
2013-02-18 08:46:00,31.8,17.5,26.37,NNW,338,7.2,7.2,55,0.00,,---,0.00,VWS V14.01,2013-02-18 15:46:00,
2013-02-18 08:47:00,32.0,17.7,26.37,WNW,292,6.3,7.2,55,0.00,,---,0.00,VWS V14.01,2013-02-18 15:47:00,
2013-02-18 08:48:00,32.2,17.8,26.37,NNE,22,10.1,10.1,55,0.00,,---,0.00,VWS V14.01,2013-02-18 15:48:00,
2013-02-18 08:49:00,34.5,17.3,26.34,NNW,338,6.3,6.3,49,0.00,,---,0.00,VWS V14.01,2013-02-18 15:49:00,
2013-02-18 08:50:00,32.2,17.4,26.37,NE,45,13.0,13.0,54,0.00,,---,0.00,VWS V14.01,2013-02-18 15:50:00,
2013-02-18 08:51:00,32.2,17.4,26.37,NW,315,16.8,16.8,54,0.00,,---,0.00,VWS V14.01,2013-02-18 15:51:00,
2013-02-18 08:52:00,32.2,17.4,26.37,NW,315,4.0,16.8,54,0.00,,---,0.00,VWS V14.01,2013-02-18 15:52:00,
2013-02-18 08:53:00,32.2,17.0,26.37,WNW,292,8.5,8.5,53,0.00,,---,0.00,VWS V14.01,2013-02-18 15:53:00,
2013-02-18 08:54:00,34.9,17.7,26.34,NW,315,12.3,12.3,49,0.00,,---,0.00,VWS V14.01,2013-02-18 15:54:00,
2013-02-18 08:55:00,32.5,17.3,26.37,NW,315,6.0,8.5,53,0.00,,---,0.00,VWS V14.01,2013-02-18 15:55:00,
2013-02-18 08:56:00,32.5,17.3,26.37,NNE,22,6.0,6.0,53,0.00,,---,0.00,VWS V14.01,2013-02-18 15:56:00,
2013-02-18 08:57:00,32.5,17.3,26.37,NNW,338,8.1,8.1,53,0.00,,---,0.00,VWS V14.01,2013-02-18 15:57:00,
2013-02-18 08:58:00,32.7,17.5,26.37,NNE,22,16.6,16.6,53,0.00,,---,0.00,VWS V14.01,2013-02-18 15:58:00,
2013-02-18 08:59:00,32.7,17.5,26.37,West,270,7.8,16.6,53,0.00,,---,0.00,VWS V14.01,2013-02-18 15:59:00,
2013-02-18 09:00:00,32.7,17.5,26.37,NW,315,7.4,7.8,53,0.00,,---,0.00,VWS V14.01,2013-02-18 16:00:00,
2013-02-18 09:01:00,32.9,17.7,26.37,NW,315,5.6,7.4,53,0.00,,---,0.00,VWS V14.01,2013-02-18 16:01:00,
2013-02-18 09:02:00,32.7,17.5,26.37,NNE,22,5.6,5.6,53,0.00,,---,0.00,VWS V14.01,2013-02-18 16:02:00,
2013-02-18 09:03:00,32.7,17.0,26.37,West,270,3.4,5.6,52,0.00,,---,0.00,VWS V14.01,2013-02-18 16:03:00,
2013-02-18 09:04:00,32.7,17.0,26.37,NW,315,9.8,9.8,52,0.00,,---,0.00,VWS V14.01,2013-02-18 16:04:00,
2013-02-18 09:05:00,32.7,17.0,26.37,SW,225,4.0,9.8,52,0.00,,---,0.00,VWS V14.01,2013-02-18 16:05:00,
2013-02-18 09:06:00,32.7,17.0,26.37,NNW,338,4.9,4.9,52,0.00,,---,0.00,VWS V14.01,2013-02-18 16:06:00,
2013-02-18 09:07:00,32.7,17.0,26.37,WNW,292,10.1,10.1,52,0.00,,---,0.00,VWS V14.01,2013-02-18 16:07:00,
2013-02-18 09:08:00,34.0,16.4,26.37,NNW,338,5.8,6.9,48,0.00,,---,0.00,VWS V14.01,2013-02-18 16:08:00,
2013-02-18 09:09:00,32.5,16.9,26.37,NNW,338,9.4,10.1,52,0.00,,---,0.00,VWS V14.01,2013-02-18 16:09:00,
2013-02-18 09:10:00,32.4,16.7,26.37,NNW,338,10.7,10.7,52,0.00,,---,0.00,VWS V14.01,2013-02-18 16:10:00,
2013-02-18 09:11:00,32.2,16.5,26.37,North,0,8.5,10.7,52,0.00,,---,0.00,VWS V14.01,2013-02-18 16:11:00,
2013-02-18 09:12:00,32.2,16.5,26.37,NNE,22,6.7,8.5,52,0.00,,---,0.00,VWS V14.01,2013-02-18 16:12:00,
2013-02-18 09:13:00,32.5,16.9,26.37,NW,315,8.7,8.7,52,0.00,,---,0.00,VWS V14.01,2013-02-18 16:13:00,
2013-02-18 09:14:00,32.5,16.9,26.37,NNW,338,21.9,21.9,52,0.00,,---,0.00,VWS V14.01,2013-02-18 16:14:00,
2013-02-18 09:15:00,32.5,16.9,26.37,NW,315,15.4,21.9,52,0.00,,---,0.00,VWS V14.01,2013-02-18 16:15:00,
2013-02-18 09:16:00,32.5,16.4,26.37,SW,225,17.0,17.0,51,0.00,,---,0.00,VWS V14.01,2013-02-18 16:16:00,
2013-02-18 09:17:00,32.5,16.4,26.37,NNE,22,10.1,17.0,51,0.00,,---,0.00,VWS V14.01,2013-02-18 16:17:00,
2013-02-18 09:18:00,32.7,16.6,26.37,West,270,7.8,10.1,51,0.00,,---,0.00,VWS V14.01,2013-02-18 16:18:00,
2013-02-18 09:19:00,32.9,16.8,26.37,NNW,338,11.0,11.0,51,0.00,,---,0.00,VWS V14.01,2013-02-18 16:19:00,
2013-02-18 09:20:00,32.9,16.8,26.37,North,0,7.8,11.0,51,0.00,,---,0.00,VWS V14.01,2013-02-18 16:20:00,
2013-02-18 09:21:00,32.9,16.8,26.37,NE,45,5.4,7.8,51,0.00,,---,0.00,VWS V14.01,2013-02-18 16:21:00,
2013-02-18 09:22:00,35.4,17.7,26.37,North,0,8.1,8.5,48,0.00,,---,0.00,VWS V14.01,2013-02-18 16:22:00,
2013-02-18 09:23:00,33.1,16.9,26.37,North,0,12.1,12.1,51,0.00,,---,0.00,VWS V14.01,2013-02-18 16:23:00,
2013-02-18 09:24:00,33.3,17.1,26.37,NW,315,7.2,12.1,51,0.00,,---,0.00,VWS V14.01,2013-02-18 16:24:00,
2013-02-18 09:25:00,33.3,17.1,26.37,North,0,6.3,7.2,51,0.00,,---,0.00,VWS V14.01,2013-02-18 16:25:00,
2013-02-18 09:26:00,33.3,17.1,26.37,NW,315,7.4,7.4,51,0.00,,---,0.00,VWS V14.01,2013-02-18 16:26:00,
2013-02-18 09:27:00,33.3,17.1,26.37,NNE,22,6.3,7.4,51,0.00,,---,0.00,VWS V14.01,2013-02-18 16:27:00,
2013-02-18 09:28:00,33.4,17.3,26.37,NW,315,7.4,7.4,51,0.00,,---,0.00,VWS V14.01,2013-02-18 16:28:00,
2013-02-18 09:29:00,33.4,17.3,26.37,NW,315,8.1,8.1,51,0.00,,---,0.00,VWS V14.01,2013-02-18 16:29:00,
2013-02-18 09:30:00,33.4,16.8,26.37,NW,315,11.2,11.2,50,0.00,,---,0.00,VWS V14.01,2013-02-18 16:30:00,
2013-02-18 09:31:00,33.6,17.0,26.37,NNW,338,6.0,11.2,50,0.00,,---,0.00,VWS V14.01,2013-02-18 16:31:00,
2013-02-18 09:32:00,33.6,17.0,26.37,NNW,338,9.8,9.8,50,0.00,,---,0.00,VWS V14.01,2013-02-18 16:32:00,
2013-02-18 09:33:00,33.8,16.7,26.37,NW,315,14.8,14.8,49,0.00,,---,0.00,VWS V14.01,2013-02-18 16:33:00,
2013-02-18 09:34:00,34.0,16.8,26.37,North,0,12.8,14.8,49,0.00,,---,0.00,VWS V14.01,2013-02-18 16:34:00,
2013-02-18 09:35:00,34.0,16.8,26.37,NW,315,8.5,12.8,49,0.00,,---,0.00,VWS V14.01,2013-02-18 16:35:00,
2013-02-18 09:36:00,33.8,16.7,26.37,WNW,292,7.4,8.5,49,0.00,,---,0.00,VWS V14.01,2013-02-18 16:36:00,
2013-02-18 09:37:00,34.0,16.8,26.37,East,90,15.2,15.2,49,0.00,,---,0.00,VWS V14.01,2013-02-18 16:37:00,
2013-02-18 09:38:00,34.0,16.8,26.37,NNE,22,6.5,15.2,49,0.00,,---,0.00,VWS V14.01,2013-02-18 16:38:00,
2013-02-18 09:39:00,34.0,16.8,26.37,NE,45,10.1,10.1,49,0.00,,---,0.00,VWS V14.01,2013-02-18 16:39:00,
2013-02-18 09:40:00,34.2,17.0,26.37,NW,315,8.7,10.1,49,0.00,,---,0.00,VWS V14.01,2013-02-18 16:40:00,
2013-02-18 09:41:00,34.0,16.8,26.37,NNW,338,10.1,10.1,49,0.00,,---,0.00,VWS V14.01,2013-02-18 16:41:00,
2013-02-18 09:42:00,34.0,16.8,26.37,WNW,292,5.4,10.1,49,0.00,,---,0.00,VWS V14.01,2013-02-18 16:42:00,
2013-02-18 09:43:00,34.0,16.8,26.37,WNW,292,7.4,7.4,49,0.00,,---,0.00,VWS V14.01,2013-02-18 16:43:00,
2013-02-18 09:44:00,34.2,17.0,26.37,WNW,292,8.1,8.1,49,0.00,,---,0.00,VWS V14.01,2013-02-18 16:44:00,
2013-02-18 09:45:00,34.2,17.0,26.37,East,90,12.8,12.8,49,0.00,,---,0.00,VWS V14.01,2013-02-18 16:45:00,
2013-02-18 09:46:00,36.1,18.4,26.37,NW,315,6.3,6.7,48,0.00,,---,0.00,VWS V14.01,2013-02-18 16:46:00,
2013-02-18 09:47:00,34.0,16.8,26.34,NNW,338,6.0,12.8,49,0.00,,---,0.00,VWS V14.01,2013-02-18 16:47:00,
2013-02-18 09:48:00,34.5,17.3,26.34,West,270,3.8,6.0,49,0.00,,---,0.00,VWS V14.01,2013-02-18 16:48:00,
2013-02-18 09:49:00,34.5,17.3,26.34,NNW,338,6.3,6.3,49,0.00,,---,0.00,VWS V14.01,2013-02-18 16:49:00,
2013-02-18 09:50:00,34.5,17.3,26.34,North,0,8.5,8.5,49,0.00,,---,0.00,VWS V14.01,2013-02-18 16:50:00,
2013-02-18 09:51:00,34.5,17.3,26.34,WNW,292,7.6,8.5,49,0.00,,---,0.00,VWS V14.01,2013-02-18 16:51:00,
2013-02-18 09:52:00,34.5,17.3,26.34,North,0,5.6,7.6,49,0.00,,---,0.00,VWS V14.01,2013-02-18 16:52:00,
2013-02-18 09:53:00,34.9,17.7,26.34,NE,45,6.0,6.0,49,0.00,,---,0.00,VWS V14.01,2013-02-18 16:53:00,
2013-02-18 09:54:00,34.9,17.7,26.34,NW,315,12.3,12.3,49,0.00,,---,0.00,VWS V14.01,2013-02-18 16:54:00,
2013-02-18 09:55:00,34.5,17.3,26.34,NW,315,9.8,12.3,49,0.00,,---,0.00,VWS V14.01,2013-02-18 16:55:00,
2013-02-18 09:56:00,34.5,17.3,26.34,NNE,22,6.0,9.8,49,0.00,,---,0.00,VWS V14.01,2013-02-18 16:56:00,
2013-02-18 09:57:00,34.5,17.3,26.34,NNW,338,7.6,7.6,49,0.00,,---,0.00,VWS V14.01,2013-02-18 16:57:00,
2013-02-18 09:58:00,34.7,17.5,26.34,North,0,7.4,7.6,49,0.00,,---,0.00,VWS V14.01,2013-02-18 16:58:00,
2013-02-18 09:59:00,34.7,17.5,26.34,NNW,338,8.1,8.1,49,0.00,,---,0.00,VWS V14.01,2013-02-18 16:59:00,
2013-02-18 10:00:00,34.5,17.3,26.34,NW,315,4.3,8.1,49,0.00,,---,0.00,VWS V14.01,2013-02-18 17:00:00,
2013-02-18 10:01:00,34.7,17.5,26.34,NNW,338,8.1,8.1,49,0.00,,---,0.00,VWS V14.01,2013-02-18 17:01:00,
2013-02-18 10:02:00,34.9,17.7,26.37,NNE,22,8.5,8.5,49,0.00,,---,0.00,VWS V14.01,2013-02-18 17:02:00,
2013-02-18 10:03:00,34.5,16.9,26.37,NNW,338,6.9,8.5,48,0.00,,---,0.00,VWS V14.01,2013-02-18 17:03:00,
2013-02-18 10:04:00,34.5,16.9,26.37,North,0,10.7,10.7,48,0.00,,---,0.00,VWS V14.01,2013-02-18 17:04:00,
2013-02-18 10:05:00,34.3,16.7,26.37,North,0,7.6,10.7,48,0.00,,---,0.00,VWS V14.01,2013-02-18 17:05:00,
2013-02-18 10:06:00,34.2,16.5,26.37,NNW,338,6.0,7.6,48,0.00,,---,0.00,VWS V14.01,2013-02-18 17:06:00,
2013-02-18 10:07:00,34.3,16.7,26.37,WNW,292,6.9,6.9,48,0.00,,---,0.00,VWS V14.01,2013-02-18 17:07:00,
2013-02-18 10:08:00,34.0,16.4,26.37,NNW,338,5.8,6.9,48,0.00,,---,0.00,VWS V14.01,2013-02-18 17:08:00,
2013-02-18 10:09:00,34.3,16.7,26.37,WNW,292,4.3,5.8,48,0.00,,---,0.00,VWS V14.01,2013-02-18 17:09:00,
2013-02-18 10:10:00,34.0,16.4,26.37,WNW,292,9.8,9.8,48,0.00,,---,0.00,VWS V14.01,2013-02-18 17:10:00,
2013-02-18 10:11:00,34.5,16.9,26.37,NNW,338,8.1,9.8,48,0.00,,---,0.00,VWS V14.01,2013-02-18 17:11:00,
2013-02-18 10:12:00,34.0,16.4,26.37,NW,315,14.3,14.3,48,0.00,,---,0.00,VWS V14.01,2013-02-18 17:12:00,
2013-02-18 10:13:00,34.0,16.4,26.37,WNW,292,12.3,14.3,48,0.00,,---,0.00,VWS V14.01,2013-02-18 17:13:00,
2013-02-18 10:14:00,34.0,16.4,26.37,WNW,292,13.0,13.0,48,0.00,,---,0.00,VWS V14.01,2013-02-18 17:14:00,
2013-02-18 10:15:00,34.3,16.7,26.37,North,0,6.0,13.0,48,0.00,,---,0.00,VWS V14.01,2013-02-18 17:15:00,
2013-02-18 10:16:00,34.5,16.9,26.37,NNW,338,6.3,6.3,48,0.00,,---,0.00,VWS V14.01,2013-02-18 17:16:00,
2013-02-18 10:17:00,35.1,17.4,26.37,NNW,338,6.0,6.3,48,0.00,,---,0.00,VWS V14.01,2013-02-18 17:17:00,
2013-02-18 10:18:00,35.4,17.7,26.37,NNE,22,8.1,8.1,48,0.00,,---,0.00,VWS V14.01,2013-02-18 17:18:00,
2013-02-18 10:19:00,36.1,18.4,26.37,NNW,338,3.4,8.1,48,0.00,,---,0.00,VWS V14.01,2013-02-18 17:19:00,
2013-02-18 10:20:00,35.6,17.9,26.37,NW,315,8.7,8.7,48,0.00,,---,0.00,VWS V14.01,2013-02-18 17:20:00,
2013-02-18 10:21:00,35.1,17.4,26.37,NNW,338,8.5,8.7,48,0.00,,---,0.00,VWS V14.01,2013-02-18 17:21:00,
2013-02-18 10:22:00,35.4,17.7,26.37,North,0,8.1,8.5,48,0.00,,---,0.00,VWS V14.01,2013-02-18 17:22:00,
2013-02-18 10:23:00,35.4,17.7,26.37,NNW,338,7.8,8.1,48,0.00,,---,0.00,VWS V14.01,2013-02-18 17:23:00,
2013-02-18 10:24:00,34.9,17.2,26.37,NNW,338,9.4,9.4,48,0.00,,---,0.00,VWS V14.01,2013-02-18 17:24:00,
2013-02-18 10:25:00,34.7,17.0,26.37,NW,315,12.3,12.3,48,0.00,,---,0.00,VWS V14.01,2013-02-18 17:25:00,
2013-02-18 10:26:00,34.9,17.2,26.37,NNE,22,10.1,12.3,48,0.00,,---,0.00,VWS V14.01,2013-02-18 17:26:00,
2013-02-18 10:27:00,35.1,17.4,26.37,WNW,292,7.6,10.1,48,0.00,,---,0.00,VWS V14.01,2013-02-18 17:27:00,
2013-02-18 10:28:00,35.1,17.4,26.37,NNW,338,10.7,10.7,48,0.00,,---,0.00,VWS V14.01,2013-02-18 17:28:00,
2013-02-18 10:29:00,35.2,17.5,26.37,NW,315,7.6,10.7,48,0.00,,---,0.00,VWS V14.01,2013-02-18 17:29:00,
2013-02-18 10:30:00,35.6,17.9,26.37,NNW,338,6.0,7.6,48,0.00,,---,0.00,VWS V14.01,2013-02-18 17:30:00,
2013-02-18 10:31:00,35.8,18.0,26.37,WNW,292,5.8,6.0,48,0.00,,---,0.00,VWS V14.01,2013-02-18 17:31:00,
2013-02-18 10:32:00,36.0,18.2,26.37,North,0,6.5,6.5,48,0.00,,---,0.00,VWS V14.01,2013-02-18 17:32:00,
2013-02-18 10:33:00,36.3,18.5,26.37,NNW,338,6.5,6.5,48,0.00,,---,0.00,VWS V14.01,2013-02-18 17:33:00,
2013-02-18 10:34:00,36.1,18.4,26.37,NE,45,9.8,9.8,48,0.00,,---,0.00,VWS V14.01,2013-02-18 17:34:00,
2013-02-18 10:35:00,36.0,18.2,26.37,North,0,5.8,9.8,48,0.00,,---,0.00,VWS V14.01,2013-02-18 17:35:00,
2013-02-18 10:36:00,36.0,18.2,26.37,NNW,338,5.6,5.8,48,0.00,,---,0.00,VWS V14.01,2013-02-18 17:36:00,
2013-02-18 10:37:00,35.8,18.0,26.37,NW,315,5.6,5.6,48,0.00,,---,0.00,VWS V14.01,2013-02-18 17:37:00,
2013-02-18 10:38:00,36.1,18.4,26.37,NNE,22,13.2,13.2,48,0.00,,---,0.00,VWS V14.01,2013-02-18 17:38:00,
2013-02-18 10:39:00,35.8,18.0,26.37,North,0,13.2,13.2,48,0.00,,---,0.00,VWS V14.01,2013-02-18 17:39:00,
2013-02-18 10:40:00,35.4,17.7,26.37,NNW,338,9.8,13.2,48,0.00,,---,0.00,VWS V14.01,2013-02-18 17:40:00,
2013-02-18 10:41:00,35.6,17.9,26.37,North,0,7.2,9.8,48,0.00,,---,0.00,VWS V14.01,2013-02-18 17:41:00,
2013-02-18 10:42:00,35.4,17.7,26.37,North,0,6.0,7.2,48,0.00,,---,0.00,VWS V14.01,2013-02-18 17:42:00,
2013-02-18 10:43:00,35.2,17.5,26.37,NW,315,5.4,6.0,48,0.00,,---,0.00,VWS V14.01,2013-02-18 17:43:00,
2013-02-18 10:44:00,36.0,18.2,26.37,West,270,8.5,8.5,48,0.00,,---,0.00,VWS V14.01,2013-02-18 17:44:00,
2013-02-18 10:45:00,35.6,17.9,26.37,North,0,6.7,8.5,48,0.00,,---,0.00,VWS V14.01,2013-02-18 17:45:00,
2013-02-18 10:46:00,36.1,18.4,26.37,NW,315,6.3,6.7,48,0.00,,---,0.00,VWS V14.01,2013-02-18 17:46:00,
2013-02-18 10:47:00,37.4,19.0,26.40,WNW,292,7.4,7.8,47,0.00,,---,0.00,VWS V14.01,2013-02-18 17:47:00,
2013-02-18 10:48:00,35.6,17.9,26.40,NNE,22,11.2,11.2,48,0.00,,---,0.00,VWS V14.01,2013-02-18 17:48:00,
2013-02-18 10:49:00,35.1,17.4,26.40,North,0,6.3,11.2,48,0.00,,---,0.00,VWS V14.01,2013-02-18 17:49:00,
2013-02-18 10:50:00,35.1,17.4,26.40,NNW,338,3.8,6.3,48,0.00,,---,0.00,VWS V14.01,2013-02-18 17:50:00,
2013-02-18 10:51:00,35.1,17.4,26.40,North,0,3.8,3.8,48,0.00,,---,0.00,VWS V14.01,2013-02-18 17:51:00,
2013-02-18 10:52:00,35.4,17.7,26.40,NW,315,4.0,4.0,48,0.00,,---,0.00,VWS V14.01,2013-02-18 17:52:00,
2013-02-18 10:53:00,35.1,17.4,26.40,North,0,8.7,8.7,48,0.00,,---,0.00,VWS V14.01,2013-02-18 17:53:00,
2013-02-18 10:54:00,34.9,17.2,26.40,NNW,338,12.5,12.5,48,0.00,,---,0.00,VWS V14.01,2013-02-18 17:54:00,
2013-02-18 10:55:00,34.3,16.7,26.40,NNW,338,5.6,12.5,48,0.00,,---,0.00,VWS V14.01,2013-02-18 17:55:00,
2013-02-18 10:56:00,34.3,16.7,26.40,WNW,292,6.5,6.5,48,0.00,,---,0.00,VWS V14.01,2013-02-18 17:56:00,
2013-02-18 10:57:00,34.3,16.7,26.40,WNW,292,4.0,6.5,48,0.00,,---,0.00,VWS V14.01,2013-02-18 17:57:00,
2013-02-18 10:58:00,34.3,16.7,26.40,WNW,292,7.8,7.8,48,0.00,,---,0.00,VWS V14.01,2013-02-18 17:58:00,
2013-02-18 10:59:00,34.2,16.5,26.40,NW,315,5.4,7.8,48,0.00,,---,0.00,VWS V14.01,2013-02-18 17:59:00,
2013-02-18 11:00:00,34.0,16.4,26.40,NNW,338,4.9,5.4,48,0.00,,---,0.00,VWS V14.01,2013-02-18 18:00:00,
2013-02-18 11:01:00,37.8,19.4,26.40,North,0,6.7,7.2,47,0.00,,---,0.00,VWS V14.01,2013-02-18 18:01:00,
2013-02-18 11:02:00,34.3,17.2,26.40,NNW,338,6.0,6.0,49,0.00,,---,0.00,VWS V14.01,2013-02-18 18:02:00,
2013-02-18 11:03:00,34.0,16.8,26.40,NE,45,6.3,6.3,49,0.00,,---,0.00,VWS V14.01,2013-02-18 18:03:00,
2013-02-18 11:04:00,34.0,16.4,26.40,NNW,338,10.7,10.7,48,0.00,,---,0.00,VWS V14.01,2013-02-18 18:04:00,
2013-02-18 11:05:00,34.7,17.5,26.40,North,0,4.9,10.7,49,0.00,,---,0.00,VWS V14.01,2013-02-18 18:05:00,
2013-02-18 11:06:00,35.1,17.8,26.40,NNW,338,3.8,4.9,49,0.00,,---,0.00,VWS V14.01,2013-02-18 18:06:00,
2013-02-18 11:07:00,35.1,17.8,26.40,NE,45,6.3,6.3,49,0.00,,---,0.00,VWS V14.01,2013-02-18 18:07:00,
2013-02-18 11:08:00,35.6,18.3,26.40,NW,315,5.6,6.3,49,0.00,,---,0.00,VWS V14.01,2013-02-18 18:08:00,
2013-02-18 11:09:00,35.4,18.2,26.40,WNW,292,7.8,7.8,49,0.00,,---,0.00,VWS V14.01,2013-02-18 18:09:00,
2013-02-18 11:10:00,34.9,17.7,26.40,NNW,338,7.4,7.8,49,0.00,,---,0.00,VWS V14.01,2013-02-18 18:10:00,
2013-02-18 11:11:00,34.7,17.5,26.40,NNW,338,7.8,7.8,49,0.00,,---,0.00,VWS V14.01,2013-02-18 18:11:00,
2013-02-18 11:12:00,34.9,17.2,26.40,North,0,8.1,8.1,48,0.00,,---,0.00,VWS V14.01,2013-02-18 18:12:00,
2013-02-18 11:13:00,34.9,17.2,26.40,NNW,338,10.7,10.7,48,0.00,,---,0.00,VWS V14.01,2013-02-18 18:13:00,
2013-02-18 11:14:00,35.2,17.5,26.40,North,0,7.8,10.7,48,0.00,,---,0.00,VWS V14.01,2013-02-18 18:14:00,
2013-02-18 11:15:00,35.6,17.9,26.40,NW,315,10.5,10.5,48,0.00,,---,0.00,VWS V14.01,2013-02-18 18:15:00,
2013-02-18 11:16:00,35.4,17.7,26.40,NNW,338,7.4,10.5,48,0.00,,---,0.00,VWS V14.01,2013-02-18 18:16:00,
2013-02-18 11:17:00,35.2,17.5,26.40,WNW,292,10.7,10.7,48,0.00,,---,0.00,VWS V14.01,2013-02-18 18:17:00,
2013-02-18 11:18:00,35.6,17.9,26.40,NNW,338,7.6,10.7,48,0.00,,---,0.00,VWS V14.01,2013-02-18 18:18:00,
2013-02-18 11:19:00,35.4,17.7,26.40,NW,315,7.8,7.8,48,0.00,,---,0.00,VWS V14.01,2013-02-18 18:19:00,
2013-02-18 11:20:00,36.0,18.2,26.40,WNW,292,11.4,11.4,48,0.00,,---,0.00,VWS V14.01,2013-02-18 18:20:00,
2013-02-18 11:21:00,35.8,18.0,26.40,NW,315,12.5,12.5,48,0.00,,---,0.00,VWS V14.01,2013-02-18 18:21:00,
2013-02-18 11:22:00,35.1,17.4,26.40,NNW,338,12.8,12.8,48,0.00,,---,0.00,VWS V14.01,2013-02-18 18:22:00,
2013-02-18 11:23:00,35.4,17.7,26.40,NW,315,4.3,12.8,48,0.00,,---,0.00,VWS V14.01,2013-02-18 18:23:00,
2013-02-18 11:24:00,35.4,17.7,26.40,NW,315,13.6,13.6,48,0.00,,---,0.00,VWS V14.01,2013-02-18 18:24:00,
2013-02-18 11:25:00,35.6,17.9,26.40,NNW,338,12.5,13.6,48,0.00,,---,0.00,VWS V14.01,2013-02-18 18:25:00,
2013-02-18 11:26:00,36.1,18.4,26.40,WNW,292,4.0,12.5,48,0.00,,---,0.00,VWS V14.01,2013-02-18 18:26:00,
2013-02-18 11:27:00,36.1,18.4,26.40,WNW,292,10.5,10.5,48,0.00,,---,0.00,VWS V14.01,2013-02-18 18:27:00,
2013-02-18 11:28:00,37.4,18.5,26.43,NNE,22,6.0,11.9,46,0.00,,---,0.00,VWS V14.01,2013-02-18 18:28:00,
2013-02-18 11:29:00,36.7,18.9,26.40,North,0,12.8,12.8,48,0.00,,---,0.00,VWS V14.01,2013-02-18 18:29:00,
2013-02-18 11:30:00,36.7,18.9,26.40,NNW,338,10.7,12.8,48,0.00,,---,0.00,VWS V14.01,2013-02-18 18:30:00,
2013-02-18 11:31:00,36.5,18.2,26.40,NNW,338,6.5,10.7,47,0.00,,---,0.00,VWS V14.01,2013-02-18 18:31:00,
2013-02-18 11:32:00,36.7,18.9,26.40,NNW,338,7.8,7.8,48,0.00,,---,0.00,VWS V14.01,2013-02-18 18:32:00,
2013-02-18 11:33:00,36.7,18.4,26.40,NNW,338,17.0,17.0,47,0.00,,---,0.00,VWS V14.01,2013-02-18 18:33:00,
2013-02-18 11:34:00,36.0,18.2,26.40,NNW,338,4.3,17.0,48,0.00,,---,0.00,VWS V14.01,2013-02-18 18:34:00,
2013-02-18 11:35:00,36.3,18.5,26.40,NNW,338,3.4,4.3,48,0.00,,---,0.00,VWS V14.01,2013-02-18 18:35:00,
2013-02-18 11:36:00,36.7,18.9,26.40,ENE,68,7.8,7.8,48,0.00,,---,0.00,VWS V14.01,2013-02-18 18:36:00,
2013-02-18 11:37:00,37.0,19.2,26.40,NNE,22,8.1,8.1,48,0.00,,---,0.00,VWS V14.01,2013-02-18 18:37:00,
2013-02-18 11:38:00,37.4,19.5,26.40,NW,315,7.8,8.1,48,0.00,,---,0.00,VWS V14.01,2013-02-18 18:38:00,
2013-02-18 11:39:00,37.6,19.7,26.40,NW,315,3.8,7.8,48,0.00,,---,0.00,VWS V14.01,2013-02-18 18:39:00,
2013-02-18 11:40:00,38.1,20.2,26.40,WNW,292,6.3,6.3,48,0.00,,---,0.00,VWS V14.01,2013-02-18 18:40:00,
2013-02-18 11:41:00,38.5,20.5,26.40,NW,315,8.7,8.7,48,0.00,,---,0.00,VWS V14.01,2013-02-18 18:41:00,
2013-02-18 11:42:00,37.9,20.0,26.40,WNW,292,5.8,8.7,48,0.00,,---,0.00,VWS V14.01,2013-02-18 18:42:00,
2013-02-18 11:43:00,37.4,19.0,26.40,North,0,5.6,5.8,47,0.00,,---,0.00,VWS V14.01,2013-02-18 18:43:00,
2013-02-18 11:44:00,37.6,19.2,26.40,NNW,338,8.5,8.5,47,0.00,,---,0.00,VWS V14.01,2013-02-18 18:44:00,
2013-02-18 11:45:00,37.0,19.2,26.40,NNW,338,4.3,8.5,48,0.00,,---,0.00,VWS V14.01,2013-02-18 18:45:00,
2013-02-18 11:46:00,37.0,19.2,26.40,WNW,292,7.8,7.8,48,0.00,,---,0.00,VWS V14.01,2013-02-18 18:46:00,
2013-02-18 11:47:00,37.4,19.0,26.40,WNW,292,7.4,7.8,47,0.00,,---,0.00,VWS V14.01,2013-02-18 18:47:00,
2013-02-18 11:48:00,37.0,19.2,26.40,NNW,338,9.8,9.8,48,0.00,,---,0.00,VWS V14.01,2013-02-18 18:48:00,
2013-02-18 11:49:00,37.4,19.0,26.40,North,0,3.6,9.8,47,0.00,,---,0.00,VWS V14.01,2013-02-18 18:49:00,
2013-02-18 11:50:00,37.6,19.2,26.40,NNW,338,14.1,14.1,47,0.00,,---,0.00,VWS V14.01,2013-02-18 18:50:00,
2013-02-18 11:51:00,37.6,19.2,26.40,WNW,292,7.2,14.1,47,0.00,,---,0.00,VWS V14.01,2013-02-18 18:51:00,
2013-02-18 11:52:00,37.9,19.5,26.40,North,0,5.4,7.2,47,0.00,,---,0.00,VWS V14.01,2013-02-18 18:52:00,
2013-02-18 11:53:00,38.3,19.9,26.40,NNE,22,8.1,8.1,47,0.00,,---,0.00,VWS V14.01,2013-02-18 18:53:00,
2013-02-18 11:54:00,38.1,19.7,26.40,NNW,338,10.3,10.3,47,0.00,,---,0.00,VWS V14.01,2013-02-18 18:54:00,
2013-02-18 11:55:00,38.3,19.9,26.40,North,0,6.0,10.3,47,0.00,,---,0.00,VWS V14.01,2013-02-18 18:55:00,
2013-02-18 11:56:00,38.7,20.2,26.40,WNW,292,7.4,7.4,47,0.00,,---,0.00,VWS V14.01,2013-02-18 18:56:00,
2013-02-18 11:57:00,38.7,20.2,26.40,NNW,338,4.0,7.4,47,0.00,,---,0.00,VWS V14.01,2013-02-18 18:57:00,
2013-02-18 11:58:00,37.6,19.2,26.40,NNW,338,6.0,6.0,47,0.00,,---,0.00,VWS V14.01,2013-02-18 18:58:00,
2013-02-18 11:59:00,37.6,18.7,26.40,NNW,338,7.4,7.4,46,0.00,,---,0.00,VWS V14.01,2013-02-18 18:59:00,
2013-02-18 12:00:00,37.6,19.2,26.40,WSW,248,7.2,7.4,47,0.00,,---,0.00,VWS V14.01,2013-02-18 19:00:00,
2013-02-18 12:01:00,37.8,19.4,26.40,North,0,6.7,7.2,47,0.00,,---,0.00,VWS V14.01,2013-02-18 19:01:00,
2013-02-18 12:02:00,37.9,19.5,26.40,NNW,338,7.6,7.6,47,0.00,,---,0.00,VWS V14.01,2013-02-18 19:02:00,
2013-02-18 12:03:00,37.9,19.5,26.40,North,0,9.0,9.0,47,0.00,,---,0.00,VWS V14.01,2013-02-18 19:03:00,
2013-02-18 12:04:00,37.6,18.7,26.40,NE,45,11.0,11.0,46,0.00,,---,0.00,VWS V14.01,2013-02-18 19:04:00,
2013-02-18 12:05:00,37.6,18.7,26.40,NNE,22,9.8,11.0,46,0.00,,---,0.00,VWS V14.01,2013-02-18 19:05:00,
2013-02-18 12:06:00,37.6,18.7,26.40,WNW,292,6.0,9.8,46,0.00,,---,0.00,VWS V14.01,2013-02-18 19:06:00,
2013-02-18 12:07:00,37.6,18.7,26.40,NNW,338,6.0,6.0,46,0.00,,---,0.00,VWS V14.01,2013-02-18 19:07:00,
2013-02-18 12:08:00,37.9,19.0,26.40,NW,315,9.2,9.2,46,0.00,,---,0.00,VWS V14.01,2013-02-18 19:08:00,
2013-02-18 12:09:00,37.6,18.7,26.40,NNE,22,5.6,9.2,46,0.00,,---,0.00,VWS V14.01,2013-02-18 19:09:00,
2013-02-18 12:10:00,37.9,19.0,26.40,East,90,8.5,8.5,46,0.00,,---,0.00,VWS V14.01,2013-02-18 19:10:00,
2013-02-18 12:11:00,38.1,19.2,26.40,NNE,22,12.1,12.1,46,0.00,,---,0.00,VWS V14.01,2013-02-18 19:11:00,
2013-02-18 12:12:00,37.9,19.0,26.40,NNW,338,5.8,12.1,46,0.00,,---,0.00,VWS V14.01,2013-02-18 19:12:00,
2013-02-18 12:13:00,37.9,19.0,26.40,NW,315,12.5,12.5,46,0.00,,---,0.00,VWS V14.01,2013-02-18 19:13:00,
2013-02-18 12:14:00,38.1,19.2,26.40,NNW,338,7.8,12.5,46,0.00,,---,0.00,VWS V14.01,2013-02-18 19:14:00,
2013-02-18 12:15:00,38.3,19.4,26.40,NNE,22,7.4,7.8,46,0.00,,---,0.00,VWS V14.01,2013-02-18 19:15:00,
2013-02-18 12:16:00,37.9,19.0,26.40,NNE,22,3.4,7.4,46,0.00,,---,0.00,VWS V14.01,2013-02-18 19:16:00,
2013-02-18 12:17:00,37.9,19.0,26.40,WNW,292,3.1,3.4,46,0.00,,---,0.00,VWS V14.01,2013-02-18 19:17:00,
2013-02-18 12:18:00,38.5,19.5,26.43,West,270,6.5,6.5,46,0.00,,---,0.00,VWS V14.01,2013-02-18 19:18:00,
2013-02-18 12:19:00,38.3,19.4,26.43,SW,225,5.4,6.5,46,0.00,,---,0.00,VWS V14.01,2013-02-18 19:19:00,
2013-02-18 12:20:00,37.4,18.5,26.43,NNE,22,10.1,10.1,46,0.00,,---,0.00,VWS V14.01,2013-02-18 19:20:00,
2013-02-18 12:21:00,37.4,18.5,26.43,NNW,338,7.8,10.1,46,0.00,,---,0.00,VWS V14.01,2013-02-18 19:21:00,
2013-02-18 12:22:00,37.8,18.9,26.43,West,270,6.3,7.8,46,0.00,,---,0.00,VWS V14.01,2013-02-18 19:22:00,
2013-02-18 12:23:00,38.1,19.2,26.43,NW,315,5.8,6.3,46,0.00,,---,0.00,VWS V14.01,2013-02-18 19:23:00,
2013-02-18 12:24:00,37.9,19.0,26.43,East,90,8.1,8.1,46,0.00,,---,0.00,VWS V14.01,2013-02-18 19:24:00,
2013-02-18 12:25:00,37.6,18.7,26.43,North,0,12.3,12.3,46,0.00,,---,0.00,VWS V14.01,2013-02-18 19:25:00,
2013-02-18 12:26:00,32.9,18.5,26.43,NNW,338,3.4,4.9,55,0.00,,---,0.00,VWS V14.01,2013-02-18 19:26:00,
2013-02-18 12:27:00,37.2,18.9,26.43,NNW,338,11.9,12.3,47,0.00,,---,0.00,VWS V14.01,2013-02-18 19:27:00,
2013-02-18 12:28:00,37.4,18.5,26.43,NNE,22,6.0,11.9,46,0.00,,---,0.00,VWS V14.01,2013-02-18 19:28:00,
2013-02-18 12:29:00,37.6,18.7,26.43,NNW,338,6.7,6.7,46,0.00,,---,0.00,VWS V14.01,2013-02-18 19:29:00,
2013-02-18 12:30:00,37.0,18.7,26.43,NE,45,8.5,8.5,47,0.00,,---,0.00,VWS V14.01,2013-02-18 19:30:00,
2013-02-18 12:31:00,37.0,18.7,26.43,NNW,338,6.3,8.5,47,0.00,,---,0.00,VWS V14.01,2013-02-18 19:31:00,
2013-02-18 12:32:00,37.0,18.7,26.43,NW,315,5.8,6.3,47,0.00,,---,0.00,VWS V14.01,2013-02-18 19:32:00,
2013-02-18 12:33:00,37.2,18.9,26.40,NNE,22,6.3,6.3,47,0.00,,---,0.00,VWS V14.01,2013-02-18 19:33:00,
2013-02-18 12:34:00,37.2,18.9,26.40,SE,135,6.3,6.3,47,0.00,,---,0.00,VWS V14.01,2013-02-18 19:34:00,
2013-02-18 12:35:00,36.5,18.2,26.40,NW,315,8.7,8.7,47,0.00,,---,0.00,VWS V14.01,2013-02-18 19:35:00,
2013-02-18 12:36:00,36.0,17.7,26.40,NNE,22,5.6,8.7,47,0.00,,---,0.00,VWS V14.01,2013-02-18 19:36:00,
2013-02-18 12:37:00,35.4,17.2,26.40,NNW,338,7.4,7.4,47,0.00,,---,0.00,VWS V14.01,2013-02-18 19:37:00,
2013-02-18 12:38:00,35.2,17.0,26.40,NNW,338,4.3,7.4,47,0.00,,---,0.00,VWS V14.01,2013-02-18 19:38:00,
2013-02-18 12:39:00,35.1,17.4,26.40,North,0,7.8,7.8,48,0.00,,---,0.00,VWS V14.01,2013-02-18 19:39:00,
2013-02-18 12:40:00,34.9,17.2,26.40,NNE,22,5.4,7.8,48,0.00,,---,0.00,VWS V14.01,2013-02-18 19:40:00,
2013-02-18 12:41:00,34.7,17.0,26.40,WNW,292,3.8,5.4,48,0.00,,---,0.00,VWS V14.01,2013-02-18 19:41:00,
2013-02-18 12:42:00,34.3,16.7,26.40,NNW,338,14.3,14.3,48,0.00,,---,0.00,VWS V14.01,2013-02-18 19:42:00,
2013-02-18 12:43:00,34.2,16.5,26.40,NNW,338,9.6,14.3,48,0.00,,---,0.00,VWS V14.01,2013-02-18 19:43:00,
2013-02-18 12:44:00,34.0,16.4,26.40,NNW,338,5.8,9.6,48,0.00,,---,0.00,VWS V14.01,2013-02-18 19:44:00,
2013-02-18 12:45:00,34.0,16.4,26.40,WNW,292,4.0,5.8,48,0.00,,---,0.00,VWS V14.01,2013-02-18 19:45:00,
2013-02-18 12:46:00,34.0,16.4,26.40,North,0,7.4,7.4,48,0.00,,---,0.00,VWS V14.01,2013-02-18 19:46:00,
2013-02-18 12:47:00,33.8,16.2,26.40,NW,315,5.6,7.4,48,0.00,,---,0.00,VWS V14.01,2013-02-18 19:47:00,
2013-02-18 12:48:00,33.6,16.5,26.40,NW,315,6.0,6.0,49,0.00,,---,0.00,VWS V14.01,2013-02-18 19:48:00,
2013-02-18 12:49:00,34.5,17.8,26.40,NE,45,5.6,6.0,50,0.00,,---,0.00,VWS V14.01,2013-02-18 19:49:00,
2013-02-18 12:50:00,34.5,17.8,26.40,WNW,292,5.4,5.6,50,0.00,,---,0.00,VWS V14.01,2013-02-18 19:50:00,
2013-02-18 12:51:00,35.4,18.6,26.40,NNW,338,10.1,10.1,50,0.00,,---,0.00,VWS V14.01,2013-02-18 19:51:00,
2013-02-18 12:52:00,35.8,18.5,26.40,NNE,22,6.3,10.1,49,0.00,,---,0.00,VWS V14.01,2013-02-18 19:52:00,
2013-02-18 12:53:00,36.7,19.8,26.40,NNW,338,6.3,6.3,50,0.00,,---,0.00,VWS V14.01,2013-02-18 19:53:00,
2013-02-18 12:54:00,37.2,20.3,26.40,WNW,292,4.9,6.3,50,0.00,,---,0.00,VWS V14.01,2013-02-18 19:54:00,
2013-02-18 12:55:00,37.0,20.1,26.40,ENE,68,5.4,5.4,50,0.00,,---,0.00,VWS V14.01,2013-02-18 19:55:00,
2013-02-18 12:56:00,37.4,20.0,26.40,NW,315,5.6,5.6,49,0.00,,---,0.00,VWS V14.01,2013-02-18 19:56:00,
2013-02-18 12:57:00,37.0,19.7,26.40,NW,315,12.8,12.8,49,0.00,,---,0.00,VWS V14.01,2013-02-18 19:57:00,
2013-02-18 12:58:00,37.2,19.8,26.40,North,0,7.6,12.8,49,0.00,,---,0.00,VWS V14.01,2013-02-18 19:58:00,
2013-02-18 12:59:00,37.0,19.7,26.40,NNW,338,6.5,7.6,49,0.00,,---,0.00,VWS V14.01,2013-02-18 19:59:00,
2013-02-18 13:00:00,36.9,19.5,26.40,North,0,11.4,11.4,49,0.00,,---,0.00,VWS V14.01,2013-02-18 20:00:00,
2013-02-18 13:01:00,36.7,18.9,26.40,ENE,68,6.0,11.4,48,0.00,,---,0.00,VWS V14.01,2013-02-18 20:01:00,
2013-02-18 13:02:00,36.9,19.5,26.40,NE,45,6.3,6.3,49,0.00,,---,0.00,VWS V14.01,2013-02-18 20:02:00,
2013-02-18 13:03:00,36.3,19.0,26.40,NNW,338,5.8,6.3,49,0.00,,---,0.00,VWS V14.01,2013-02-18 20:03:00,
2013-02-18 13:04:00,35.8,18.5,26.40,North,0,6.0,6.0,49,0.00,,---,0.00,VWS V14.01,2013-02-18 20:04:00,
2013-02-18 13:05:00,35.6,18.3,26.40,NW,315,5.8,6.0,49,0.00,,---,0.00,VWS V14.01,2013-02-18 20:05:00,
2013-02-18 13:06:00,35.2,18.0,26.40,NNW,338,5.8,5.8,49,0.00,,---,0.00,VWS V14.01,2013-02-18 20:06:00,
2013-02-18 13:07:00,35.1,17.8,26.40,NNE,22,7.8,7.8,49,0.00,,---,0.00,VWS V14.01,2013-02-18 20:07:00,
2013-02-18 13:08:00,35.1,17.8,26.40,NNW,338,8.7,8.7,49,0.00,,---,0.00,VWS V14.01,2013-02-18 20:08:00,
2013-02-18 13:09:00,35.2,18.0,26.40,NNE,22,11.2,11.2,49,0.00,,---,0.00,VWS V14.01,2013-02-18 20:09:00,
2013-02-18 13:10:00,34.7,17.5,26.40,WNW,292,8.7,11.2,49,0.00,,---,0.00,VWS V14.01,2013-02-18 20:10:00,
2013-02-18 13:11:00,34.5,17.3,26.40,NNW,338,5.8,8.7,49,0.00,,---,0.00,VWS V14.01,2013-02-18 20:11:00,
2013-02-18 13:12:00,34.0,16.8,26.40,NNW,338,8.5,8.5,49,0.00,,---,0.00,VWS V14.01,2013-02-18 20:12:00,
2013-02-18 13:13:00,33.8,17.1,26.40,WNW,292,9.8,9.8,50,0.00,,---,0.00,VWS V14.01,2013-02-18 20:13:00,
2013-02-18 13:14:00,33.8,17.1,26.40,NW,315,7.4,9.8,50,0.00,,---,0.00,VWS V14.01,2013-02-18 20:14:00,
2013-02-18 13:15:00,33.6,17.0,26.40,NW,315,10.1,10.1,50,0.00,,---,0.00,VWS V14.01,2013-02-18 20:15:00,
2013-02-18 13:16:00,33.3,16.6,26.40,NW,315,12.3,12.3,50,0.00,,---,0.00,VWS V14.01,2013-02-18 20:16:00,
2013-02-18 13:17:00,33.1,16.9,26.40,WNW,292,5.8,12.3,51,0.00,,---,0.00,VWS V14.01,2013-02-18 20:17:00,
2013-02-18 13:18:00,33.1,16.9,26.43,NE,45,5.6,5.8,51,0.00,,---,0.00,VWS V14.01,2013-02-18 20:18:00,
2013-02-18 13:19:00,33.3,17.1,26.43,North,0,10.3,10.3,51,0.00,,---,0.00,VWS V14.01,2013-02-18 20:19:00,
2013-02-18 13:20:00,33.1,17.4,26.43,NW,315,10.3,10.3,52,0.00,,---,0.00,VWS V14.01,2013-02-18 20:20:00,
2013-02-18 13:21:00,33.1,17.8,26.43,WNW,292,5.4,10.3,53,0.00,,---,0.00,VWS V14.01,2013-02-18 20:21:00,
2013-02-18 13:22:00,32.9,18.1,26.43,WNW,292,6.0,6.0,54,0.00,,---,0.00,VWS V14.01,2013-02-18 20:22:00,
2013-02-18 13:23:00,32.9,18.5,26.43,NW,315,5.6,6.0,55,0.00,,---,0.00,VWS V14.01,2013-02-18 20:23:00,
2013-02-18 13:24:00,32.9,18.5,26.43,NW,315,6.3,6.3,55,0.00,,---,0.00,VWS V14.01,2013-02-18 20:24:00,
2013-02-18 13:25:00,32.7,18.4,26.43,NE,45,4.9,6.3,55,0.00,,---,0.00,VWS V14.01,2013-02-18 20:25:00,
2013-02-18 13:26:00,32.9,18.5,26.43,NNW,338,3.4,4.9,55,0.00,,---,0.00,VWS V14.01,2013-02-18 20:26:00,
2013-02-18 13:27:00,32.9,18.5,26.43,NNW,338,3.4,3.4,55,0.00,,---,0.00,VWS V14.01,2013-02-18 20:27:00,
2013-02-18 13:28:00,32.9,18.5,26.43,NNW,338,5.6,5.6,55,0.00,,---,0.00,VWS V14.01,2013-02-18 20:28:00,
2013-02-18 13:29:00,32.7,18.4,26.43,SSE,158,3.4,5.6,55,0.00,,---,0.00,VWS V14.01,2013-02-18 20:29:00,
2013-02-18 13:30:00,32.7,18.4,26.43,NNW,338,4.3,4.3,55,0.00,,---,0.00,VWS V14.01,2013-02-18 20:30:00,
2013-02-18 13:31:00,33.1,18.7,26.43,NNE,22,6.5,6.5,55,0.00,,---,0.00,VWS V14.01,2013-02-18 20:31:00,
2013-02-18 13:32:00,33.3,18.9,26.43,NNW,338,2.9,6.5,55,0.00,,---,0.00,VWS V14.01,2013-02-18 20:32:00,
2013-02-18 13:33:00,33.8,19.4,26.40,NNE,22,5.6,5.6,55,0.00,,---,0.00,VWS V14.01,2013-02-18 20:33:00,
2013-02-18 13:34:00,34.0,19.5,26.40,NNW,338,5.6,5.6,55,0.00,,---,0.00,VWS V14.01,2013-02-18 20:34:00,
2013-02-18 13:35:00,34.2,19.7,26.40,North,0,8.1,8.1,55,0.00,,---,0.00,VWS V14.01,2013-02-18 20:35:00,
2013-02-18 13:36:00,34.2,19.7,26.40,NW,315,9.8,9.8,55,0.00,,---,0.00,VWS V14.01,2013-02-18 20:36:00,
2013-02-18 13:37:00,34.2,19.7,26.40,North,0,6.0,9.8,55,0.00,,---,0.00,VWS V14.01,2013-02-18 20:37:00,
2013-02-18 13:38:00,34.3,19.9,26.40,ENE,68,7.8,7.8,55,0.00,,---,0.00,VWS V14.01,2013-02-18 20:38:00,
2013-02-18 13:39:00,34.2,19.7,26.40,NW,315,6.5,7.8,55,0.00,,---,0.00,VWS V14.01,2013-02-18 20:39:00,
2013-02-18 13:40:00,34.5,20.0,26.40,NW,315,3.1,6.5,55,0.00,,---,0.00,VWS V14.01,2013-02-18 20:40:00,
2013-02-18 13:41:00,34.5,20.0,26.40,North,0,4.9,4.9,55,0.00,,---,0.00,VWS V14.01,2013-02-18 20:41:00,
2013-02-18 13:42:00,34.7,20.2,26.40,NW,315,5.4,5.4,55,0.00,,---,0.00,VWS V14.01,2013-02-18 20:42:00,
2013-02-18 13:43:00,34.5,20.0,26.40,ENE,68,7.4,7.4,55,0.00,,---,0.00,VWS V14.01,2013-02-18 20:43:00,
2013-02-18 13:44:00,34.9,20.4,26.40,NW,315,5.8,7.4,55,0.00,,---,0.00,VWS V14.01,2013-02-18 20:44:00,
2013-02-18 13:45:00,35.1,20.5,26.40,NNW,338,7.8,7.8,55,0.00,,---,0.00,VWS V14.01,2013-02-18 20:45:00,
2013-02-18 13:46:00,34.7,19.8,26.40,NNE,22,8.7,8.7,54,0.00,,---,0.00,VWS V14.01,2013-02-18 20:46:00,
2013-02-18 13:47:00,34.5,19.6,26.40,NW,315,4.7,8.7,54,0.00,,---,0.00,VWS V14.01,2013-02-18 20:47:00,
2013-02-18 13:48:00,34.3,19.9,26.43,NW,315,7.6,7.6,55,0.00,,---,0.00,VWS V14.01,2013-02-18 20:48:00,
2013-02-18 13:49:00,34.2,19.7,26.43,NE,45,8.1,8.1,55,0.00,,---,0.00,VWS V14.01,2013-02-18 20:49:00,
2013-02-18 13:50:00,34.0,19.5,26.43,WNW,292,7.6,8.1,55,0.00,,---,0.00,VWS V14.01,2013-02-18 20:50:00,
2013-02-18 13:51:00,34.0,19.5,26.43,ENE,68,12.1,12.1,55,0.00,,---,0.00,VWS V14.01,2013-02-18 20:51:00,
2013-02-18 13:52:00,33.8,19.4,26.43,NW,315,4.9,12.1,55,0.00,,---,0.00,VWS V14.01,2013-02-18 20:52:00,
2013-02-18 13:53:00,34.0,19.5,26.43,NW,315,6.5,6.5,55,0.00,,---,0.00,VWS V14.01,2013-02-18 20:53:00,
2013-02-18 13:54:00,34.0,19.5,26.43,North,0,14.3,14.3,55,0.00,,---,0.00,VWS V14.01,2013-02-18 20:54:00,
2013-02-18 13:55:00,33.8,19.4,26.43,NE,45,6.0,14.3,55,0.00,,---,0.00,VWS V14.01,2013-02-18 20:55:00,
2013-02-18 13:56:00,34.0,19.5,26.43,NNW,338,6.3,6.3,55,0.00,,---,0.00,VWS V14.01,2013-02-18 20:56:00,
2013-02-18 13:57:00,34.3,19.9,26.43,NNW,338,7.4,7.4,55,0.00,,---,0.00,VWS V14.01,2013-02-18 20:57:00,
2013-02-18 13:58:00,34.0,19.5,26.43,NW,315,6.5,7.4,55,0.00,,---,0.00,VWS V14.01,2013-02-18 20:58:00,
2013-02-18 13:59:00,34.2,19.7,26.43,North,0,5.6,6.5,55,0.00,,---,0.00,VWS V14.01,2013-02-18 20:59:00,
2013-02-18 14:00:00,34.0,19.5,26.43,NNW,338,6.3,6.3,55,0.00,,---,0.00,VWS V14.01,2013-02-18 21:00:00,
2013-02-18 14:01:00,33.8,19.4,26.43,NE,45,10.7,10.7,55,0.00,,---,0.00,VWS V14.01,2013-02-18 21:01:00,
2013-02-18 14:02:00,33.6,19.6,26.43,NW,315,6.5,10.7,56,0.00,,---,0.00,VWS V14.01,2013-02-18 21:02:00,
2013-02-18 14:03:00,33.6,19.6,26.43,NNE,22,6.5,6.5,56,0.00,,---,0.00,VWS V14.01,2013-02-18 21:03:00,
2013-02-18 14:04:00,33.8,16.7,26.43,NNW,338,6.0,9.2,49,0.00,,---,0.00,VWS V14.01,2013-02-18 21:04:00,
2013-02-18 14:05:00,33.8,19.4,26.43,NNW,338,9.6,9.6,55,0.00,,---,0.00,VWS V14.01,2013-02-18 21:05:00,
2013-02-18 14:06:00,33.8,19.4,26.43,NW,315,7.8,9.6,55,0.00,,---,0.00,VWS V14.01,2013-02-18 21:06:00,
2013-02-18 14:07:00,33.8,19.4,26.43,NE,45,8.1,8.1,55,0.00,,---,0.00,VWS V14.01,2013-02-18 21:07:00,
2013-02-18 14:08:00,33.8,19.4,26.43,WSW,248,13.2,13.2,55,0.00,,---,0.00,VWS V14.01,2013-02-18 21:08:00,
2013-02-18 14:09:00,34.2,19.7,26.43,NNW,338,6.3,13.2,55,0.00,,---,0.00,VWS V14.01,2013-02-18 21:09:00,
2013-02-18 14:10:00,34.3,19.9,26.43,NNE,22,5.6,6.3,55,0.00,,---,0.00,VWS V14.01,2013-02-18 21:10:00,
2013-02-18 14:11:00,34.3,19.9,26.43,NW,315,10.7,10.7,55,0.00,,---,0.00,VWS V14.01,2013-02-18 21:11:00,
2013-02-18 14:12:00,34.5,20.0,26.43,North,0,7.2,10.7,55,0.00,,---,0.00,VWS V14.01,2013-02-18 21:12:00,
2013-02-18 14:13:00,35.2,20.7,26.43,NNW,338,9.2,9.2,55,0.00,,---,0.00,VWS V14.01,2013-02-18 21:13:00,
2013-02-18 14:14:00,35.6,20.6,26.43,NW,315,3.8,9.2,54,0.00,,---,0.00,VWS V14.01,2013-02-18 21:14:00,
2013-02-18 14:15:00,35.8,20.3,26.43,NE,45,4.9,4.9,53,0.00,,---,0.00,VWS V14.01,2013-02-18 21:15:00,
2013-02-18 14:16:00,33.4,16.4,26.43,WNW,292,9.0,10.3,49,0.00,,---,0.00,VWS V14.01,2013-02-18 21:16:00,
2013-02-18 14:17:00,35.4,19.6,26.43,NNW,338,9.6,9.6,52,0.00,,---,0.00,VWS V14.01,2013-02-18 21:17:00,
2013-02-18 14:18:00,35.2,18.9,26.43,NW,315,7.8,9.6,51,0.00,,---,0.00,VWS V14.01,2013-02-18 21:18:00,
2013-02-18 14:19:00,35.1,18.8,26.43,NNE,22,8.7,8.7,51,0.00,,---,0.00,VWS V14.01,2013-02-18 21:19:00,
2013-02-18 14:20:00,35.6,19.3,26.43,NNE,22,7.2,8.7,51,0.00,,---,0.00,VWS V14.01,2013-02-18 21:20:00,
2013-02-18 14:21:00,35.6,18.8,26.43,NNW,338,7.2,7.2,50,0.00,,---,0.00,VWS V14.01,2013-02-18 21:21:00,
2013-02-18 14:22:00,35.1,18.3,26.43,NNW,338,10.5,10.5,50,0.00,,---,0.00,VWS V14.01,2013-02-18 21:22:00,
2013-02-18 14:23:00,35.1,18.3,26.43,WNW,292,6.9,10.5,50,0.00,,---,0.00,VWS V14.01,2013-02-18 21:23:00,
2013-02-18 14:24:00,35.1,18.3,26.43,North,0,8.7,8.7,50,0.00,,---,0.00,VWS V14.01,2013-02-18 21:24:00,
2013-02-18 14:25:00,34.2,17.5,26.43,NW,315,6.0,8.7,50,0.00,,---,0.00,VWS V14.01,2013-02-18 21:25:00,
2013-02-18 14:26:00,34.2,17.5,26.43,WNW,292,12.8,12.8,50,0.00,,---,0.00,VWS V14.01,2013-02-18 21:26:00,
2013-02-18 14:27:00,33.8,17.1,26.43,North,0,10.3,12.8,50,0.00,,---,0.00,VWS V14.01,2013-02-18 21:27:00,
2013-02-18 14:28:00,33.8,17.1,26.43,NNW,338,7.6,10.3,50,0.00,,---,0.00,VWS V14.01,2013-02-18 21:28:00,
2013-02-18 14:29:00,33.8,17.1,26.43,NNE,22,6.3,7.6,50,0.00,,---,0.00,VWS V14.01,2013-02-18 21:29:00,
2013-02-18 14:30:00,33.8,17.1,26.43,NNW,338,9.4,9.4,50,0.00,,---,0.00,VWS V14.01,2013-02-18 21:30:00,
2013-02-18 14:31:00,33.6,17.0,26.43,NE,45,12.8,12.8,50,0.00,,---,0.00,VWS V14.01,2013-02-18 21:31:00,
2013-02-18 14:32:00,33.6,17.0,26.43,NNE,22,11.2,12.8,50,0.00,,---,0.00,VWS V14.01,2013-02-18 21:32:00,
2013-02-18 14:33:00,33.6,17.0,26.43,NNW,338,9.2,11.2,50,0.00,,---,0.00,VWS V14.01,2013-02-18 21:33:00,
2013-02-18 14:34:00,33.8,17.1,26.43,NNW,338,11.9,11.9,50,0.00,,---,0.00,VWS V14.01,2013-02-18 21:34:00,
2013-02-18 14:35:00,34.3,17.6,26.43,NNW,338,13.0,13.0,50,0.00,,---,0.00,VWS V14.01,2013-02-18 21:35:00,
2013-02-18 14:36:00,34.5,17.8,26.43,WNW,292,7.4,13.0,50,0.00,,---,0.00,VWS V14.01,2013-02-18 21:36:00,
2013-02-18 14:37:00,34.0,16.8,26.43,WNW,292,14.8,14.8,49,0.00,,---,0.00,VWS V14.01,2013-02-18 21:37:00,
2013-02-18 14:38:00,33.6,17.0,26.43,NW,315,8.5,14.8,50,0.00,,---,0.00,VWS V14.01,2013-02-18 21:38:00,
2013-02-18 14:39:00,33.4,16.8,26.43,NNW,338,9.2,9.2,50,0.00,,---,0.00,VWS V14.01,2013-02-18 21:39:00,
2013-02-18 14:40:00,33.6,17.0,26.43,WNW,292,7.4,9.2,50,0.00,,---,0.00,VWS V14.01,2013-02-18 21:40:00,
2013-02-18 14:41:00,33.8,17.1,26.43,NNW,338,8.5,8.5,50,0.00,,---,0.00,VWS V14.01,2013-02-18 21:41:00,
2013-02-18 14:42:00,33.8,17.1,26.43,WNW,292,7.4,8.5,50,0.00,,---,0.00,VWS V14.01,2013-02-18 21:42:00,
2013-02-18 14:43:00,33.8,17.1,26.43,NNW,338,6.3,7.4,50,0.00,,---,0.00,VWS V14.01,2013-02-18 21:43:00,
2013-02-18 14:44:00,33.8,17.1,26.43,NNW,338,10.1,10.1,50,0.00,,---,0.00,VWS V14.01,2013-02-18 21:44:00,
2013-02-18 14:45:00,33.8,17.1,26.43,NNW,338,10.5,10.5,50,0.00,,---,0.00,VWS V14.01,2013-02-18 21:45:00,
2013-02-18 14:46:00,33.6,17.0,26.43,NNW,338,11.0,11.0,50,0.00,,---,0.00,VWS V14.01,2013-02-18 21:46:00,
2013-02-18 14:47:00,33.1,16.5,26.43,NNW,338,9.0,11.0,50,0.00,,---,0.00,VWS V14.01,2013-02-18 21:47:00,
2013-02-18 14:48:00,33.4,16.8,26.43,North,0,6.3,9.0,50,0.00,,---,0.00,VWS V14.01,2013-02-18 21:48:00,
2013-02-18 14:49:00,33.6,17.0,26.43,NNW,338,9.8,9.8,50,0.00,,---,0.00,VWS V14.01,2013-02-18 21:49:00,
2013-02-18 14:50:00,34.2,17.5,26.43,ENE,68,4.3,9.8,50,0.00,,---,0.00,VWS V14.01,2013-02-18 21:50:00,
2013-02-18 14:51:00,33.8,17.1,26.43,NW,315,8.1,8.1,50,0.00,,---,0.00,VWS V14.01,2013-02-18 21:51:00,
2013-02-18 14:52:00,34.0,17.3,26.43,NNW,338,7.6,8.1,50,0.00,,---,0.00,VWS V14.01,2013-02-18 21:52:00,
2013-02-18 14:53:00,34.0,17.3,26.43,North,0,6.3,7.6,50,0.00,,---,0.00,VWS V14.01,2013-02-18 21:53:00,
2013-02-18 14:54:00,34.2,17.5,26.43,WNW,292,5.8,6.3,50,0.00,,---,0.00,VWS V14.01,2013-02-18 21:54:00,
2013-02-18 14:55:00,34.2,17.5,26.43,NNW,338,6.3,6.3,50,0.00,,---,0.00,VWS V14.01,2013-02-18 21:55:00,
2013-02-18 14:56:00,34.2,17.5,26.43,NNW,338,6.5,6.5,50,0.00,,---,0.00,VWS V14.01,2013-02-18 21:56:00,
2013-02-18 14:57:00,34.3,17.2,26.43,NW,315,8.5,8.5,49,0.00,,---,0.00,VWS V14.01,2013-02-18 21:57:00,
2013-02-18 14:58:00,34.2,17.0,26.43,North,0,5.4,8.5,49,0.00,,---,0.00,VWS V14.01,2013-02-18 21:58:00,
2013-02-18 14:59:00,33.8,16.7,26.43,WNW,292,10.3,10.3,49,0.00,,---,0.00,VWS V14.01,2013-02-18 21:59:00,
2013-02-18 15:00:00,34.2,17.0,26.43,NNE,22,6.5,10.3,49,0.00,,---,0.00,VWS V14.01,2013-02-18 22:00:00,
2013-02-18 15:01:00,34.0,16.8,26.43,NE,45,10.5,10.5,49,0.00,,---,0.00,VWS V14.01,2013-02-18 22:01:00,
2013-02-18 15:02:00,33.6,16.5,26.43,NNE,22,7.8,10.5,49,0.00,,---,0.00,VWS V14.01,2013-02-18 22:02:00,
2013-02-18 15:03:00,33.8,16.2,26.43,NW,315,9.2,9.2,48,0.00,,---,0.00,VWS V14.01,2013-02-18 22:03:00,
2013-02-18 15:04:00,33.8,16.7,26.43,NNW,338,6.0,9.2,49,0.00,,---,0.00,VWS V14.01,2013-02-18 22:04:00,
2013-02-18 15:05:00,34.0,16.8,26.43,NW,315,10.7,10.7,49,0.00,,---,0.00,VWS V14.01,2013-02-18 22:05:00,
2013-02-18 15:06:00,33.8,16.7,26.43,NNW,338,12.1,12.1,49,0.00,,---,0.00,VWS V14.01,2013-02-18 22:06:00,
2013-02-18 15:07:00,33.6,16.5,26.43,NE,45,17.7,17.7,49,0.00,,---,0.00,VWS V14.01,2013-02-18 22:07:00,
2013-02-18 15:08:00,33.4,16.4,26.43,NNE,22,5.6,17.7,49,0.00,,---,0.00,VWS V14.01,2013-02-18 22:08:00,
2013-02-18 15:09:00,33.3,16.2,26.43,North,0,9.2,9.2,49,0.00,,---,0.00,VWS V14.01,2013-02-18 22:09:00,
2013-02-18 15:10:00,33.4,16.4,26.43,NW,315,13.9,13.9,49,0.00,,---,0.00,VWS V14.01,2013-02-18 22:10:00,
2013-02-18 15:11:00,33.3,16.2,26.43,North,0,7.4,13.9,49,0.00,,---,0.00,VWS V14.01,2013-02-18 22:11:00,
2013-02-18 15:12:00,33.1,16.0,26.43,NNW,338,6.0,7.4,49,0.00,,---,0.00,VWS V14.01,2013-02-18 22:12:00,
2013-02-18 15:13:00,33.3,16.2,26.43,NW,315,7.6,7.6,49,0.00,,---,0.00,VWS V14.01,2013-02-18 22:13:00,
2013-02-18 15:14:00,33.6,16.5,26.43,NW,315,10.3,10.3,49,0.00,,---,0.00,VWS V14.01,2013-02-18 22:14:00,
2013-02-18 15:15:00,33.3,16.2,26.43,NW,315,10.3,10.3,49,0.00,,---,0.00,VWS V14.01,2013-02-18 22:15:00,
2013-02-18 15:16:00,33.4,16.4,26.43,WNW,292,9.0,10.3,49,0.00,,---,0.00,VWS V14.01,2013-02-18 22:16:00,
2013-02-18 15:17:00,33.3,16.2,26.43,NNW,338,10.5,10.5,49,0.00,,---,0.00,VWS V14.01,2013-02-18 22:17:00,
2013-02-18 15:18:00,33.3,16.2,26.43,WNW,292,7.2,10.5,49,0.00,,---,0.00,VWS V14.01,2013-02-18 22:18:00,
2013-02-18 15:19:00,32.9,15.9,26.43,NW,315,6.0,7.2,49,0.00,,---,0.00,VWS V14.01,2013-02-18 22:19:00,
2013-02-18 15:20:00,33.1,16.0,26.43,North,0,15.2,15.2,49,0.00,,---,0.00,VWS V14.01,2013-02-18 22:20:00,
2013-02-18 15:21:00,33.1,16.0,26.43,NNW,338,13.0,15.2,49,0.00,,---,0.00,VWS V14.01,2013-02-18 22:21:00,
2013-02-18 15:22:00,33.3,16.2,26.43,NNW,338,12.3,13.0,49,0.00,,---,0.00,VWS V14.01,2013-02-18 22:22:00,
2013-02-18 15:23:00,33.3,16.2,26.43,NW,315,7.4,12.3,49,0.00,,---,0.00,VWS V14.01,2013-02-18 22:23:00,
2013-02-18 15:24:00,33.4,16.4,26.43,WSW,248,8.5,8.5,49,0.00,,---,0.00,VWS V14.01,2013-02-18 22:24:00,
2013-02-18 15:25:00,33.4,16.4,26.43,North,0,6.3,8.5,49,0.00,,---,0.00,VWS V14.01,2013-02-18 22:25:00,
2013-02-18 15:26:00,33.6,16.5,26.43,NNE,22,8.7,8.7,49,0.00,,---,0.00,VWS V14.01,2013-02-18 22:26:00,
2013-02-18 15:27:00,33.6,16.5,26.43,North,0,4.0,8.7,49,0.00,,---,0.00,VWS V14.01,2013-02-18 22:27:00,
2013-02-18 15:28:00,33.6,16.5,26.43,NNE,22,10.5,10.5,49,0.00,,---,0.00,VWS V14.01,2013-02-18 22:28:00,
2013-02-18 15:29:00,33.6,16.5,26.43,WNW,292,13.0,13.0,49,0.00,,---,0.00,VWS V14.01,2013-02-18 22:29:00,
2013-02-18 15:30:00,33.4,15.9,26.43,North,0,8.7,13.0,48,0.00,,---,0.00,VWS V14.01,2013-02-18 22:30:00,
2013-02-18 15:31:00,33.8,16.2,26.43,NNW,338,5.6,8.7,48,0.00,,---,0.00,VWS V14.01,2013-02-18 22:31:00,
2013-02-18 15:32:00,33.8,16.2,26.43,NNW,338,5.4,5.6,48,0.00,,---,0.00,VWS V14.01,2013-02-18 22:32:00,
2013-02-18 15:33:00,33.8,16.2,26.43,NNW,338,12.1,12.1,48,0.00,,---,0.00,VWS V14.01,2013-02-18 22:33:00,
2013-02-18 15:34:00,34.0,16.4,26.43,WNW,292,6.0,12.1,48,0.00,,---,0.00,VWS V14.01,2013-02-18 22:34:00,
2013-02-18 15:35:00,34.0,16.4,26.43,North,0,8.1,8.1,48,0.00,,---,0.00,VWS V14.01,2013-02-18 22:35:00,
2013-02-18 15:36:00,34.0,16.4,26.43,NNE,22,6.0,8.1,48,0.00,,---,0.00,VWS V14.01,2013-02-18 22:36:00,
2013-02-18 15:37:00,34.2,16.5,26.43,NW,315,5.6,6.0,48,0.00,,---,0.00,VWS V14.01,2013-02-18 22:37:00,
2013-02-18 15:38:00,34.2,16.5,26.43,NE,45,4.3,5.6,48,0.00,,---,0.00,VWS V14.01,2013-02-18 22:38:00,
2013-02-18 15:39:00,34.2,16.5,26.43,NW,315,9.8,9.8,48,0.00,,---,0.00,VWS V14.01,2013-02-18 22:39:00,
2013-02-18 15:40:00,34.0,16.4,26.43,North,0,12.1,12.1,48,0.00,,---,0.00,VWS V14.01,2013-02-18 22:40:00,
2013-02-18 15:41:00,34.0,16.4,26.43,WNW,292,5.6,12.1,48,0.00,,---,0.00,VWS V14.01,2013-02-18 22:41:00,
2013-02-18 15:42:00,34.0,16.4,26.43,NNW,338,12.3,12.3,48,0.00,,---,0.00,VWS V14.01,2013-02-18 22:42:00,
2013-02-18 15:43:00,33.6,16.0,26.43,NNW,338,8.1,12.3,48,0.00,,---,0.00,VWS V14.01,2013-02-18 22:43:00,
2013-02-18 15:44:00,33.3,15.7,26.43,North,0,9.8,9.8,48,0.00,,---,0.00,VWS V14.01,2013-02-18 22:44:00,
2013-02-18 15:45:00,33.4,15.9,26.43,NW,315,6.5,9.8,48,0.00,,---,0.00,VWS V14.01,2013-02-18 22:45:00,
2013-02-18 15:46:00,33.8,16.2,26.43,North,0,12.3,12.3,48,0.00,,---,0.00,VWS V14.01,2013-02-18 22:46:00,
2013-02-18 15:47:00,33.6,16.0,26.43,NNE,22,11.0,12.3,48,0.00,,---,0.00,VWS V14.01,2013-02-18 22:47:00,
2013-02-18 15:48:00,33.8,16.2,26.43,North,0,12.5,12.5,48,0.00,,---,0.00,VWS V14.01,2013-02-18 22:48:00,
2013-02-18 15:49:00,33.8,16.2,26.43,NNW,338,8.1,12.5,48,0.00,,---,0.00,VWS V14.01,2013-02-18 22:49:00,
2013-02-18 15:50:00,33.4,16.4,26.43,NNW,338,11.0,11.0,49,0.00,,---,0.00,VWS V14.01,2013-02-18 22:50:00,
2013-02-18 15:51:00,32.9,15.9,26.43,North,0,6.3,11.0,49,0.00,,---,0.00,VWS V14.01,2013-02-18 22:51:00,
2013-02-18 15:52:00,33.1,16.0,26.43,NNE,22,6.3,6.3,49,0.00,,---,0.00,VWS V14.01,2013-02-18 22:52:00,
2013-02-18 15:53:00,33.3,16.2,26.43,NNW,338,7.8,7.8,49,0.00,,---,0.00,VWS V14.01,2013-02-18 22:53:00,
2013-02-18 15:54:00,33.3,16.2,26.43,North,0,4.0,7.8,49,0.00,,---,0.00,VWS V14.01,2013-02-18 22:54:00,
2013-02-18 15:55:00,33.3,16.2,26.43,North,0,5.4,5.4,49,0.00,,---,0.00,VWS V14.01,2013-02-18 22:55:00,
2013-02-18 15:56:00,33.1,16.0,26.43,NW,315,5.6,5.6,49,0.00,,---,0.00,VWS V14.01,2013-02-18 22:56:00,
2013-02-18 15:57:00,33.1,16.0,26.43,North,0,5.6,5.6,49,0.00,,---,0.00,VWS V14.01,2013-02-18 22:57:00,
2013-02-18 15:58:00,32.7,15.7,26.43,NNW,338,6.9,6.9,49,0.00,,---,0.00,VWS V14.01,2013-02-18 22:58:00,
2013-02-18 15:59:00,31.8,14.9,26.43,NNW,338,4.0,6.9,49,0.00,,---,0.00,VWS V14.01,2013-02-18 22:59:00,
2013-02-18 16:00:00,31.5,14.5,26.43,North,0,8.7,8.7,49,0.00,,---,0.00,VWS V14.01,2013-02-18 23:00:00,
2013-02-18 16:01:00,31.1,14.2,26.43,NNE,22,7.4,8.7,49,0.00,,---,0.00,VWS V14.01,2013-02-18 23:01:00,
2013-02-18 16:02:00,31.1,14.6,26.43,NW,315,6.0,7.4,50,0.00,,---,0.00,VWS V14.01,2013-02-18 23:02:00,
2013-02-18 16:03:00,30.7,14.3,26.43,North,0,7.8,7.8,50,0.00,,---,0.00,VWS V14.01,2013-02-18 23:03:00,
2013-02-18 16:04:00,30.7,14.3,26.43,NNW,338,4.3,7.8,50,0.00,,---,0.00,VWS V14.01,2013-02-18 23:04:00,
2013-02-18 16:05:00,30.4,14.0,26.43,NNW,338,4.7,4.7,50,0.00,,---,0.00,VWS V14.01,2013-02-18 23:05:00,
2013-02-18 16:06:00,30.0,13.6,26.43,NE,45,10.1,10.1,50,0.00,,---,0.00,VWS V14.01,2013-02-18 23:06:00,
2013-02-18 16:07:00,29.8,13.5,26.43,WNW,292,3.6,10.1,50,0.00,,---,0.00,VWS V14.01,2013-02-18 23:07:00,
2013-02-18 16:08:00,29.7,13.3,26.43,NW,315,7.4,7.4,50,0.00,,---,0.00,VWS V14.01,2013-02-18 23:08:00,
2013-02-18 16:09:00,29.7,13.3,26.43,East,90,6.7,7.4,50,0.00,,---,0.00,VWS V14.01,2013-02-18 23:09:00,
2013-02-18 16:10:00,29.5,13.6,26.43,NE,45,9.6,9.6,51,0.00,,---,0.00,VWS V14.01,2013-02-18 23:10:00,
2013-02-18 16:11:00,29.5,13.6,26.43,North,0,3.4,9.6,51,0.00,,---,0.00,VWS V14.01,2013-02-18 23:11:00,
2013-02-18 16:12:00,29.5,13.6,26.43,South,180,8.1,8.1,51,0.00,,---,0.00,VWS V14.01,2013-02-18 23:12:00,
2013-02-18 16:13:00,29.5,13.6,26.43,NNW,338,2.9,8.1,51,0.00,,---,0.00,VWS V14.01,2013-02-18 23:13:00,
2013-02-18 16:14:00,29.3,13.4,26.43,NNW,338,6.7,6.7,51,0.00,,---,0.00,VWS V14.01,2013-02-18 23:14:00,
2013-02-18 16:15:00,29.3,13.4,26.43,East,90,4.3,6.7,51,0.00,,---,0.00,VWS V14.01,2013-02-18 23:15:00,
2013-02-18 16:16:00,29.3,13.4,26.43,NW,315,6.3,6.3,51,0.00,,---,0.00,VWS V14.01,2013-02-18 23:16:00,
2013-02-18 16:17:00,29.3,13.4,26.43,NNW,338,3.4,6.3,51,0.00,,---,0.00,VWS V14.01,2013-02-18 23:17:00,
2013-02-18 16:18:00,29.1,13.7,26.43,NW,315,3.4,3.4,52,0.00,,---,0.00,VWS V14.01,2013-02-18 23:18:00,
2013-02-18 16:19:00,29.1,13.7,26.43,ENE,68,6.3,6.3,52,0.00,,---,0.00,VWS V14.01,2013-02-18 23:19:00,
2013-02-18 16:20:00,29.1,13.7,26.43,WNW,292,11.2,11.2,52,0.00,,---,0.00,VWS V14.01,2013-02-18 23:20:00,
2013-02-18 16:21:00,28.8,13.4,26.43,North,0,3.8,11.2,52,0.00,,---,0.00,VWS V14.01,2013-02-18 23:21:00,
2013-02-18 16:22:00,28.6,13.2,26.43,North,0,3.8,3.8,52,0.00,,---,0.00,VWS V14.01,2013-02-18 23:22:00,
2013-02-18 16:23:00,28.6,13.2,26.43,NNE,22,8.1,8.1,52,0.00,,---,0.00,VWS V14.01,2013-02-18 23:23:00,
2013-02-18 16:24:00,28.6,13.2,26.43,NNW,338,3.6,8.1,52,0.00,,---,0.00,VWS V14.01,2013-02-18 23:24:00,
2013-02-18 16:25:00,28.6,13.2,26.43,NNE,22,6.3,6.3,52,0.00,,---,0.00,VWS V14.01,2013-02-18 23:25:00,
2013-02-18 16:26:00,28.4,13.5,26.43,NNE,22,7.6,7.6,53,0.00,,---,0.00,VWS V14.01,2013-02-18 23:26:00,
2013-02-18 16:27:00,28.4,13.5,26.43,North,0,4.0,7.6,53,0.00,,---,0.00,VWS V14.01,2013-02-18 23:27:00,
2013-02-18 16:28:00,28.4,13.5,26.43,NW,315,4.7,4.7,53,0.00,,---,0.00,VWS V14.01,2013-02-18 23:28:00,
2013-02-18 16:29:00,28.4,13.5,26.43,NNW,338,4.0,4.7,53,0.00,,---,0.00,VWS V14.01,2013-02-18 23:29:00,
2013-02-18 16:30:00,28.2,13.7,26.43,NNW,338,4.0,4.0,54,0.00,,---,0.00,VWS V14.01,2013-02-18 23:30:00,
2013-02-18 16:31:00,28.4,13.9,26.43,NNW,338,4.0,4.0,54,0.00,,---,0.00,VWS V14.01,2013-02-18 23:31:00,
2013-02-18 16:32:00,28.4,13.9,26.43,WNW,292,6.3,6.3,54,0.00,,---,0.00,VWS V14.01,2013-02-18 23:32:00,
2013-02-18 16:33:00,28.4,13.9,26.43,North,0,4.0,6.3,54,0.00,,---,0.00,VWS V14.01,2013-02-18 23:33:00,
2013-02-18 16:34:00,28.6,14.1,26.43,WNW,292,8.5,8.5,54,0.00,,---,0.00,VWS V14.01,2013-02-18 23:34:00,
2013-02-18 16:35:00,29.1,14.6,26.43,NNW,338,8.1,8.5,54,0.00,,---,0.00,VWS V14.01,2013-02-18 23:35:00,
2013-02-18 16:36:00,28.9,14.4,26.43,NW,315,4.0,8.1,54,0.00,,---,0.00,VWS V14.01,2013-02-18 23:36:00,
2013-02-18 16:37:00,29.8,15.2,26.43,ENE,68,3.6,4.0,54,0.00,,---,0.00,VWS V14.01,2013-02-18 23:37:00,
2013-02-18 16:38:00,30.0,15.4,26.43,NNW,338,5.6,5.6,54,0.00,,---,0.00,VWS V14.01,2013-02-18 23:38:00,
2013-02-18 16:39:00,30.0,15.4,26.43,WNW,292,5.4,5.6,54,0.00,,---,0.00,VWS V14.01,2013-02-18 23:39:00,
2013-02-18 16:40:00,29.7,15.1,26.43,NW,315,5.8,5.8,54,0.00,,---,0.00,VWS V14.01,2013-02-18 23:40:00,
2013-02-18 16:41:00,30.2,15.6,26.43,NNW,338,5.4,5.8,54,0.00,,---,0.00,VWS V14.01,2013-02-18 23:41:00,
2013-02-18 16:42:00,30.6,15.5,26.43,NNE,22,3.8,5.4,53,0.00,,---,0.00,VWS V14.01,2013-02-18 23:42:00,
2013-02-18 16:43:00,30.7,15.6,26.43,NNE,22,4.3,4.3,53,0.00,,---,0.00,VWS V14.01,2013-02-18 23:43:00,
2013-02-18 16:44:00,31.3,16.1,26.43,North,0,6.3,6.3,53,0.00,,---,0.00,VWS V14.01,2013-02-18 23:44:00,
2013-02-18 16:45:00,31.3,16.1,26.43,NNE,22,5.6,6.3,53,0.00,,---,0.00,VWS V14.01,2013-02-18 23:45:00,
2013-02-18 16:46:00,31.6,16.5,26.43,NNE,22,3.6,5.6,53,0.00,,---,0.00,VWS V14.01,2013-02-18 23:46:00,
2013-02-18 16:47:00,31.8,16.6,26.43,WNW,292,3.6,3.6,53,0.00,,---,0.00,VWS V14.01,2013-02-18 23:47:00,
2013-02-18 16:48:00,31.8,16.6,26.46,NW,315,6.0,6.0,53,0.00,,---,0.00,VWS V14.01,2013-02-18 23:48:00,
2013-02-18 16:49:00,31.8,16.6,26.46,NNE,22,12.1,12.1,53,0.00,,---,0.00,VWS V14.01,2013-02-18 23:49:00,
2013-02-18 16:50:00,31.8,16.6,26.46,NNE,22,4.5,12.1,53,0.00,,---,0.00,VWS V14.01,2013-02-18 23:50:00,
2013-02-18 16:51:00,31.1,16.0,26.46,ESE,112,7.8,7.8,53,0.00,,---,0.00,VWS V14.01,2013-02-18 23:51:00,
2013-02-18 16:52:00,30.2,15.6,26.46,ESE,112,7.8,7.8,54,0.00,,---,0.00,VWS V14.01,2013-02-18 23:52:00,
2013-02-18 16:53:00,29.8,15.2,26.46,NE,45,6.5,7.8,54,0.00,,---,0.00,VWS V14.01,2013-02-18 23:53:00,
2013-02-18 16:54:00,29.8,15.2,26.46,NNW,338,7.6,7.6,54,0.00,,---,0.00,VWS V14.01,2013-02-18 23:54:00,
2013-02-18 16:55:00,29.3,14.7,26.46,West,270,6.3,7.6,54,0.00,,---,0.00,VWS V14.01,2013-02-18 23:55:00,
2013-02-18 16:56:00,29.1,15.0,26.46,NE,45,5.4,6.3,55,0.00,,---,0.00,VWS V14.01,2013-02-18 23:56:00,
2013-02-18 16:57:00,28.8,14.6,26.46,NE,45,7.6,7.6,55,0.00,,---,0.00,VWS V14.01,2013-02-18 23:57:00,
2013-02-18 16:58:00,28.8,14.6,26.46,North,0,7.6,7.6,55,0.00,,---,0.00,VWS V14.01,2013-02-18 23:58:00,
2013-02-18 16:59:00,28.6,14.5,26.46,NNE,22,5.6,7.6,55,0.00,,---,0.00,VWS V14.01,2013-02-18 23:59:00,
2013-02-18 17:00:00,29.1,15.4,26.46,WNW,292,10.5,10.5,56,0.00,,---,0.00,VWS V14.01,2013-02-19 00:00:00,
2013-02-18 17:01:00,29.5,15.7,26.46,NNE,22,8.5,10.5,56,0.00,,---,0.00,VWS V14.01,2013-02-19 00:01:00,
2013-02-18 17:02:00,29.7,15.9,26.46,NNW,338,3.4,8.5,56,0.00,,---,0.00,VWS V14.01,2013-02-19 00:02:00,
2013-02-18 17:03:00,29.7,15.9,26.46,North,0,6.0,6.0,56,0.00,,---,0.00,VWS V14.01,2013-02-19 00:03:00,
2013-02-18 17:04:00,29.8,16.1,26.46,West,270,2.9,6.0,56,0.00,,---,0.00,VWS V14.01,2013-02-19 00:04:00,
2013-02-18 17:05:00,29.7,15.9,26.46,ENE,68,6.3,6.3,56,0.00,,---,0.00,VWS V14.01,2013-02-19 00:05:00,
2013-02-18 17:06:00,29.8,16.1,26.46,NW,315,4.5,6.3,56,0.00,,---,0.00,VWS V14.01,2013-02-19 00:06:00,
2013-02-18 17:07:00,29.5,15.7,26.46,North,0,7.4,7.4,56,0.00,,---,0.00,VWS V14.01,2013-02-19 00:07:00,
2013-02-18 17:08:00,29.1,15.4,26.46,NW,315,5.4,7.4,56,0.00,,---,0.00,VWS V14.01,2013-02-19 00:08:00,
2013-02-18 17:09:00,28.6,14.9,26.46,NNW,338,6.5,6.5,56,0.00,,---,0.00,VWS V14.01,2013-02-19 00:09:00,
2013-02-18 17:10:00,28.4,14.7,26.46,East,90,4.7,6.5,56,0.00,,---,0.00,VWS V14.01,2013-02-19 00:10:00,
2013-02-18 17:11:00,28.2,14.6,26.46,NNE,22,8.5,8.5,56,0.00,,---,0.00,VWS V14.01,2013-02-19 00:11:00,
2013-02-18 17:12:00,27.9,14.2,26.46,NW,315,3.8,8.5,56,0.00,,---,0.00,VWS V14.01,2013-02-19 00:12:00,
2013-02-18 17:13:00,27.9,14.2,26.46,NNE,22,4.3,4.3,56,0.00,,---,0.00,VWS V14.01,2013-02-19 00:13:00,
2013-02-18 17:14:00,27.5,13.9,26.46,NNW,338,9.6,9.6,56,0.00,,---,0.00,VWS V14.01,2013-02-19 00:14:00,
2013-02-18 17:15:00,27.3,13.7,26.46,NNW,338,5.8,9.6,56,0.00,,---,0.00,VWS V14.01,2013-02-19 00:15:00,
2013-02-18 17:16:00,27.3,13.7,26.46,NNE,22,3.8,5.8,56,0.00,,---,0.00,VWS V14.01,2013-02-19 00:16:00,
2013-02-18 17:17:00,27.1,13.9,26.46,NW,315,9.8,9.8,57,0.00,,---,0.00,VWS V14.01,2013-02-19 00:17:00,
2013-02-18 17:18:00,27.1,13.9,26.46,North,0,3.4,9.8,57,0.00,,---,0.00,VWS V14.01,2013-02-19 00:18:00,
2013-02-18 17:19:00,27.1,13.9,26.46,NE,45,4.0,4.0,57,0.00,,---,0.00,VWS V14.01,2013-02-19 00:19:00,
2013-02-18 17:20:00,27.0,13.8,26.46,North,0,8.7,8.7,57,0.00,,---,0.00,VWS V14.01,2013-02-19 00:20:00,
2013-02-18 17:21:00,27.0,13.8,26.46,North,0,4.9,8.7,57,0.00,,---,0.00,VWS V14.01,2013-02-19 00:21:00,
2013-02-18 17:22:00,26.8,13.6,26.46,NNE,22,12.3,12.3,57,0.00,,---,0.00,VWS V14.01,2013-02-19 00:22:00,
2013-02-18 17:23:00,26.8,13.6,26.46,NNW,338,6.5,12.3,57,0.00,,---,0.00,VWS V14.01,2013-02-19 00:23:00,
2013-02-18 17:24:00,26.6,13.4,26.46,West,270,4.9,6.5,57,0.00,,---,0.00,VWS V14.01,2013-02-19 00:24:00,
2013-02-18 17:25:00,26.6,13.4,26.46,East,90,4.0,4.9,57,0.00,,---,0.00,VWS V14.01,2013-02-19 00:25:00,
2013-02-18 17:26:00,26.6,13.8,26.46,NNW,338,10.7,10.7,58,0.00,,---,0.00,VWS V14.01,2013-02-19 00:26:00,
2013-02-18 17:27:00,26.4,13.7,26.46,NNE,22,3.4,10.7,58,0.00,,---,0.00,VWS V14.01,2013-02-19 00:27:00,
2013-02-18 17:28:00,26.4,13.7,26.46,North,0,4.7,4.7,58,0.00,,---,0.00,VWS V14.01,2013-02-19 00:28:00,
2013-02-18 17:29:00,26.2,13.5,26.46,North,0,8.5,8.5,58,0.00,,---,0.00,VWS V14.01,2013-02-19 00:29:00,
2013-02-18 17:30:00,26.1,13.3,26.46,North,0,7.2,8.5,58,0.00,,---,0.00,VWS V14.01,2013-02-19 00:30:00,
2013-02-18 17:31:00,26.1,13.3,26.46,NNE,22,5.8,7.2,58,0.00,,---,0.00,VWS V14.01,2013-02-19 00:31:00,
2013-02-18 17:32:00,26.1,13.3,26.46,NNW,338,6.9,6.9,58,0.00,,---,0.00,VWS V14.01,2013-02-19 00:32:00,
2013-02-18 17:33:00,26.1,13.3,26.49,WNW,292,6.0,6.9,58,0.00,,---,0.00,VWS V14.01,2013-02-19 00:33:00,
2013-02-18 17:34:00,26.1,13.3,26.49,NW,315,6.5,6.5,58,0.00,,---,0.00,VWS V14.01,2013-02-19 00:34:00,
2013-02-18 17:35:00,25.9,13.1,26.49,NNW,338,5.6,6.5,58,0.00,,---,0.00,VWS V14.01,2013-02-19 00:35:00,
2013-02-18 17:36:00,25.9,13.5,26.49,NW,315,11.2,11.2,59,0.00,,---,0.00,VWS V14.01,2013-02-19 00:36:00,
2013-02-18 17:37:00,25.9,13.5,26.49,North,0,2.7,11.2,59,0.00,,---,0.00,VWS V14.01,2013-02-19 00:37:00,
2013-02-18 17:38:00,25.7,13.4,26.49,WNW,292,6.5,6.5,59,0.00,,---,0.00,VWS V14.01,2013-02-19 00:38:00,
2013-02-18 17:39:00,25.7,13.4,26.49,NW,315,5.8,6.5,59,0.00,,---,0.00,VWS V14.01,2013-02-19 00:39:00,
2013-02-18 17:40:00,25.5,13.2,26.49,NNW,338,3.4,5.8,59,0.00,,---,0.00,VWS V14.01,2013-02-19 00:40:00,
2013-02-18 17:41:00,25.5,13.2,26.49,NNE,22,3.4,3.4,59,0.00,,---,0.00,VWS V14.01,2013-02-19 00:41:00,
2013-02-18 17:42:00,25.5,13.2,26.49,West,270,3.6,3.6,59,0.00,,---,0.00,VWS V14.01,2013-02-19 00:42:00,
2013-02-18 17:43:00,25.3,13.0,26.49,North,0,5.4,5.4,59,0.00,,---,0.00,VWS V14.01,2013-02-19 00:43:00,
2013-02-18 17:44:00,25.3,13.0,26.49,NNW,338,5.6,5.6,59,0.00,,---,0.00,VWS V14.01,2013-02-19 00:44:00,
2013-02-18 17:45:00,25.3,13.0,26.49,NE,45,7.2,7.2,59,0.00,,---,0.00,VWS V14.01,2013-02-19 00:45:00,
2013-02-18 17:46:00,25.2,12.9,26.49,North,0,4.0,7.2,59,0.00,,---,0.00,VWS V14.01,2013-02-19 00:46:00,
2013-02-18 17:47:00,25.2,12.9,26.49,NNE,22,6.5,6.5,59,0.00,,---,0.00,VWS V14.01,2013-02-19 00:47:00,
2013-02-18 17:48:00,25.2,12.9,26.49,NNW,338,3.8,6.5,59,0.00,,---,0.00,VWS V14.01,2013-02-19 00:48:00,
2013-02-18 17:49:00,25.2,12.9,26.49,NW,315,6.3,6.3,59,0.00,,---,0.00,VWS V14.01,2013-02-19 00:49:00,
2013-02-18 17:50:00,25.0,12.7,26.49,NNW,338,2.7,6.3,59,0.00,,---,0.00,VWS V14.01,2013-02-19 00:50:00,
2013-02-18 17:51:00,25.0,12.7,26.49,North,0,2.9,2.9,59,0.00,,---,0.00,VWS V14.01,2013-02-19 00:51:00,
2013-02-18 17:52:00,25.0,12.7,26.49,North,0,3.8,3.8,59,0.00,,---,0.00,VWS V14.01,2013-02-19 00:52:00,
2013-02-18 17:53:00,24.8,12.9,26.49,WNW,292,5.8,5.8,60,0.00,,---,0.00,VWS V14.01,2013-02-19 00:53:00,
2013-02-18 17:54:00,24.8,12.9,26.49,North,0,3.8,5.8,60,0.00,,---,0.00,VWS V14.01,2013-02-19 00:54:00,
2013-02-18 17:55:00,24.8,12.9,26.49,NNW,338,7.4,7.4,60,0.00,,---,0.00,VWS V14.01,2013-02-19 00:55:00,
2013-02-18 17:56:00,24.8,12.9,26.49,NNW,338,2.9,7.4,60,0.00,,---,0.00,VWS V14.01,2013-02-19 00:56:00,
2013-02-18 17:57:00,24.6,12.7,26.49,NE,45,3.8,3.8,60,0.00,,---,0.00,VWS V14.01,2013-02-19 00:57:00,
2013-02-18 17:58:00,24.6,12.7,26.49,NNW,338,4.0,4.0,60,0.00,,---,0.00,VWS V14.01,2013-02-19 00:58:00,
2013-02-18 17:59:00,24.6,12.7,26.49,NE,45,2.9,4.0,60,0.00,,---,0.00,VWS V14.01,2013-02-19 00:59:00,
2013-02-18 18:00:00,24.6,12.7,26.49,NNW,338,4.0,4.0,60,0.00,,---,0.00,VWS V14.01,2013-02-19 01:00:00,
2013-02-18 18:01:00,24.6,12.7,26.49,NNW,338,3.6,4.0,60,0.00,,---,0.00,VWS V14.01,2013-02-19 01:01:00,
2013-02-18 18:02:00,24.6,12.7,26.49,NW,315,3.6,3.6,60,0.00,,---,0.00,VWS V14.01,2013-02-19 01:02:00,
2013-02-18 18:03:00,24.6,12.7,26.49,NW,315,5.8,5.8,60,0.00,,---,0.00,VWS V14.01,2013-02-19 01:03:00,
2013-02-18 18:04:00,24.6,13.1,26.49,NNW,338,4.0,5.8,61,0.00,,---,0.00,VWS V14.01,2013-02-19 01:04:00,
2013-02-18 18:05:00,24.4,12.9,26.49,North,0,2.7,4.0,61,0.00,,---,0.00,VWS V14.01,2013-02-19 01:05:00,
2013-02-18 18:06:00,24.4,12.9,26.49,NNW,338,3.4,3.4,61,0.00,,---,0.00,VWS V14.01,2013-02-19 01:06:00,
2013-02-18 18:07:00,24.4,12.9,26.49,NNE,22,3.8,3.8,61,0.00,,---,0.00,VWS V14.01,2013-02-19 01:07:00,
2013-02-18 18:08:00,24.4,12.9,26.49,NNW,338,4.0,4.0,61,0.00,,---,0.00,VWS V14.01,2013-02-19 01:08:00,
2013-02-18 18:09:00,24.4,12.9,26.49,NNW,338,4.0,4.0,61,0.00,,---,0.00,VWS V14.01,2013-02-19 01:09:00,
2013-02-18 18:10:00,24.4,12.9,26.49,NNW,338,4.0,4.0,61,0.00,,---,0.00,VWS V14.01,2013-02-19 01:10:00,
2013-02-18 18:11:00,24.4,12.9,26.49,NNE,22,3.4,4.0,61,0.00,,---,0.00,VWS V14.01,2013-02-19 01:11:00,
2013-02-18 18:12:00,24.4,12.9,26.49,NW,315,5.8,5.8,61,0.00,,---,0.00,VWS V14.01,2013-02-19 01:12:00,
2013-02-18 18:13:00,24.4,12.9,26.49,NNW,338,5.6,5.8,61,0.00,,---,0.00,VWS V14.01,2013-02-19 01:13:00,
2013-02-18 18:14:00,24.3,12.8,26.49,NNW,338,2.9,5.6,61,0.00,,---,0.00,VWS V14.01,2013-02-19 01:14:00,
2013-02-18 18:15:00,24.3,12.8,26.49,North,0,4.3,4.3,61,0.00,,---,0.00,VWS V14.01,2013-02-19 01:15:00,
2013-02-18 18:16:00,24.3,12.8,26.49,North,0,3.8,4.3,61,0.00,,---,0.00,VWS V14.01,2013-02-19 01:16:00,
2013-02-18 18:17:00,24.3,12.8,26.49,NW,315,3.1,3.8,61,0.00,,---,0.00,VWS V14.01,2013-02-19 01:17:00,
2013-02-18 18:18:00,24.3,12.8,26.49,NNW,338,3.4,3.4,61,0.00,,---,0.00,VWS V14.01,2013-02-19 01:18:00,
2013-02-18 18:19:00,24.3,12.8,26.49,NNW,338,3.4,3.4,61,0.00,,---,0.00,VWS V14.01,2013-02-19 01:19:00,
2013-02-18 18:20:00,24.1,12.6,26.49,NE,45,4.0,4.0,61,0.00,,---,0.00,VWS V14.01,2013-02-19 01:20:00,
2013-02-18 18:21:00,24.1,12.6,26.49,NNW,338,2.2,4.0,61,0.00,,---,0.00,VWS V14.01,2013-02-19 01:21:00,
2013-02-18 18:22:00,24.1,12.6,26.49,NNW,338,2.9,2.9,61,0.00,,---,0.00,VWS V14.01,2013-02-19 01:22:00,
2013-02-18 18:23:00,23.9,12.4,26.49,NNW,338,2.9,2.9,61,0.00,,---,0.00,VWS V14.01,2013-02-19 01:23:00,
2013-02-18 18:24:00,23.9,12.4,26.49,NNW,338,2.5,2.9,61,0.00,,---,0.00,VWS V14.01,2013-02-19 01:24:00,
2013-02-18 18:25:00,23.9,12.4,26.49,NNE,22,2.5,2.5,61,0.00,,---,0.00,VWS V14.01,2013-02-19 01:25:00,
2013-02-18 18:26:00,23.9,12.4,26.49,NNE,22,5.4,5.4,61,0.00,,---,0.00,VWS V14.01,2013-02-19 01:26:00,
2013-02-18 18:27:00,23.7,12.2,26.49,NW,315,3.8,5.4,61,0.00,,---,0.00,VWS V14.01,2013-02-19 01:27:00,
2013-02-18 18:28:00,23.5,12.1,26.49,NNE,22,3.4,3.8,61,0.00,,---,0.00,VWS V14.01,2013-02-19 01:28:00,
2013-02-18 18:29:00,23.5,12.1,26.49,North,0,2.7,3.4,61,0.00,,---,0.00,VWS V14.01,2013-02-19 01:29:00,
2013-02-18 18:30:00,23.4,11.9,26.49,NNW,338,4.0,4.0,61,0.00,,---,0.00,VWS V14.01,2013-02-19 01:30:00,
2013-02-18 18:31:00,23.2,11.7,26.49,NNW,338,5.6,5.6,61,0.00,,---,0.00,VWS V14.01,2013-02-19 01:31:00,
2013-02-18 18:32:00,23.0,11.9,26.49,NNW,338,2.7,5.6,62,0.00,,---,0.00,VWS V14.01,2013-02-19 01:32:00,
2013-02-18 18:33:00,23.0,11.9,26.52,North,0,5.8,5.8,62,0.00,,---,0.00,VWS V14.01,2013-02-19 01:33:00,
2013-02-18 18:34:00,22.8,11.8,26.52,West,270,4.7,5.8,62,0.00,,---,0.00,VWS V14.01,2013-02-19 01:34:00,
2013-02-18 18:35:00,22.8,11.8,26.52,NNW,338,5.6,5.6,62,0.00,,---,0.00,VWS V14.01,2013-02-19 01:35:00,
2013-02-18 18:36:00,22.8,11.8,26.52,NNW,338,2.5,5.6,62,0.00,,---,0.00,VWS V14.01,2013-02-19 01:36:00,
2013-02-18 18:37:00,22.6,11.2,26.52,NW,315,5.8,5.8,61,0.00,,---,0.00,VWS V14.01,2013-02-19 01:37:00,
2013-02-18 18:38:00,22.5,11.4,26.52,NE,45,4.7,5.8,62,0.00,,---,0.00,VWS V14.01,2013-02-19 01:38:00,
2013-02-18 18:39:00,22.5,11.4,26.52,NNE,22,3.1,4.7,62,0.00,,---,0.00,VWS V14.01,2013-02-19 01:39:00,
2013-02-18 18:40:00,22.3,11.2,26.52,North,0,5.6,5.6,62,0.00,,---,0.00,VWS V14.01,2013-02-19 01:40:00,
2013-02-18 18:41:00,22.3,11.2,26.52,WNW,292,7.4,7.4,62,0.00,,---,0.00,VWS V14.01,2013-02-19 01:41:00,
2013-02-18 18:42:00,22.3,11.2,26.52,West,270,4.5,7.4,62,0.00,,---,0.00,VWS V14.01,2013-02-19 01:42:00,
2013-02-18 18:43:00,22.3,11.2,26.52,East,90,4.0,4.5,62,0.00,,---,0.00,VWS V14.01,2013-02-19 01:43:00,
2013-02-18 18:44:00,22.1,11.1,26.52,NNE,22,3.4,4.0,62,0.00,,---,0.00,VWS V14.01,2013-02-19 01:44:00,
2013-02-18 18:45:00,22.1,11.4,26.52,NW,315,4.9,4.9,63,0.00,,---,0.00,VWS V14.01,2013-02-19 01:45:00,
2013-02-18 18:46:00,22.1,11.4,26.52,North,0,2.9,4.9,63,0.00,,---,0.00,VWS V14.01,2013-02-19 01:46:00,
2013-02-18 18:47:00,21.9,11.3,26.52,NNE,22,5.4,5.4,63,0.00,,---,0.00,VWS V14.01,2013-02-19 01:47:00,
2013-02-18 18:48:00,21.9,11.3,26.49,North,0,2.9,5.4,63,0.00,,---,0.00,VWS V14.01,2013-02-19 01:48:00,
2013-02-18 18:49:00,21.9,11.3,26.49,NNE,22,3.1,3.1,63,0.00,,---,0.00,VWS V14.01,2013-02-19 01:49:00,
2013-02-18 18:50:00,21.9,11.3,26.49,NE,45,3.4,3.4,63,0.00,,---,0.00,VWS V14.01,2013-02-19 01:50:00,
2013-02-18 18:51:00,21.7,11.1,26.49,North,0,4.3,4.3,63,0.00,,---,0.00,VWS V14.01,2013-02-19 01:51:00,
2013-02-18 18:52:00,21.7,11.1,26.49,NNE,22,5.8,5.8,63,0.00,,---,0.00,VWS V14.01,2013-02-19 01:52:00,
2013-02-18 18:53:00,21.7,11.1,26.49,NNE,22,4.0,5.8,63,0.00,,---,0.00,VWS V14.01,2013-02-19 01:53:00,
2013-02-18 18:54:00,21.6,10.9,26.49,NNW,338,3.6,4.0,63,0.00,,---,0.00,VWS V14.01,2013-02-19 01:54:00,
2013-02-18 18:55:00,21.6,10.9,26.49,North,0,4.0,4.0,63,0.00,,---,0.00,VWS V14.01,2013-02-19 01:55:00,
2013-02-18 18:56:00,21.6,10.9,26.49,North,0,2.7,4.0,63,0.00,,---,0.00,VWS V14.01,2013-02-19 01:56:00,
2013-02-18 18:57:00,21.6,11.3,26.49,NNW,338,4.0,4.0,64,0.00,,---,0.00,VWS V14.01,2013-02-19 01:57:00,
2013-02-18 18:58:00,21.6,11.3,26.49,NNW,338,3.8,4.0,64,0.00,,---,0.00,VWS V14.01,2013-02-19 01:58:00,
2013-02-18 18:59:00,21.4,11.1,26.49,NNW,338,3.8,3.8,64,0.00,,---,0.00,VWS V14.01,2013-02-19 01:59:00,
2013-02-18 19:00:00,21.4,11.1,26.49,NNW,338,4.3,4.3,64,0.00,,---,0.00,VWS V14.01,2013-02-19 02:00:00,
2013-02-18 19:01:00,21.4,11.1,26.49,NNE,22,4.0,4.3,64,0.00,,---,0.00,VWS V14.01,2013-02-19 02:01:00,
2013-02-18 19:02:00,21.4,11.1,26.49,NNW,338,4.9,4.9,64,0.00,,---,0.00,VWS V14.01,2013-02-19 02:02:00,
2013-02-18 19:03:00,21.4,11.1,26.49,North,0,4.3,4.9,64,0.00,,---,0.00,VWS V14.01,2013-02-19 02:03:00,
2013-02-18 19:04:00,21.4,11.1,26.49,NW,315,3.8,4.3,64,0.00,,---,0.00,VWS V14.01,2013-02-19 02:04:00,
2013-02-18 19:05:00,21.2,11.3,26.49,North,0,3.8,3.8,65,0.00,,---,0.00,VWS V14.01,2013-02-19 02:05:00,
2013-02-18 19:06:00,21.2,11.3,26.49,NNE,22,2.9,3.8,65,0.00,,---,0.00,VWS V14.01,2013-02-19 02:06:00,
2013-02-18 19:07:00,21.2,11.3,26.49,NNW,338,3.6,3.6,65,0.00,,---,0.00,VWS V14.01,2013-02-19 02:07:00,
2013-02-18 19:08:00,21.2,11.3,26.49,NNE,22,4.3,4.3,65,0.00,,---,0.00,VWS V14.01,2013-02-19 02:08:00,
2013-02-18 19:09:00,21.2,11.3,26.49,North,0,4.5,4.5,65,0.00,,---,0.00,VWS V14.01,2013-02-19 02:09:00,
2013-02-18 19:10:00,21.2,11.3,26.49,North,0,2.7,4.5,65,0.00,,---,0.00,VWS V14.01,2013-02-19 02:10:00,
2013-02-18 19:11:00,21.2,11.3,26.49,NW,315,3.4,3.4,65,0.00,,---,0.00,VWS V14.01,2013-02-19 02:11:00,
2013-02-18 19:12:00,21.2,11.3,26.49,NE,45,4.7,4.7,65,0.00,,---,0.00,VWS V14.01,2013-02-19 02:12:00,
2013-02-18 19:13:00,21.2,11.3,26.49,NE,45,2.5,4.7,65,0.00,,---,0.00,VWS V14.01,2013-02-19 02:13:00,
2013-02-18 19:14:00,21.2,11.3,26.49,NW,315,3.8,3.8,65,0.00,,---,0.00,VWS V14.01,2013-02-19 02:14:00,
2013-02-18 19:15:00,21.2,11.3,26.49,NW,315,3.8,3.8,65,0.00,,---,0.00,VWS V14.01,2013-02-19 02:15:00,
2013-02-18 19:16:00,21.2,11.6,26.49,NNW,338,3.4,3.8,66,0.00,,---,0.00,VWS V14.01,2013-02-19 02:16:00,
2013-02-18 19:17:00,21.2,11.6,26.49,North,0,7.2,7.2,66,0.00,,---,0.00,VWS V14.01,2013-02-19 02:17:00,
2013-02-18 19:18:00,21.2,11.6,26.49,NNW,338,4.9,7.2,66,0.00,,---,0.00,VWS V14.01,2013-02-19 02:18:00,
2013-02-18 19:19:00,21.2,11.6,26.49,NW,315,8.1,8.1,66,0.00,,---,0.00,VWS V14.01,2013-02-19 02:19:00,
2013-02-18 19:20:00,21.2,11.6,26.49,NW,315,3.1,8.1,66,0.00,,---,0.00,VWS V14.01,2013-02-19 02:20:00,
2013-02-18 19:21:00,21.2,11.6,26.49,NNW,338,5.8,5.8,66,0.00,,---,0.00,VWS V14.01,2013-02-19 02:21:00,
2013-02-18 19:22:00,21.2,11.6,26.49,NNW,338,2.5,5.8,66,0.00,,---,0.00,VWS V14.01,2013-02-19 02:22:00,
2013-02-18 19:23:00,21.2,11.6,26.49,North,0,4.3,4.3,66,0.00,,---,0.00,VWS V14.01,2013-02-19 02:23:00,
2013-02-18 19:24:00,21.0,11.5,26.49,NW,315,2.5,4.3,66,0.00,,---,0.00,VWS V14.01,2013-02-19 02:24:00,
2013-02-18 19:25:00,21.0,11.5,26.49,NNW,338,4.3,4.3,66,0.00,,---,0.00,VWS V14.01,2013-02-19 02:25:00,
2013-02-18 19:26:00,21.0,11.5,26.49,West,270,4.0,4.3,66,0.00,,---,0.00,VWS V14.01,2013-02-19 02:26:00,
2013-02-18 19:27:00,21.0,11.5,26.49,North,0,3.8,4.0,66,0.00,,---,0.00,VWS V14.01,2013-02-19 02:27:00,
2013-02-18 19:28:00,21.0,11.5,26.49,NW,315,2.7,3.8,66,0.00,,---,0.00,VWS V14.01,2013-02-19 02:28:00,
2013-02-18 19:29:00,21.0,11.5,26.49,NNW,338,4.0,4.0,66,0.00,,---,0.00,VWS V14.01,2013-02-19 02:29:00,
2013-02-18 19:30:00,21.0,11.8,26.49,SE,135,3.4,4.0,67,0.00,,---,0.00,VWS V14.01,2013-02-19 02:30:00,
2013-02-18 19:31:00,21.0,11.5,26.49,North,0,4.3,4.3,66,0.00,,---,0.00,VWS V14.01,2013-02-19 02:31:00,
2013-02-18 19:32:00,21.0,11.5,26.49,SW,225,3.4,4.3,66,0.00,,---,0.00,VWS V14.01,2013-02-19 02:32:00,
2013-02-18 19:33:00,21.0,11.8,26.49,NE,45,6.3,6.3,67,0.00,,---,0.00,VWS V14.01,2013-02-19 02:33:00,
2013-02-18 19:34:00,21.0,11.8,26.49,NNW,338,3.1,6.3,67,0.00,,---,0.00,VWS V14.01,2013-02-19 02:34:00,
2013-02-18 19:35:00,21.0,11.5,26.49,NNW,338,3.4,3.4,66,0.00,,---,0.00,VWS V14.01,2013-02-19 02:35:00,
2013-02-18 19:36:00,21.0,11.8,26.49,WNW,292,5.6,5.6,67,0.00,,---,0.00,VWS V14.01,2013-02-19 02:36:00,
2013-02-18 19:37:00,21.0,11.8,26.49,NNW,338,4.9,5.6,67,0.00,,---,0.00,VWS V14.01,2013-02-19 02:37:00,
2013-02-18 19:38:00,21.2,12.0,26.49,NNE,22,4.0,4.9,67,0.00,,---,0.00,VWS V14.01,2013-02-19 02:38:00,
2013-02-18 19:39:00,21.2,12.0,26.49,North,0,2.7,4.0,67,0.00,,---,0.00,VWS V14.01,2013-02-19 02:39:00,
2013-02-18 19:40:00,21.2,12.0,26.49,NW,315,6.5,6.5,67,0.00,,---,0.00,VWS V14.01,2013-02-19 02:40:00,
2013-02-18 19:41:00,21.2,12.0,26.49,NNW,338,4.0,6.5,67,0.00,,---,0.00,VWS V14.01,2013-02-19 02:41:00,
2013-02-18 19:42:00,21.2,12.0,26.49,NNW,338,2.5,4.0,67,0.00,,---,0.00,VWS V14.01,2013-02-19 02:42:00,
2013-02-18 19:43:00,21.2,12.0,26.49,NNW,338,3.8,3.8,67,0.00,,---,0.00,VWS V14.01,2013-02-19 02:43:00,
2013-02-18 19:44:00,21.2,12.0,26.49,NNE,22,1.6,3.8,67,0.00,,---,0.00,VWS V14.01,2013-02-19 02:44:00,
2013-02-18 19:45:00,21.2,12.0,26.49,NNW,338,2.9,2.9,67,0.00,,---,0.00,VWS V14.01,2013-02-19 02:45:00,
2013-02-18 19:46:00,21.4,12.1,26.49,NNW,338,3.6,3.6,67,0.00,,---,0.00,VWS V14.01,2013-02-19 02:46:00,
2013-02-18 19:47:00,21.6,12.0,26.49,NNW,338,6.3,6.3,66,0.00,,---,0.00,VWS V14.01,2013-02-19 02:47:00,
2013-02-18 19:48:00,20.7,11.1,26.49,NNW,338,2.5,3.1,66,0.00,,---,0.00,VWS V14.01,2013-02-19 02:48:00,
2013-02-18 19:49:00,20.7,11.1,26.49,North,0,3.8,3.8,66,0.00,,---,0.00,VWS V14.01,2013-02-19 02:49:00,
2013-02-18 19:50:00,20.7,11.1,26.49,NNE,22,3.6,4.7,66,0.00,,---,0.00,VWS V14.01,2013-02-19 02:50:00,
2013-02-18 19:51:00,20.7,11.4,26.49,NNW,338,4.7,4.9,67,0.00,,---,0.00,VWS V14.01,2013-02-19 02:51:00,
2013-02-18 19:52:00,21.6,12.0,26.49,North,0,3.8,5.4,66,0.00,,---,0.00,VWS V14.01,2013-02-19 02:52:00,
2013-02-18 19:53:00,20.7,11.4,26.49,NNW,338,1.3,4.3,67,0.00,,---,0.00,VWS V14.01,2013-02-19 02:53:00,
2013-02-18 19:54:00,20.7,11.4,26.49,ENE,68,1.3,1.3,67,0.00,,---,0.00,VWS V14.01,2013-02-19 02:54:00,
2013-02-18 19:55:00,21.6,12.0,26.49,NNW,338,6.3,6.3,66,0.00,,---,0.00,VWS V14.01,2013-02-19 02:55:00,
2013-02-18 19:56:00,21.6,12.0,26.49,NE,45,4.7,6.3,66,0.00,,---,0.00,VWS V14.01,2013-02-19 02:56:00,
2013-02-18 19:57:00,21.6,12.0,26.49,NE,45,2.5,5.4,66,0.00,,---,0.00,VWS V14.01,2013-02-19 02:57:00,
2013-02-18 19:58:00,21.6,12.0,26.49,NE,45,3.6,5.4,66,0.00,,---,0.00,VWS V14.01,2013-02-19 02:58:00,
2013-02-18 19:59:00,21.6,12.0,26.49,ENE,68,3.1,3.6,66,0.00,,---,0.00,VWS V14.01,2013-02-19 02:59:00,
2013-02-18 20:00:00,21.6,12.0,26.49,North,0,2.9,3.4,66,0.00,,---,0.00,VWS V14.01,2013-02-19 03:00:00,
2013-02-18 20:01:00,21.6,12.0,26.49,North,0,3.8,5.6,66,0.00,,---,0.00,VWS V14.01,2013-02-19 03:01:00,
2013-02-18 20:02:00,21.4,11.5,26.49,NNW,338,3.1,3.6,65,0.00,,---,0.00,VWS V14.01,2013-02-19 03:02:00,
2013-02-18 20:03:00,21.6,12.0,26.49,East,90,4.7,4.7,66,0.00,,---,0.00,VWS V14.01,2013-02-19 03:03:00,
2013-02-18 20:04:00,21.6,12.0,26.49,NNE,22,3.8,6.0,66,0.00,,---,0.00,VWS V14.01,2013-02-19 03:04:00,
2013-02-18 20:05:00,21.6,12.0,26.49,NNE,22,5.4,5.4,66,0.00,,---,0.00,VWS V14.01,2013-02-19 03:05:00,
2013-02-18 20:06:00,21.6,12.0,26.49,North,0,4.3,5.4,66,0.00,,---,0.00,VWS V14.01,2013-02-19 03:06:00,
2013-02-18 20:07:00,21.2,11.6,26.49,ENE,68,3.1,5.4,66,0.00,,---,0.00,VWS V14.01,2013-02-19 03:07:00,
2013-02-18 20:08:00,21.4,11.8,26.49,NNW,338,2.9,4.0,66,0.00,,---,0.00,VWS V14.01,2013-02-19 03:08:00,
2013-02-18 20:09:00,21.4,11.5,26.49,NE,45,3.1,5.8,65,0.00,,---,0.00,VWS V14.01,2013-02-19 03:09:00,
2013-02-18 20:10:00,21.4,11.5,26.49,NNW,338,3.6,3.8,65,0.00,,---,0.00,VWS V14.01,2013-02-19 03:10:00,
2013-02-18 20:11:00,21.4,11.5,26.49,NE,45,2.9,3.6,65,0.00,,---,0.00,VWS V14.01,2013-02-19 03:11:00,
2013-02-18 20:12:00,21.2,11.3,26.49,North,0,2.7,3.6,65,0.00,,---,0.00,VWS V14.01,2013-02-19 03:12:00,
2013-02-18 20:13:00,21.2,11.6,26.49,NNE,22,2.5,5.4,66,0.00,,---,0.00,VWS V14.01,2013-02-19 03:13:00,
2013-02-18 20:14:00,21.2,11.6,26.49,NW,315,4.0,4.0,66,0.00,,---,0.00,VWS V14.01,2013-02-19 03:14:00,
2013-02-18 20:15:00,21.2,11.6,26.49,NNW,338,5.4,5.8,66,0.00,,---,0.00,VWS V14.01,2013-02-19 03:15:00,
2013-02-18 20:16:00,21.2,11.6,26.49,North,0,3.6,5.4,66,0.00,,---,0.00,VWS V14.01,2013-02-19 03:16:00,
2013-02-18 20:17:00,21.0,11.1,26.49,NNW,338,4.0,4.0,65,0.00,,---,0.00,VWS V14.01,2013-02-19 03:17:00,
2013-02-18 20:18:00,21.2,11.6,26.49,NW,315,4.3,4.7,66,0.00,,---,0.00,VWS V14.01,2013-02-19 03:18:00,
2013-02-18 20:19:00,21.2,11.3,26.49,NE,45,3.1,4.3,65,0.00,,---,0.00,VWS V14.01,2013-02-19 03:19:00,
2013-02-18 20:20:00,21.2,11.3,26.49,North,0,2.9,4.0,65,0.00,,---,0.00,VWS V14.01,2013-02-19 03:20:00,
2013-02-18 20:21:00,21.2,11.3,26.49,North,0,2.7,3.6,65,0.00,,---,0.00,VWS V14.01,2013-02-19 03:21:00,
2013-02-18 20:22:00,20.8,10.9,26.49,NE,45,3.8,5.4,65,0.00,,---,0.00,VWS V14.01,2013-02-19 03:22:00,
2013-02-18 20:23:00,21.0,11.1,26.49,NNW,338,3.8,5.4,65,0.00,,---,0.00,VWS V14.01,2013-02-19 03:23:00,
2013-02-18 20:24:00,21.0,11.1,26.49,NNW,338,2.7,5.6,65,0.00,,---,0.00,VWS V14.01,2013-02-19 03:24:00,
2013-02-18 20:25:00,21.0,11.1,26.49,North,0,3.6,6.5,65,0.00,,---,0.00,VWS V14.01,2013-02-19 03:25:00,
2013-02-18 20:26:00,21.0,11.1,26.49,NNW,338,4.0,4.0,65,0.00,,---,0.00,VWS V14.01,2013-02-19 03:26:00,
2013-02-18 20:27:00,20.7,11.1,26.46,NE,45,3.4,5.4,66,0.00,,---,0.00,VWS V14.01,2013-02-19 03:27:00,
2013-02-18 20:28:00,21.0,11.5,26.49,NNE,22,3.1,4.0,66,0.00,,---,0.00,VWS V14.01,2013-02-19 03:28:00,
2013-02-18 20:29:00,21.0,11.5,26.49,NNW,338,5.8,5.8,66,0.00,,---,0.00,VWS V14.01,2013-02-19 03:29:00,
2013-02-18 20:30:00,20.8,10.9,26.49,NNW,338,2.5,6.5,65,0.00,,---,0.00,VWS V14.01,2013-02-19 03:30:00,
2013-02-18 20:31:00,20.8,10.9,26.49,NE,45,4.0,5.4,65,0.00,,---,0.00,VWS V14.01,2013-02-19 03:31:00,
2013-02-18 20:32:00,20.7,11.1,26.46,NNW,338,2.7,4.7,66,0.00,,---,0.00,VWS V14.01,2013-02-19 03:32:00,
2013-02-18 20:33:00,20.8,10.9,26.46,North,0,3.8,5.6,65,0.00,,---,0.00,VWS V14.01,2013-02-19 03:33:00,
2013-02-18 20:34:00,20.8,11.3,26.46,North,0,4.0,6.0,66,0.00,,---,0.00,VWS V14.01,2013-02-19 03:34:00,
2013-02-18 20:35:00,20.7,11.1,26.46,NE,45,5.4,5.4,66,0.00,,---,0.00,VWS V14.01,2013-02-19 03:35:00,
2013-02-18 20:36:00,20.7,11.1,26.46,NE,45,3.4,5.4,66,0.00,,---,0.00,VWS V14.01,2013-02-19 03:36:00,
2013-02-18 20:37:00,20.7,11.1,26.46,North,0,3.1,3.1,66,0.00,,---,0.00,VWS V14.01,2013-02-19 03:37:00,
2013-02-18 20:38:00,20.7,11.1,26.46,NNW,338,4.3,4.9,66,0.00,,---,0.00,VWS V14.01,2013-02-19 03:38:00,
2013-02-18 20:39:00,20.7,11.1,26.46,NE,45,2.9,7.6,66,0.00,,---,0.00,VWS V14.01,2013-02-19 03:39:00,
2013-02-18 20:40:00,20.7,11.1,26.46,North,0,2.5,4.0,66,0.00,,---,0.00,VWS V14.01,2013-02-19 03:40:00,
2013-02-18 20:41:00,20.7,11.1,26.46,North,0,5.4,5.4,66,0.00,,---,0.00,VWS V14.01,2013-02-19 03:41:00,
2013-02-18 20:42:00,20.7,11.4,26.49,NE,45,3.8,4.9,67,0.00,,---,0.00,VWS V14.01,2013-02-19 03:42:00,
2013-02-18 20:43:00,20.7,11.1,26.46,North,0,1.1,3.4,66,0.00,,---,0.00,VWS V14.01,2013-02-19 03:43:00,
2013-02-18 20:44:00,20.7,11.1,26.46,NE,45,4.3,4.3,66,0.00,,---,0.00,VWS V14.01,2013-02-19 03:44:00,
2013-02-18 20:45:00,20.7,11.1,26.46,NNW,338,2.9,4.3,66,0.00,,---,0.00,VWS V14.01,2013-02-19 03:45:00,
2013-02-18 20:46:00,20.7,11.1,26.46,North,0,3.1,3.1,66,0.00,,---,0.00,VWS V14.01,2013-02-19 03:46:00,
2013-02-18 20:47:00,20.7,11.4,26.49,NNE,22,1.6,3.6,67,0.00,,---,0.00,VWS V14.01,2013-02-19 03:47:00,
2013-02-18 20:48:00,20.7,11.1,26.49,NNW,338,2.5,3.1,66,0.00,,---,0.00,VWS V14.01,2013-02-19 03:48:00,
2013-02-18 20:49:00,20.7,11.1,26.49,North,0,3.8,3.8,66,0.00,,---,0.00,VWS V14.01,2013-02-19 03:49:00,
2013-02-18 20:50:00,20.7,11.1,26.49,NNE,22,3.6,4.7,66,0.00,,---,0.00,VWS V14.01,2013-02-19 03:50:00,
2013-02-18 20:51:00,20.7,11.4,26.49,NNW,338,4.7,4.9,67,0.00,,---,0.00,VWS V14.01,2013-02-19 03:51:00,
2013-02-18 20:52:00,20.8,11.6,26.49,WNW,292,1.6,4.0,67,0.00,,---,0.00,VWS V14.01,2013-02-19 03:52:00,
2013-02-18 20:53:00,20.7,11.4,26.49,NNW,338,1.3,4.3,67,0.00,,---,0.00,VWS V14.01,2013-02-19 03:53:00,
2013-02-18 20:54:00,20.7,11.4,26.49,ENE,68,1.3,1.3,67,0.00,,---,0.00,VWS V14.01,2013-02-19 03:54:00,
2013-02-18 20:55:00,20.7,11.4,26.49,ENE,68,3.6,5.6,67,0.00,,---,0.00,VWS V14.01,2013-02-19 03:55:00,
2013-02-18 20:56:00,20.7,11.4,26.49,NNW,338,3.8,3.8,67,0.00,,---,0.00,VWS V14.01,2013-02-19 03:56:00,
2013-02-18 20:57:00,20.8,11.6,26.49,North,0,6.0,8.1,67,0.00,,---,0.00,VWS V14.01,2013-02-19 03:57:00,
2013-02-18 20:58:00,20.7,11.4,26.49,WNW,292,2.5,4.0,67,0.00,,---,0.00,VWS V14.01,2013-02-19 03:58:00,
2013-02-18 20:59:00,20.7,11.4,26.49,NNW,338,2.0,2.7,67,0.00,,---,0.00,VWS V14.01,2013-02-19 03:59:00,
2013-02-18 21:00:00,20.8,11.6,26.49,North,0,4.0,4.9,67,0.00,,---,0.00,VWS V14.01,2013-02-19 04:00:00,
2013-02-18 21:01:00,20.8,11.6,26.49,NNE,22,2.5,4.0,67,0.00,,---,0.00,VWS V14.01,2013-02-19 04:01:00,
2013-02-18 21:02:00,20.8,11.6,26.49,WNW,292,2.7,4.3,67,0.00,,---,0.00,VWS V14.01,2013-02-19 04:02:00,
2013-02-18 21:03:00,20.8,11.6,26.49,NNE,22,4.0,4.0,67,0.00,,---,0.00,VWS V14.01,2013-02-19 04:03:00,
2013-02-18 21:04:00,20.8,11.6,26.49,NNW,338,3.1,4.3,67,0.00,,---,0.00,VWS V14.01,2013-02-19 04:04:00,
2013-02-18 21:05:00,20.8,11.6,26.49,ENE,68,4.9,4.9,67,0.00,,---,0.00,VWS V14.01,2013-02-19 04:05:00,
2013-02-18 21:06:00,20.8,11.6,26.49,NE,45,6.0,8.1,67,0.00,,---,0.00,VWS V14.01,2013-02-19 04:06:00,
2013-02-18 21:07:00,20.8,11.6,26.49,NNW,338,2.9,4.0,67,0.00,,---,0.00,VWS V14.01,2013-02-19 04:07:00,
2013-02-18 21:08:00,20.8,11.6,26.49,NNE,22,5.4,5.6,67,0.00,,---,0.00,VWS V14.01,2013-02-19 04:08:00,
2013-02-18 21:09:00,20.8,11.6,26.49,North,0,4.9,5.6,67,0.00,,---,0.00,VWS V14.01,2013-02-19 04:09:00,
2013-02-18 21:10:00,20.8,11.6,26.49,NNW,338,4.3,4.9,67,0.00,,---,0.00,VWS V14.01,2013-02-19 04:10:00,
2013-02-18 21:11:00,20.8,11.6,26.49,WNW,292,2.7,4.3,67,0.00,,---,0.00,VWS V14.01,2013-02-19 04:11:00,
2013-02-18 21:12:00,20.7,11.4,26.52,NNW,338,6.0,6.0,67,0.00,,---,0.00,VWS V14.01,2013-02-19 04:12:00,
2013-02-18 21:13:00,20.8,11.6,26.49,NW,315,3.1,4.3,67,0.00,,---,0.00,VWS V14.01,2013-02-19 04:13:00,
2013-02-18 21:14:00,20.8,11.6,26.49,NNW,338,2.7,6.5,67,0.00,,---,0.00,VWS V14.01,2013-02-19 04:14:00,
2013-02-18 21:15:00,20.8,11.6,26.49,NNW,338,3.8,3.8,67,0.00,,---,0.00,VWS V14.01,2013-02-19 04:15:00,
2013-02-18 21:16:00,20.8,11.6,26.49,North,0,3.8,4.0,67,0.00,,---,0.00,VWS V14.01,2013-02-19 04:16:00,
2013-02-18 21:17:00,20.7,11.4,26.52,NNE,22,4.3,5.4,67,0.00,,---,0.00,VWS V14.01,2013-02-19 04:17:00,
2013-02-18 21:18:00,20.8,11.6,26.52,NNW,338,3.8,7.6,67,0.00,,---,0.00,VWS V14.01,2013-02-19 04:18:00,
2013-02-18 21:19:00,20.8,11.6,26.52,NNW,338,2.9,4.9,67,0.00,,---,0.00,VWS V14.01,2013-02-19 04:19:00,
2013-02-18 21:20:00,20.7,11.4,26.52,North,0,3.6,3.6,67,0.00,,---,0.00,VWS V14.01,2013-02-19 04:20:00,
2013-02-18 21:21:00,20.7,11.4,26.52,North,0,2.7,6.0,67,0.00,,---,0.00,VWS V14.01,2013-02-19 04:21:00,
2013-02-18 21:22:00,20.5,11.3,26.52,NW,315,4.3,4.3,67,0.00,,---,0.00,VWS V14.01,2013-02-19 04:22:00,
2013-02-18 21:23:00,19.4,10.9,26.52,NNW,338,0.9,2.7,69,0.00,,---,0.00,VWS V14.01,2013-02-19 04:23:00,
2013-02-18 21:24:00,20.7,11.4,26.52,NNE,22,6.5,6.5,67,0.00,,---,0.00,VWS V14.01,2013-02-19 04:24:00,
2013-02-18 21:25:00,20.7,11.4,26.52,NNW,338,3.1,6.5,67,0.00,,---,0.00,VWS V14.01,2013-02-19 04:25:00,
2013-02-18 21:26:00,20.7,11.4,26.52,NW,315,2.5,5.4,67,0.00,,---,0.00,VWS V14.01,2013-02-19 04:26:00,
2013-02-18 21:27:00,20.3,11.1,26.52,NNW,338,3.1,4.9,67,0.00,,---,0.00,VWS V14.01,2013-02-19 04:27:00,
2013-02-18 21:28:00,20.5,11.3,26.52,NW,315,3.1,4.3,67,0.00,,---,0.00,VWS V14.01,2013-02-19 04:28:00,
2013-02-18 21:29:00,19.0,10.6,26.52,North,0,1.3,2.5,69,0.00,,---,0.00,VWS V14.01,2013-02-19 04:29:00,
2013-02-18 21:30:00,20.5,11.3,26.52,NNW,338,3.4,6.5,67,0.00,,---,0.00,VWS V14.01,2013-02-19 04:30:00,
2013-02-18 21:31:00,20.5,11.3,26.52,NW,315,4.3,4.3,67,0.00,,---,0.00,VWS V14.01,2013-02-19 04:31:00,
2013-02-18 21:32:00,20.3,11.1,26.52,NNW,338,2.7,2.7,67,0.00,,---,0.00,VWS V14.01,2013-02-19 04:32:00,
2013-02-18 21:33:00,20.5,11.3,26.52,North,0,4.3,4.3,67,0.00,,---,0.00,VWS V14.01,2013-02-19 04:33:00,
2013-02-18 21:34:00,20.5,11.3,26.52,NNW,338,2.9,4.9,67,0.00,,---,0.00,VWS V14.01,2013-02-19 04:34:00,
2013-02-18 21:35:00,20.5,11.3,26.52,NW,315,4.9,4.9,67,0.00,,---,0.00,VWS V14.01,2013-02-19 04:35:00,
2013-02-18 21:36:00,20.3,11.1,26.52,NNW,338,4.3,4.9,67,0.00,,---,0.00,VWS V14.01,2013-02-19 04:36:00,
2013-02-18 21:37:00,20.1,10.9,26.52,NE,45,3.1,3.1,67,0.00,,---,0.00,VWS V14.01,2013-02-19 04:37:00,
2013-02-18 21:38:00,20.3,11.1,26.52,NW,315,5.4,6.3,67,0.00,,---,0.00,VWS V14.01,2013-02-19 04:38:00,
2013-02-18 21:39:00,20.3,11.1,26.52,WNW,292,2.9,5.4,67,0.00,,---,0.00,VWS V14.01,2013-02-19 04:39:00,
2013-02-18 21:40:00,20.3,11.1,26.52,NW,315,2.2,3.8,67,0.00,,---,0.00,VWS V14.01,2013-02-19 04:40:00,
2013-02-18 21:41:00,20.3,11.1,26.52,NNW,338,4.7,4.7,67,0.00,,---,0.00,VWS V14.01,2013-02-19 04:41:00,
2013-02-18 21:42:00,19.9,10.8,26.52,NNW,338,2.7,3.1,67,0.00,,---,0.00,VWS V14.01,2013-02-19 04:42:00,
2013-02-18 21:43:00,20.3,11.1,26.52,NE,45,4.0,7.6,67,0.00,,---,0.00,VWS V14.01,2013-02-19 04:43:00,
2013-02-18 21:44:00,20.3,11.1,26.52,North,0,2.5,4.0,67,0.00,,---,0.00,VWS V14.01,2013-02-19 04:44:00,
2013-02-18 21:45:00,20.3,11.1,26.52,NNW,338,1.3,2.5,67,0.00,,---,0.00,VWS V14.01,2013-02-19 04:45:00,
2013-02-18 21:46:00,20.1,10.9,26.52,NNW,338,2.9,3.1,67,0.00,,---,0.00,VWS V14.01,2013-02-19 04:46:00,
2013-02-18 21:47:00,19.8,10.9,26.52,North,0,1.3,4.3,68,0.00,,---,0.00,VWS V14.01,2013-02-19 04:47:00,
2013-02-18 21:48:00,20.1,10.9,26.52,NNW,338,1.3,2.0,67,0.00,,---,0.00,VWS V14.01,2013-02-19 04:48:00,
2013-02-18 21:49:00,20.1,10.9,26.52,NNW,338,3.4,6.0,67,0.00,,---,0.00,VWS V14.01,2013-02-19 04:49:00,
2013-02-18 21:50:00,19.9,10.8,26.52,NNW,338,2.7,3.4,67,0.00,,---,0.00,VWS V14.01,2013-02-19 04:50:00,
2013-02-18 21:51:00,19.9,10.8,26.52,NNW,338,2.5,3.1,67,0.00,,---,0.00,VWS V14.01,2013-02-19 04:51:00,
2013-02-18 21:52:00,19.6,10.8,26.52,NNW,338,2.0,3.4,68,0.00,,---,0.00,VWS V14.01,2013-02-19 04:52:00,
2013-02-18 21:53:00,19.9,10.8,26.52,NW,315,1.3,3.1,67,0.00,,---,0.00,VWS V14.01,2013-02-19 04:53:00,
2013-02-18 21:54:00,19.8,10.6,26.52,NNW,338,2.0,4.0,67,0.00,,---,0.00,VWS V14.01,2013-02-19 04:54:00,
2013-02-18 21:55:00,19.8,10.9,26.52,NNW,338,4.3,4.3,68,0.00,,---,0.00,VWS V14.01,2013-02-19 04:55:00,
2013-02-18 21:56:00,19.8,10.9,26.52,NNW,338,2.7,4.3,68,0.00,,---,0.00,VWS V14.01,2013-02-19 04:56:00,
2013-02-18 21:57:00,19.4,10.6,26.52,NNW,338,3.4,3.4,68,0.00,,---,0.00,VWS V14.01,2013-02-19 04:57:00,
2013-02-18 21:58:00,19.8,10.9,26.52,North,0,1.3,2.2,68,0.00,,---,0.00,VWS V14.01,2013-02-19 04:58:00,
2013-02-18 21:59:00,19.8,10.9,26.52,NE,45,1.6,4.0,68,0.00,,---,0.00,VWS V14.01,2013-02-19 04:59:00,
2013-02-18 22:00:00,19.6,10.8,26.52,NW,315,2.7,2.7,68,0.00,,---,0.00,VWS V14.01,2013-02-19 05:00:00,
2013-02-18 22:01:00,19.4,10.9,26.52,NW,315,2.0,2.7,69,0.00,,---,0.00,VWS V14.01,2013-02-19 05:01:00,
2013-02-18 22:02:00,19.6,10.8,26.52,NNW,338,2.0,2.0,68,0.00,,---,0.00,VWS V14.01,2013-02-19 05:02:00,
2013-02-18 22:03:00,19.6,10.8,26.52,North,0,2.7,3.1,68,0.00,,---,0.00,VWS V14.01,2013-02-19 05:03:00,
2013-02-18 22:04:00,19.6,10.8,26.52,NW,315,1.6,2.7,68,0.00,,---,0.00,VWS V14.01,2013-02-19 05:04:00,
2013-02-18 22:05:00,19.6,10.8,26.52,NNW,338,2.7,2.7,68,0.00,,---,0.00,VWS V14.01,2013-02-19 05:05:00,
2013-02-18 22:06:00,19.4,10.9,26.52,NNW,338,2.0,2.0,69,0.00,,---,0.00,VWS V14.01,2013-02-19 05:06:00,
2013-02-18 22:07:00,19.4,10.6,26.52,NNW,338,2.5,3.8,68,0.00,,---,0.00,VWS V14.01,2013-02-19 05:07:00,
2013-02-18 22:08:00,19.6,10.8,26.52,NNW,338,1.6,3.1,68,0.00,,---,0.00,VWS V14.01,2013-02-19 05:08:00,
2013-02-18 22:09:00,19.4,10.9,26.52,NW,315,2.7,2.7,69,0.00,,---,0.00,VWS V14.01,2013-02-19 05:09:00,
2013-02-18 22:10:00,19.4,10.9,26.52,NNW,338,1.1,2.7,69,0.00,,---,0.00,VWS V14.01,2013-02-19 05:10:00,
2013-02-18 22:11:00,19.4,10.9,26.52,North,0,2.2,4.0,69,0.00,,---,0.00,VWS V14.01,2013-02-19 05:11:00,
2013-02-18 22:12:00,19.4,10.9,26.52,NNW,338,2.0,2.5,69,0.00,,---,0.00,VWS V14.01,2013-02-19 05:12:00,
2013-02-18 22:13:00,19.4,10.9,26.52,NNW,338,1.3,2.9,69,0.00,,---,0.00,VWS V14.01,2013-02-19 05:13:00,
2013-02-18 22:14:00,19.4,10.9,26.52,NNW,338,1.3,1.6,69,0.00,,---,0.00,VWS V14.01,2013-02-19 05:14:00,
2013-02-18 22:15:00,19.4,10.9,26.52,NNW,338,2.9,2.9,69,0.00,,---,0.00,VWS V14.01,2013-02-19 05:15:00,
2013-02-18 22:16:00,19.2,10.7,26.52,NNW,338,1.1,3.4,69,0.00,,---,0.00,VWS V14.01,2013-02-19 05:16:00,
2013-02-18 22:17:00,19.4,10.9,26.52,NNW,338,1.3,3.4,69,0.00,,---,0.00,VWS V14.01,2013-02-19 05:17:00,
2013-02-18 22:18:00,19.2,10.7,26.52,NNW,338,2.7,2.7,69,0.00,,---,0.00,VWS V14.01,2013-02-19 05:18:00,
2013-02-18 22:19:00,19.2,10.7,26.52,East,90,4.0,4.0,69,0.00,,---,0.00,VWS V14.01,2013-02-19 05:19:00,
2013-02-18 22:20:00,19.4,10.9,26.52,NNW,338,2.7,4.0,69,0.00,,---,0.00,VWS V14.01,2013-02-19 05:20:00,
2013-02-18 22:21:00,18.9,10.4,26.52,North,0,0.0,1.3,69,0.00,,---,0.00,VWS V14.01,2013-02-19 05:21:00,
2013-02-18 22:22:00,19.4,10.9,26.52,NNW,338,2.5,3.4,69,0.00,,---,0.00,VWS V14.01,2013-02-19 05:22:00,
2013-02-18 22:23:00,19.4,10.9,26.52,NNW,338,0.9,2.7,69,0.00,,---,0.00,VWS V14.01,2013-02-19 05:23:00,
2013-02-18 22:24:00,19.2,10.7,26.52,NW,315,2.7,2.7,69,0.00,,---,0.00,VWS V14.01,2013-02-19 05:24:00,
2013-02-18 22:25:00,19.2,10.7,26.52,NNW,338,1.1,3.4,69,0.00,,---,0.00,VWS V14.01,2013-02-19 05:25:00,
2013-02-18 22:26:00,18.3,9.9,26.52,North,0,2.5,3.4,69,0.00,,---,0.00,VWS V14.01,2013-02-19 05:26:00,
2013-02-18 22:27:00,19.0,10.6,26.52,NNW,338,0.0,0.0,69,0.00,,---,0.00,VWS V14.01,2013-02-19 05:27:00,
2013-02-18 22:28:00,19.0,10.6,26.52,North,0,1.1,2.2,69,0.00,,---,0.00,VWS V14.01,2013-02-19 05:28:00,
2013-02-18 22:29:00,19.0,10.6,26.52,North,0,1.3,2.5,69,0.00,,---,0.00,VWS V14.01,2013-02-19 05:29:00,
2013-02-18 22:30:00,18.9,10.4,26.52,North,0,1.1,1.3,69,0.00,,---,0.00,VWS V14.01,2013-02-19 05:30:00,
2013-02-18 22:31:00,18.0,9.5,26.52,North,0,1.1,2.9,69,0.00,,---,0.00,VWS V14.01,2013-02-19 05:31:00,
2013-02-18 22:32:00,18.7,9.9,26.52,NNW,338,2.0,2.0,68,0.00,,---,0.00,VWS V14.01,2013-02-19 05:32:00,
2013-02-18 22:33:00,18.5,9.7,26.52,NNW,338,1.3,2.0,68,0.00,,---,0.00,VWS V14.01,2013-02-19 05:33:00,
2013-02-18 22:34:00,18.5,9.7,26.52,WNW,292,2.7,3.4,68,0.00,,---,0.00,VWS V14.01,2013-02-19 05:34:00,
2013-02-18 22:35:00,18.3,9.9,26.52,North,0,2.5,3.4,69,0.00,,---,0.00,VWS V14.01,2013-02-19 05:35:00,
2013-02-18 22:36:00,17.4,9.0,26.52,NW,315,1.3,2.0,69,0.00,,---,0.00,VWS V14.01,2013-02-19 05:36:00,
2013-02-18 22:37:00,18.3,9.9,26.52,NNW,338,3.1,3.6,69,0.00,,---,0.00,VWS V14.01,2013-02-19 05:37:00,
2013-02-18 22:38:00,18.1,9.7,26.52,NE,45,1.1,3.1,69,0.00,,---,0.00,VWS V14.01,2013-02-19 05:38:00,
2013-02-18 22:39:00,18.1,9.7,26.52,NW,315,2.9,3.4,69,0.00,,---,0.00,VWS V14.01,2013-02-19 05:39:00,
2013-02-18 22:40:00,17.8,9.4,26.52,NE,45,2.7,2.9,69,0.00,,---,0.00,VWS V14.01,2013-02-19 05:40:00,
2013-02-18 22:41:00,17.1,9.0,26.52,North,0,1.6,2.9,70,0.00,,---,0.00,VWS V14.01,2013-02-19 05:41:00,
2013-02-18 22:42:00,17.8,9.4,26.52,NNW,338,2.7,3.1,69,0.00,,---,0.00,VWS V14.01,2013-02-19 05:42:00,
2013-02-18 22:43:00,17.6,9.2,26.52,North,0,2.0,2.7,69,0.00,,---,0.00,VWS V14.01,2013-02-19 05:43:00,
2013-02-18 22:44:00,17.6,9.2,26.52,NE,45,1.6,2.0,69,0.00,,---,0.00,VWS V14.01,2013-02-19 05:44:00,
2013-02-18 22:45:00,17.4,9.0,26.52,NW,315,1.1,2.0,69,0.00,,---,0.00,VWS V14.01,2013-02-19 05:45:00,
2013-02-18 22:46:00,16.5,8.1,26.52,NNE,22,1.6,2.5,69,0.00,,---,0.00,VWS V14.01,2013-02-19 05:46:00,
2013-02-18 22:47:00,17.1,8.7,26.52,North,0,2.5,2.5,69,0.00,,---,0.00,VWS V14.01,2013-02-19 05:47:00,
2013-02-18 22:48:00,17.1,8.7,26.52,NW,315,2.5,2.9,69,0.00,,---,0.00,VWS V14.01,2013-02-19 05:48:00,
2013-02-18 22:49:00,17.1,9.0,26.52,NNW,338,2.9,3.6,70,0.00,,---,0.00,VWS V14.01,2013-02-19 05:49:00,
2013-02-18 22:50:00,17.1,9.0,26.52,NNW,338,3.6,3.6,70,0.00,,---,0.00,VWS V14.01,2013-02-19 05:50:00,
2013-02-18 22:51:00,15.8,7.8,26.52,NNE,22,0.0,1.6,70,0.00,,---,0.00,VWS V14.01,2013-02-19 05:51:00,
2013-02-18 22:52:00,16.7,8.6,26.52,NNW,338,0.9,2.2,70,0.00,,---,0.00,VWS V14.01,2013-02-19 05:52:00,
2013-02-18 22:53:00,16.7,8.6,26.52,NNW,338,0.0,0.9,70,0.00,,---,0.00,VWS V14.01,2013-02-19 05:53:00,
2013-02-18 22:54:00,16.5,8.1,26.52,ENE,68,0.9,1.1,69,0.00,,---,0.00,VWS V14.01,2013-02-19 05:54:00,
2013-02-18 22:55:00,16.3,8.0,26.52,NE,45,1.3,2.5,69,0.00,,---,0.00,VWS V14.01,2013-02-19 05:55:00,
2013-02-18 22:56:00,15.3,7.2,26.52,NNW,338,0.0,1.1,70,0.00,,---,0.00,VWS V14.01,2013-02-19 05:56:00,
2013-02-18 22:57:00,16.0,7.6,26.52,NE,45,1.6,1.6,69,0.00,,---,0.00,VWS V14.01,2013-02-19 05:57:00,
2013-02-18 22:58:00,16.0,7.6,26.52,NNW,338,1.3,2.9,69,0.00,,---,0.00,VWS V14.01,2013-02-19 05:58:00,
2013-02-18 22:59:00,16.0,7.6,26.52,NNW,338,0.9,1.3,69,0.00,,---,0.00,VWS V14.01,2013-02-19 05:59:00,
2013-02-18 23:00:00,15.8,7.8,26.52,NNE,22,0.0,1.6,70,0.00,,---,0.00,VWS V14.01,2013-02-19 06:00:00,
2013-02-18 23:01:00,14.9,6.9,26.52,NNW,338,0.0,0.0,70,0.00,,---,0.00,VWS V14.01,2013-02-19 06:01:00,
2013-02-18 23:02:00,15.6,7.6,26.52,NE,45,0.0,2.0,70,0.00,,---,0.00,VWS V14.01,2013-02-19 06:02:00,
2013-02-18 23:03:00,15.4,7.4,26.52,NNW,338,2.9,2.9,70,0.00,,---,0.00,VWS V14.01,2013-02-19 06:03:00,
2013-02-18 23:04:00,15.4,7.4,26.52,NNW,338,0.9,2.9,70,0.00,,---,0.00,VWS V14.01,2013-02-19 06:04:00,
2013-02-18 23:05:00,15.3,7.2,26.52,NNW,338,0.0,1.1,70,0.00,,---,0.00,VWS V14.01,2013-02-19 06:05:00,
2013-02-18 23:06:00,14.5,6.6,26.52,NNW,338,0.0,0.0,70,0.00,,---,0.00,VWS V14.01,2013-02-19 06:06:00,
2013-02-18 23:07:00,15.1,7.1,26.52,NNW,338,0.0,0.0,70,0.00,,---,0.00,VWS V14.01,2013-02-19 06:07:00,
2013-02-18 23:08:00,15.1,7.1,26.52,NNW,338,0.0,0.0,70,0.00,,---,0.00,VWS V14.01,2013-02-19 06:08:00,
2013-02-18 23:09:00,14.9,6.9,26.52,NNW,338,0.0,0.0,70,0.00,,---,0.00,VWS V14.01,2013-02-19 06:09:00,
2013-02-18 23:10:00,14.9,6.9,26.52,NNW,338,0.0,0.0,70,0.00,,---,0.00,VWS V14.01,2013-02-19 06:10:00,
2013-02-18 23:11:00,14.2,6.2,26.55,NNW,338,0.0,0.0,70,0.00,,---,0.00,VWS V14.01,2013-02-19 06:11:00,
2013-02-18 23:12:00,14.5,6.6,26.52,ENE,68,1.6,2.7,70,0.00,,---,0.00,VWS V14.01,2013-02-19 06:12:00,
2013-02-18 23:13:00,14.5,6.6,26.52,NNW,338,1.3,2.5,70,0.00,,---,0.00,VWS V14.01,2013-02-19 06:13:00,
2013-02-18 23:14:00,14.5,6.6,26.52,NNW,338,0.0,1.3,70,0.00,,---,0.00,VWS V14.01,2013-02-19 06:14:00,
2013-02-18 23:15:00,14.5,6.6,26.52,NNW,338,0.0,0.0,70,0.00,,---,0.00,VWS V14.01,2013-02-19 06:15:00,
2013-02-18 23:16:00,13.8,6.2,26.55,NNW,338,1.6,1.6,71,0.00,,---,0.00,VWS V14.01,2013-02-19 06:16:00,
2013-02-18 23:17:00,14.4,6.4,26.52,NNW,338,0.9,1.3,70,0.00,,---,0.00,VWS V14.01,2013-02-19 06:17:00,
2013-02-18 23:18:00,14.2,6.2,26.55,NNW,338,0.0,1.3,70,0.00,,---,0.00,VWS V14.01,2013-02-19 06:18:00,
2013-02-18 23:19:00,14.2,6.2,26.55,NNW,338,0.0,0.0,70,0.00,,---,0.00,VWS V14.01,2013-02-19 06:19:00,
2013-02-18 23:20:00,14.2,6.2,26.55,NNW,338,0.0,0.0,70,0.00,,---,0.00,VWS V14.01,2013-02-19 06:20:00,
2013-02-18 23:21:00,13.8,6.2,26.55,North,0,0.0,0.0,71,0.00,,---,0.00,VWS V14.01,2013-02-19 06:21:00,
2013-02-18 23:22:00,14.0,6.3,26.55,NNW,338,1.3,1.3,71,0.00,,---,0.00,VWS V14.01,2013-02-19 06:22:00,
2013-02-18 23:23:00,13.8,6.2,26.55,NE,45,1.6,2.0,71,0.00,,---,0.00,VWS V14.01,2013-02-19 06:23:00,
2013-02-18 23:24:00,13.8,6.2,26.55,NNW,338,0.0,1.6,71,0.00,,---,0.00,VWS V14.01,2013-02-19 06:24:00,
2013-02-18 23:25:00,13.8,6.2,26.55,NNW,338,1.1,1.6,71,0.00,,---,0.00,VWS V14.01,2013-02-19 06:25:00,
2013-02-18 23:26:00,13.5,5.8,26.55,North,0,0.0,0.0,71,0.00,,---,0.00,VWS V14.01,2013-02-19 06:26:00,
2013-02-18 23:27:00,13.8,6.2,26.55,NNW,338,0.0,0.9,71,0.00,,---,0.00,VWS V14.01,2013-02-19 06:27:00,
2013-02-18 23:28:00,13.8,6.2,26.55,North,0,0.9,1.6,71,0.00,,---,0.00,VWS V14.01,2013-02-19 06:28:00,
2013-02-18 23:29:00,13.8,6.2,26.55,North,0,0.0,0.9,71,0.00,,---,0.00,VWS V14.01,2013-02-19 06:29:00,
2013-02-18 23:30:00,13.8,6.2,26.55,North,0,0.0,0.0,71,0.00,,---,0.00,VWS V14.01,2013-02-19 06:30:00,
2013-02-18 23:31:00,13.3,5.7,26.55,NNW,338,0.0,0.0,71,0.00,,---,0.00,VWS V14.01,2013-02-19 06:31:00,
2013-02-18 23:32:00,13.6,6.0,26.55,North,0,0.0,1.3,71,0.00,,---,0.00,VWS V14.01,2013-02-19 06:32:00,
2013-02-18 23:33:00,13.6,6.0,26.55,North,0,0.0,0.0,71,0.00,,---,0.00,VWS V14.01,2013-02-19 06:33:00,
2013-02-18 23:34:00,13.5,5.8,26.55,North,0,0.0,0.0,71,0.00,,---,0.00,VWS V14.01,2013-02-19 06:34:00,
2013-02-18 23:35:00,13.5,5.8,26.55,North,0,0.0,0.0,71,0.00,,---,0.00,VWS V14.01,2013-02-19 06:35:00,
2013-02-18 23:36:00,12.9,5.3,26.55,NNW,338,0.0,0.0,71,0.00,,---,0.00,VWS V14.01,2013-02-19 06:36:00,
2013-02-18 23:37:00,13.5,5.8,26.55,NNE,22,0.9,0.9,71,0.00,,---,0.00,VWS V14.01,2013-02-19 06:37:00,
2013-02-18 23:38:00,13.3,5.7,26.55,NNW,338,1.6,1.6,71,0.00,,---,0.00,VWS V14.01,2013-02-19 06:38:00,
2013-02-18 23:39:00,13.3,5.7,26.55,NNW,338,0.0,1.6,71,0.00,,---,0.00,VWS V14.01,2013-02-19 06:39:00,
2013-02-18 23:40:00,13.3,5.7,26.55,NNW,338,0.0,0.0,71,0.00,,---,0.00,VWS V14.01,2013-02-19 06:40:00,
2013-02-18 23:41:00,12.6,5.0,26.55,NNW,338,0.0,0.0,71,0.00,,---,0.00,VWS V14.01,2013-02-19 06:41:00,
2013-02-18 23:42:00,13.3,5.7,26.55,NNW,338,0.0,0.0,71,0.00,,---,0.00,VWS V14.01,2013-02-19 06:42:00,
2013-02-18 23:43:00,13.1,5.5,26.55,NNW,338,0.0,0.0,71,0.00,,---,0.00,VWS V14.01,2013-02-19 06:43:00,
2013-02-18 23:44:00,12.9,5.3,26.55,NNW,338,0.0,0.0,71,0.00,,---,0.00,VWS V14.01,2013-02-19 06:44:00,
2013-02-18 23:45:00,12.9,5.3,26.55,NNW,338,0.0,0.0,71,0.00,,---,0.00,VWS V14.01,2013-02-19 06:45:00,
2013-02-18 23:46:00,12.4,4.8,26.55,NNW,338,0.0,0.0,71,0.00,,---,0.00,VWS V14.01,2013-02-19 06:46:00,
2013-02-18 23:47:00,12.9,5.3,26.55,NNW,338,0.0,0.0,71,0.00,,---,0.00,VWS V14.01,2013-02-19 06:47:00,
2013-02-18 23:48:00,12.7,5.1,26.55,NNW,338,0.0,0.0,71,0.00,,---,0.00,VWS V14.01,2013-02-19 06:48:00,
2013-02-18 23:49:00,12.7,5.1,26.55,NNW,338,0.0,0.0,71,0.00,,---,0.00,VWS V14.01,2013-02-19 06:49:00,
2013-02-18 23:50:00,12.6,5.0,26.55,NNW,338,0.0,0.0,71,0.00,,---,0.00,VWS V14.01,2013-02-19 06:50:00,
2013-02-18 23:51:00,12.2,4.6,26.55,NNW,338,0.0,0.0,71,0.00,,---,0.00,VWS V14.01,2013-02-19 06:51:00,
2013-02-18 23:52:00,12.4,4.8,26.55,NNW,338,0.0,0.0,71,0.00,,---,0.00,VWS V14.01,2013-02-19 06:52:00,
2013-02-18 23:53:00,12.4,4.8,26.55,NNW,338,0.0,0.0,71,0.00,,---,0.00,VWS V14.01,2013-02-19 06:53:00,
2013-02-18 23:54:00,12.4,4.8,26.55,NNW,338,0.0,0.0,71,0.00,,---,0.00,VWS V14.01,2013-02-19 06:54:00,
2013-02-18 23:55:00,12.4,4.8,26.55,NNW,338,0.0,0.0,71,0.00,,---,0.00,VWS V14.01,2013-02-19 06:55:00,
2013-02-18 23:56:00,12.6,5.0,26.55,NNW,338,0.0,0.0,71,0.00,,---,0.00,VWS V14.01,2013-02-19 06:56:00,
2013-02-18 23:57:00,12.4,4.8,26.55,NNW,338,0.0,0.0,71,0.00,,---,0.00,VWS V14.01,2013-02-19 06:57:00,
2013-02-18 23:58:00,12.4,4.8,26.55,NNW,338,0.0,0.0,71,0.00,,---,0.00,VWS V14.01,2013-02-19 06:58:00,
2013-02-18 23:59:00,12.2,4.6,26.55,NNW,338,0.0,0.0,71,0.00,,---,0.00,VWS V14.01,2013-02-19 06:59:00,